Wetterdaten: Donnerstag, 23.05.2019
Datum Zeit Temp. A. Pool Temp. Temp. 5cm Feuchte A. Luftdruck Regen Wind Richtung Richtung Sonnenschein ET UV Solar Taupunkt Windchill Windben Empfang
23.05.2019 00:01 12,3 C 14,4 C 12,2 C 89 % 1017,3 hPa 0,0 l/m 9,4 km/h (2 Bft) W-SW 252 0 min 0,000 mm 0,0 UV-I 0 W/m 10,5 C 10,5 C 16,1 km/h (3 Bft) 100,00 %
23.05.2019 00:02 12,3 C 14,4 C 12,2 C 89 % 1017,3 hPa 0,0 l/m 5,8 km/h (2 Bft) W-SW 258 0 min 0,000 mm 0,0 UV-I 0 W/m 10,5 C 12,3 C 12,9 km/h (3 Bft) 95,65 %
23.05.2019 00:04 12,3 C 14,4 C 12,2 C 89 % 1017,3 hPa 0,0 l/m 11,9 km/h (2 Bft) W-SW 238 0 min 0,000 mm 0,0 UV-I 0 W/m 10,5 C 9,2 C 16,1 km/h (3 Bft) 97,87 %
23.05.2019 00:06 12,3 C 14,4 C 12,2 C 89 % 1017,3 hPa 0,0 l/m 9,8 km/h (2 Bft) W-SW 252 0 min 0,000 mm 0,0 UV-I 0 W/m 10,5 C 10,2 C 16,1 km/h (3 Bft) 93,62 %
23.05.2019 00:08 12,3 C 14,4 C 12,2 C 89 % 1017,3 hPa 0,0 l/m 8,9 km/h (2 Bft) SW 221 0 min 0,000 mm 0,0 UV-I 0 W/m 10,5 C 10,7 C 14,5 km/h (3 Bft) 93,62 %
23.05.2019 00:10 12,3 C 14,4 C 12,2 C 89 % 1017,2 hPa 0,0 l/m 12,1 km/h (2 Bft) W-SW 249 0 min 0,000 mm 0,0 UV-I 0 W/m 10,5 C 9,1 C 19,3 km/h (3 Bft) 96,00 %
23.05.2019 00:12 12,3 C 14,4 C 12,2 C 89 % 1017,2 hPa 0,0 l/m 12,7 km/h (3 Bft) W-SW 237 0 min 0,000 mm 0,0 UV-I 0 W/m 10,5 C 8,9 C 19,3 km/h (3 Bft) 97,22 %
23.05.2019 00:14 12,3 C 14,4 C 12,2 C 89 % 1017,2 hPa 0,0 l/m 10,3 km/h (2 Bft) SW 224 0 min 0,000 mm 0,0 UV-I 0 W/m 10,5 C 10,0 C 16,1 km/h (3 Bft) 95,74 %
23.05.2019 00:16 12,2 C 14,4 C 12,2 C 89 % 1017,3 hPa 0,0 l/m 10,7 km/h (2 Bft) W-SW 240 0 min 0,000 mm 0,0 UV-I 0 W/m 10,4 C 9,7 C 17,7 km/h (3 Bft) 97,87 %
23.05.2019 00:18 12,2 C 14,4 C 12,2 C 90 % 1017,3 hPa 0,0 l/m 11,8 km/h (2 Bft) W-SW 241 0 min 0,000 mm 0,0 UV-I 0 W/m 10,6 C 9,1 C 20,9 km/h (4 Bft) 97,87 %
23.05.2019 00:20 12,2 C 14,4 C 11,7 C 90 % 1017,3 hPa 0,0 l/m 13,4 km/h (3 Bft) SW 230 0 min 0,000 mm 0,0 UV-I 0 W/m 10,6 C 8,4 C 19,3 km/h (3 Bft) 95,74 %
23.05.2019 00:22 12,2 C 14,4 C 12,2 C 90 % 1017,3 hPa 0,0 l/m 14,8 km/h (3 Bft) W-SW 238 0 min 0,000 mm 0,0 UV-I 0 W/m 10,6 C 7,9 C 20,9 km/h (4 Bft) 95,74 %
23.05.2019 00:24 12,2 C 14,4 C 11,7 C 90 % 1017,3 hPa 0,0 l/m 14,6 km/h (3 Bft) W 261 0 min 0,000 mm 0,0 UV-I 0 W/m 10,6 C 8,0 C 20,9 km/h (4 Bft) 97,87 %
23.05.2019 00:26 12,2 C 14,4 C 11,7 C 90 % 1017,3 hPa 0,0 l/m 14,5 km/h (3 Bft) SW 227 0 min 0,000 mm 0,0 UV-I 0 W/m 10,6 C 8,0 C 20,9 km/h (4 Bft) 97,87 %
23.05.2019 00:28 12,2 C 14,4 C 11,7 C 90 % 1017,3 hPa 0,0 l/m 15,4 km/h (3 Bft) W-SW 251 0 min 0,000 mm 0,0 UV-I 0 W/m 10,6 C 7,6 C 20,9 km/h (4 Bft) 95,74 %
23.05.2019 00:30 12,1 C 14,4 C 11,7 C 90 % 1017,3 hPa 0,0 l/m 14,5 km/h (3 Bft) SW 234 0 min 0,000 mm 0,0 UV-I 0 W/m 10,5 C 7,9 C 19,3 km/h (3 Bft) 98,00 %
23.05.2019 00:32 12,1 C 14,4 C 11,7 C 90 % 1017,2 hPa 0,0 l/m 13,7 km/h (3 Bft) SW 230 0 min 0,000 mm 0,0 UV-I 0 W/m 10,5 C 8,2 C 17,7 km/h (3 Bft) 97,87 %
23.05.2019 00:34 12,1 C 14,4 C 11,7 C 90 % 1017,2 hPa 0,0 l/m 15,7 km/h (3 Bft) S-SW 211 0 min 0,000 mm 0,0 UV-I 0 W/m 10,5 C 7,4 C 22,5 km/h (4 Bft) 100,00 %
23.05.2019 00:36 12,1 C 14,4 C 11,7 C 90 % 1017,2 hPa 0,0 l/m 14,7 km/h (3 Bft) W-SW 246 0 min 0,000 mm 0,0 UV-I 0 W/m 10,5 C 7,8 C 20,9 km/h (4 Bft) 95,74 %
23.05.2019 00:38 12,1 C 14,4 C 11,7 C 90 % 1017,2 hPa 0,0 l/m 15,7 km/h (3 Bft) W-SW 250 0 min 0,000 mm 0,0 UV-I 0 W/m 10,5 C 7,4 C 20,9 km/h (4 Bft) 97,87 %
23.05.2019 00:40 12,1 C 14,4 C 11,7 C 90 % 1017,3 hPa 0,0 l/m 16,4 km/h (3 Bft) W-SW 244 0 min 0,000 mm 0,0 UV-I 0 W/m 10,5 C 7,2 C 22,5 km/h (4 Bft) 96,00 %
23.05.2019 00:42 12,1 C 14,4 C 11,7 C 90 % 1017,2 hPa 0,0 l/m 14,7 km/h (3 Bft) SW 221 0 min 0,000 mm 0,0 UV-I 0 W/m 10,5 C 7,8 C 22,5 km/h (4 Bft) 95,74 %
23.05.2019 00:44 12,1 C 14,4 C 11,7 C 90 % 1017,2 hPa 0,0 l/m 14,7 km/h (3 Bft) SW 229 0 min 0,000 mm 0,0 UV-I 0 W/m 10,5 C 7,8 C 25,7 km/h (4 Bft) 97,87 %
23.05.2019 00:46 12,1 C 14,4 C 11,7 C 90 % 1017,2 hPa 0,0 l/m 14,9 km/h (3 Bft) W 267 0 min 0,000 mm 0,0 UV-I 0 W/m 10,5 C 7,7 C 22,5 km/h (4 Bft) 97,44 %
23.05.2019 00:48 12,1 C 14,4 C 11,7 C 90 % 1017,2 hPa 0,0 l/m 13,5 km/h (3 Bft) W-SW 240 0 min 0,000 mm 0,0 UV-I 0 W/m 10,5 C 8,3 C 17,7 km/h (3 Bft) 95,74 %
23.05.2019 00:50 12,1 C 14,4 C 11,7 C 90 % 1017,2 hPa 0,0 l/m 14,6 km/h (3 Bft) W-SW 245 0 min 0,000 mm 0,0 UV-I 0 W/m 10,5 C 7,8 C 19,3 km/h (3 Bft) 93,62 %
23.05.2019 00:52 12,1 C 14,4 C 11,7 C 90 % 1017,3 hPa 0,0 l/m 15,3 km/h (3 Bft) W-SW 241 0 min 0,000 mm 0,0 UV-I 0 W/m 10,5 C 7,6 C 22,5 km/h (4 Bft) 97,87 %
23.05.2019 00:54 12,1 C 14,4 C 11,7 C 90 % 1017,2 hPa 0,0 l/m 13,1 km/h (3 Bft) SW 219 0 min 0,000 mm 0,0 UV-I 0 W/m 10,5 C 8,4 C 22,5 km/h (4 Bft) 96,23 %
23.05.2019 00:56 12,1 C 14,4 C 11,7 C 90 % 1017,2 hPa 0,0 l/m 13,7 km/h (3 Bft) W 271 0 min 0,000 mm 0,0 UV-I 0 W/m 10,5 C 8,2 C 20,9 km/h (4 Bft) 95,74 %
23.05.2019 00:58 12,1 C 14,4 C 11,7 C 90 % 1017,3 hPa 0,0 l/m 11,8 km/h (2 Bft) SW 230 0 min 0,000 mm 0,0 UV-I 0 W/m 10,5 C 9,0 C 20,9 km/h (4 Bft) 97,87 %
23.05.2019 01:00 12,1 C 14,4 C 11,7 C 90 % 1017,3 hPa 0,0 l/m 11,1 km/h (2 Bft) W-SW 248 0 min 0,025 mm 0,0 UV-I 0 W/m 10,5 C 9,4 C 17,7 km/h (3 Bft) 93,62 %
23.05.2019 01:02 12,1 C 14,4 C 11,7 C 90 % 1017,3 hPa 0,0 l/m 15,4 km/h (3 Bft) W-NW 294 0 min 0,000 mm 0,0 UV-I 0 W/m 10,5 C 7,5 C 24,1 km/h (4 Bft) 100,00 %
23.05.2019 01:05 12,1 C 14,4 C 11,7 C 90 % 1017,3 hPa 0,0 l/m 13,9 km/h (3 Bft) SW 233 0 min 0,000 mm 0,0 UV-I 0 W/m 10,5 C 8,1 C 20,9 km/h (4 Bft) 94,52 %
23.05.2019 01:06 12,1 C 14,4 C 11,7 C 90 % 1017,3 hPa 0,0 l/m 16,3 km/h (3 Bft) W-SW 246 0 min 0,000 mm 0,0 UV-I 0 W/m 10,5 C 7,2 C 22,5 km/h (4 Bft) 100,00 %
23.05.2019 01:08 12,1 C 14,4 C 11,7 C 90 % 1017,3 hPa 0,0 l/m 13,2 km/h (3 Bft) W 275 0 min 0,000 mm 0,0 UV-I 0 W/m 10,5 C 8,4 C 19,3 km/h (3 Bft) 94,00 %
23.05.2019 01:10 12,1 C 14,4 C 11,7 C 90 % 1017,3 hPa 0,0 l/m 15,0 km/h (3 Bft) W-SW 240 0 min 0,000 mm 0,0 UV-I 0 W/m 10,5 C 7,7 C 25,7 km/h (4 Bft) 95,74 %
23.05.2019 01:12 12,1 C 14,4 C 11,7 C 90 % 1017,3 hPa 0,0 l/m 13,0 km/h (3 Bft) SW 229 0 min 0,000 mm 0,0 UV-I 0 W/m 10,5 C 8,5 C 17,7 km/h (3 Bft) 93,62 %
23.05.2019 01:14 12,1 C 14,4 C 11,7 C 90 % 1017,4 hPa 0,0 l/m 13,7 km/h (3 Bft) W-SW 238 0 min 0,000 mm 0,0 UV-I 0 W/m 10,5 C 8,2 C 17,7 km/h (3 Bft) 93,62 %
23.05.2019 01:16 12,1 C 14,4 C 11,7 C 89 % 1017,4 hPa 0,0 l/m 11,9 km/h (2 Bft) SW 223 0 min 0,000 mm 0,0 UV-I 0 W/m 10,3 C 9,0 C 19,3 km/h (3 Bft) 95,74 %
23.05.2019 01:18 12,1 C 14,4 C 11,7 C 89 % 1017,4 hPa 0,0 l/m 11,9 km/h (2 Bft) W-SW 238 0 min 0,000 mm 0,0 UV-I 0 W/m 10,3 C 9,0 C 20,9 km/h (4 Bft) 95,74 %
23.05.2019 01:20 12,1 C 14,4 C 11,7 C 89 % 1017,4 hPa 0,0 l/m 13,7 km/h (3 Bft) SW 227 0 min 0,000 mm 0,0 UV-I 0 W/m 10,3 C 8,2 C 20,9 km/h (4 Bft) 93,62 %
23.05.2019 01:22 12,1 C 14,4 C 11,7 C 89 % 1017,3 hPa 0,0 l/m 16,9 km/h (3 Bft) W-NW 284 0 min 0,000 mm 0,0 UV-I 0 W/m 10,3 C 7,0 C 20,9 km/h (4 Bft) 95,74 %
23.05.2019 01:24 12,1 C 14,4 C 11,7 C 89 % 1017,4 hPa 0,0 l/m 17,2 km/h (3 Bft) W-SW 242 0 min 0,000 mm 0,0 UV-I 0 W/m 10,3 C 6,9 C 25,7 km/h (4 Bft) 92,00 %
23.05.2019 01:26 12,1 C 14,4 C 11,7 C 89 % 1017,4 hPa 0,0 l/m 14,5 km/h (3 Bft) W-SW 250 0 min 0,000 mm 0,0 UV-I 0 W/m 10,3 C 7,9 C 24,1 km/h (4 Bft) 95,74 %
23.05.2019 01:28 12,1 C 14,4 C 11,7 C 90 % 1017,4 hPa 0,0 l/m 14,7 km/h (3 Bft) W 261 0 min 0,000 mm 0,0 UV-I 0 W/m 10,5 C 7,8 C 20,9 km/h (4 Bft) 97,87 %
23.05.2019 01:30 12,1 C 14,4 C 11,7 C 90 % 1017,4 hPa 0,0 l/m 16,6 km/h (3 Bft) SW 236 0 min 0,000 mm 0,0 UV-I 0 W/m 10,5 C 7,1 C 22,5 km/h (4 Bft) 97,92 %
23.05.2019 01:32 12,1 C 14,4 C 11,7 C 90 % 1017,4 hPa 0,0 l/m 15,7 km/h (3 Bft) W-SW 250 0 min 0,000 mm 0,0 UV-I 0 W/m 10,5 C 7,4 C 25,7 km/h (4 Bft) 95,74 %
23.05.2019 01:34 12,1 C 14,4 C 11,7 C 90 % 1017,4 hPa 0,0 l/m 15,2 km/h (3 Bft) W-SW 245 0 min 0,000 mm 0,0 UV-I 0 W/m 10,5 C 7,6 C 24,1 km/h (4 Bft) 97,87 %
23.05.2019 01:36 12,1 C 14,4 C 11,7 C 90 % 1017,4 hPa 0,0 l/m 16,9 km/h (3 Bft) W-SW 244 0 min 0,000 mm 0,0 UV-I 0 W/m 10,5 C 7,0 C 27,4 km/h (4 Bft) 95,74 %
23.05.2019 01:38 12,0 C 14,4 C 11,7 C 90 % 1017,4 hPa 0,0 l/m 13,6 km/h (3 Bft) W 269 0 min 0,000 mm 0,0 UV-I 0 W/m 10,4 C 8,1 C 25,7 km/h (4 Bft) 95,74 %
23.05.2019 01:40 12,1 C 14,4 C 11,7 C 90 % 1017,4 hPa 0,0 l/m 11,4 km/h (2 Bft) W-SW 254 0 min 0,000 mm 0,0 UV-I 0 W/m 10,5 C 9,2 C 19,3 km/h (3 Bft) 97,37 %
23.05.2019 01:42 12,0 C 14,4 C 11,7 C 90 % 1017,4 hPa 0,0 l/m 11,0 km/h (2 Bft) W 264 0 min 0,000 mm 0,0 UV-I 0 W/m 10,4 C 9,3 C 16,1 km/h (3 Bft) 96,00 %
23.05.2019 01:44 12,0 C 14,4 C 11,7 C 90 % 1017,3 hPa 0,0 l/m 11,3 km/h (2 Bft) W 265 0 min 0,000 mm 0,0 UV-I 0 W/m 10,4 C 9,1 C 14,5 km/h (3 Bft) 100,00 %
23.05.2019 01:46 12,0 C 14,4 C 11,7 C 90 % 1017,3 hPa 0,0 l/m 14,1 km/h (3 Bft) W-SW 238 0 min 0,000 mm 0,0 UV-I 0 W/m 10,4 C 7,9 C 19,3 km/h (3 Bft) 95,16 %
23.05.2019 01:48 12,0 C 14,4 C 11,7 C 90 % 1017,4 hPa 0,0 l/m 13,0 km/h (3 Bft) SW 235 0 min 0,000 mm 0,0 UV-I 0 W/m 10,4 C 8,4 C 17,7 km/h (3 Bft) 100,00 %
23.05.2019 01:50 11,9 C 14,4 C 11,7 C 90 % 1017,4 hPa 0,0 l/m 12,4 km/h (3 Bft) W-SW 243 0 min 0,000 mm 0,0 UV-I 0 W/m 10,3 C 8,5 C 20,9 km/h (4 Bft) 98,00 %
23.05.2019 01:52 11,9 C 14,4 C 11,7 C 90 % 1017,4 hPa 0,0 l/m 12,1 km/h (2 Bft) W-SW 248 0 min 0,000 mm 0,0 UV-I 0 W/m 10,3 C 8,7 C 17,7 km/h (3 Bft) 100,00 %
23.05.2019 01:54 11,9 C 14,4 C 11,7 C 90 % 1017,4 hPa 0,0 l/m 13,4 km/h (3 Bft) W-SW 240 0 min 0,000 mm 0,0 UV-I 0 W/m 10,3 C 8,1 C 19,3 km/h (3 Bft) 100,00 %
23.05.2019 01:56 11,9 C 14,4 C 11,7 C 90 % 1017,4 hPa 0,0 l/m 10,3 km/h (2 Bft) W-SW 248 0 min 0,000 mm 0,0 UV-I 0 W/m 10,3 C 9,5 C 16,1 km/h (3 Bft) 100,00 %
23.05.2019 01:58 11,9 C 14,4 C 11,7 C 90 % 1017,4 hPa 0,0 l/m 11,2 km/h (2 Bft) W-SW 243 0 min 0,000 mm 0,0 UV-I 0 W/m 10,3 C 9,1 C 17,7 km/h (3 Bft) 98,00 %
23.05.2019 02:00 11,9 C 14,4 C 11,7 C 90 % 1017,4 hPa 0,0 l/m 16,3 km/h (3 Bft) W-SW 246 0 min 0,026 mm 0,0 UV-I 0 W/m 10,3 C 7,0 C 25,7 km/h (4 Bft) 100,00 %
23.05.2019 02:02 11,9 C 14,4 C 11,7 C 90 % 1017,4 hPa 0,0 l/m 12,6 km/h (3 Bft) W-SW 240 0 min 0,000 mm 0,0 UV-I 0 W/m 10,3 C 8,4 C 19,3 km/h (3 Bft) 95,83 %
23.05.2019 02:04 11,9 C 14,4 C 11,7 C 90 % 1017,4 hPa 0,0 l/m 14,0 km/h (3 Bft) SW 225 0 min 0,000 mm 0,0 UV-I 0 W/m 10,3 C 7,8 C 19,3 km/h (3 Bft) 98,00 %
23.05.2019 02:06 11,9 C 14,4 C 11,7 C 90 % 1017,4 hPa 0,0 l/m 13,1 km/h (3 Bft) W 267 0 min 0,000 mm 0,0 UV-I 0 W/m 10,3 C 8,2 C 19,3 km/h (3 Bft) 97,96 %
23.05.2019 02:08 11,8 C 14,4 C 11,7 C 90 % 1017,4 hPa 0,0 l/m 12,8 km/h (3 Bft) W-SW 248 0 min 0,000 mm 0,0 UV-I 0 W/m 10,2 C 8,2 C 17,7 km/h (3 Bft) 95,83 %
23.05.2019 02:10 11,8 C 14,4 C 11,7 C 90 % 1017,4 hPa 0,0 l/m 12,4 km/h (3 Bft) W 268 0 min 0,000 mm 0,0 UV-I 0 W/m 10,2 C 8,4 C 19,3 km/h (3 Bft) 97,87 %
23.05.2019 02:12 11,8 C 14,4 C 11,7 C 90 % 1017,5 hPa 0,0 l/m 14,2 km/h (3 Bft) SW 226 0 min 0,000 mm 0,0 UV-I 0 W/m 10,2 C 7,6 C 20,9 km/h (4 Bft) 94,74 %
23.05.2019 02:14 11,8 C 14,4 C 11,7 C 90 % 1017,5 hPa 0,0 l/m 11,3 km/h (2 Bft) W 261 0 min 0,000 mm 0,0 UV-I 0 W/m 10,2 C 8,9 C 17,7 km/h (3 Bft) 93,62 %
23.05.2019 02:16 11,8 C 14,4 C 11,7 C 90 % 1017,4 hPa 0,0 l/m 10,9 km/h (2 Bft) W-SW 257 0 min 0,000 mm 0,0 UV-I 0 W/m 10,2 C 9,1 C 17,7 km/h (3 Bft) 95,74 %
23.05.2019 02:18 11,8 C 14,4 C 11,7 C 90 % 1017,4 hPa 0,0 l/m 11,5 km/h (2 Bft) W-SW 251 0 min 0,000 mm 0,0 UV-I 0 W/m 10,2 C 8,8 C 14,5 km/h (3 Bft) 98,00 %
23.05.2019 02:20 11,8 C 14,4 C 11,7 C 90 % 1017,4 hPa 0,0 l/m 13,2 km/h (3 Bft) W-SW 255 0 min 0,000 mm 0,0 UV-I 0 W/m 10,2 C 8,1 C 19,3 km/h (3 Bft) 95,74 %
23.05.2019 02:22 11,8 C 14,4 C 11,7 C 90 % 1017,4 hPa 0,0 l/m 11,9 km/h (2 Bft) W 262 0 min 0,000 mm 0,0 UV-I 0 W/m 10,2 C 8,6 C 16,1 km/h (3 Bft) 97,87 %
23.05.2019 02:24 11,8 C 14,4 C 11,7 C 90 % 1017,4 hPa 0,0 l/m 14,4 km/h (3 Bft) W 268 0 min 0,000 mm 0,0 UV-I 0 W/m 10,2 C 7,6 C 19,3 km/h (3 Bft) 98,00 %
23.05.2019 02:26 11,8 C 14,4 C 11,7 C 90 % 1017,4 hPa 0,0 l/m 12,0 km/h (2 Bft) W 260 0 min 0,000 mm 0,0 UV-I 0 W/m 10,2 C 8,6 C 16,1 km/h (3 Bft) 94,00 %
23.05.2019 02:28 11,8 C 14,4 C 11,7 C 90 % 1017,4 hPa 0,0 l/m 13,7 km/h (3 Bft) W 271 0 min 0,000 mm 0,0 UV-I 0 W/m 10,2 C 7,8 C 20,9 km/h (4 Bft) 97,37 %
23.05.2019 02:30 11,8 C 14,4 C 11,1 C 90 % 1017,4 hPa 0,0 l/m 12,6 km/h (3 Bft) W 271 0 min 0,000 mm 0,0 UV-I 0 W/m 10,2 C 8,3 C 19,3 km/h (3 Bft) 93,62 %
23.05.2019 02:32 11,8 C 14,4 C 11,1 C 90 % 1017,4 hPa 0,0 l/m 12,7 km/h (3 Bft) W 261 0 min 0,000 mm 0,0 UV-I 0 W/m 10,2 C 8,3 C 17,7 km/h (3 Bft) 94,00 %
23.05.2019 02:34 11,8 C 14,4 C 11,1 C 91 % 1017,4 hPa 0,0 l/m 15,2 km/h (3 Bft) W 266 0 min 0,000 mm 0,0 UV-I 0 W/m 10,4 C 7,2 C 22,5 km/h (4 Bft) 95,74 %
23.05.2019 02:36 11,8 C 14,4 C 11,1 C 91 % 1017,4 hPa 0,0 l/m 14,1 km/h (3 Bft) W-SW 244 0 min 0,000 mm 0,0 UV-I 0 W/m 10,4 C 7,7 C 19,3 km/h (3 Bft) 94,00 %
23.05.2019 02:38 11,8 C 14,4 C 11,1 C 91 % 1017,4 hPa 0,0 l/m 13,2 km/h (3 Bft) W 263 0 min 0,000 mm 0,0 UV-I 0 W/m 10,4 C 8,1 C 17,7 km/h (3 Bft) 97,87 %
23.05.2019 02:40 11,8 C 14,4 C 11,7 C 91 % 1017,4 hPa 0,0 l/m 13,0 km/h (3 Bft) W 268 0 min 0,000 mm 0,0 UV-I 0 W/m 10,4 C 8,1 C 17,7 km/h (3 Bft) 97,87 %
23.05.2019 02:42 11,8 C 14,4 C 11,7 C 91 % 1017,4 hPa 0,0 l/m 15,4 km/h (3 Bft) W 268 0 min 0,000 mm 0,0 UV-I 0 W/m 10,4 C 7,2 C 20,9 km/h (4 Bft) 97,87 %
23.05.2019 02:44 11,8 C 14,4 C 11,7 C 91 % 1017,4 hPa 0,0 l/m 11,5 km/h (2 Bft) W 265 0 min 0,000 mm 0,0 UV-I 0 W/m 10,4 C 8,8 C 16,1 km/h (3 Bft) 93,62 %
23.05.2019 02:46 11,8 C 14,4 C 11,7 C 90 % 1017,4 hPa 0,0 l/m 12,2 km/h (2 Bft) W-SW 241 0 min 0,000 mm 0,0 UV-I 0 W/m 10,2 C 8,5 C 20,9 km/h (4 Bft) 97,87 %
23.05.2019 02:48 11,8 C 14,4 C 11,7 C 91 % 1017,4 hPa 0,0 l/m 15,1 km/h (3 Bft) W 273 0 min 0,000 mm 0,0 UV-I 0 W/m 10,4 C 7,3 C 19,3 km/h (3 Bft) 100,00 %
23.05.2019 02:50 11,8 C 14,4 C 11,7 C 90 % 1017,3 hPa 0,0 l/m 12,7 km/h (3 Bft) W 259 0 min 0,000 mm 0,0 UV-I 0 W/m 10,2 C 8,3 C 16,1 km/h (3 Bft) 95,83 %
23.05.2019 02:52 11,8 C 14,4 C 11,7 C 90 % 1017,4 hPa 0,0 l/m 13,9 km/h (3 Bft) W 276 0 min 0,000 mm 0,0 UV-I 0 W/m 10,2 C 7,8 C 17,7 km/h (3 Bft) 100,00 %
23.05.2019 02:54 11,8 C 14,4 C 11,7 C 90 % 1017,3 hPa 0,0 l/m 12,2 km/h (2 Bft) W-SW 250 0 min 0,000 mm 0,0 UV-I 0 W/m 10,2 C 8,5 C 17,7 km/h (3 Bft) 97,87 %
23.05.2019 02:56 11,8 C 14,4 C 11,7 C 90 % 1017,3 hPa 0,0 l/m 11,6 km/h (2 Bft) W-SW 254 0 min 0,000 mm 0,0 UV-I 0 W/m 10,2 C 8,8 C 17,7 km/h (3 Bft) 100,00 %
23.05.2019 02:58 11,9 C 14,4 C 11,7 C 90 % 1017,4 hPa 0,0 l/m 9,9 km/h (2 Bft) W 264 0 min 0,000 mm 0,0 UV-I 0 W/m 10,3 C 9,7 C 14,5 km/h (3 Bft) 100,00 %
23.05.2019 03:00 11,8 C 14,4 C 11,7 C 90 % 1017,3 hPa 0,0 l/m 10,6 km/h (2 Bft) W-SW 257 0 min 0,025 mm 0,0 UV-I 0 W/m 10,2 C 9,3 C 16,1 km/h (3 Bft) 100,00 %
23.05.2019 03:02 11,8 C 14,4 C 11,7 C 90 % 1017,3 hPa 0,0 l/m 13,4 km/h (3 Bft) W-SW 258 0 min 0,000 mm 0,0 UV-I 0 W/m 10,2 C 8,0 C 20,9 km/h (4 Bft) 100,00 %
23.05.2019 03:04 11,8 C 14,4 C 11,7 C 90 % 1017,4 hPa 0,0 l/m 13,1 km/h (3 Bft) W 261 0 min 0,000 mm 0,0 UV-I 0 W/m 10,2 C 8,1 C 20,9 km/h (4 Bft) 97,87 %
23.05.2019 03:06 11,9 C 14,4 C 11,7 C 90 % 1017,4 hPa 0,0 l/m 13,3 km/h (3 Bft) W 281 0 min 0,000 mm 0,0 UV-I 0 W/m 10,3 C 8,1 C 19,3 km/h (3 Bft) 97,87 %
23.05.2019 03:08 11,9 C 14,4 C 11,7 C 90 % 1017,4 hPa 0,0 l/m 12,6 km/h (3 Bft) W-SW 250 0 min 0,000 mm 0,0 UV-I 0 W/m 10,3 C 8,4 C 19,3 km/h (3 Bft) 100,00 %
23.05.2019 03:10 11,9 C 14,4 C 11,7 C 90 % 1017,4 hPa 0,0 l/m 19,0 km/h (3 Bft) W-SW 258 0 min 0,000 mm 0,0 UV-I 0 W/m 10,3 C 6,0 C 22,5 km/h (4 Bft) 97,44 %
23.05.2019 03:12 11,9 C 14,4 C 11,7 C 90 % 1017,4 hPa 0,0 l/m 13,3 km/h (3 Bft) W 271 0 min 0,000 mm 0,0 UV-I 0 W/m 10,3 C 8,1 C 16,1 km/h (3 Bft) 100,00 %
23.05.2019 03:14 11,9 C 14,4 C 11,7 C 89 % 1017,4 hPa 0,0 l/m 11,0 km/h (2 Bft) W-SW 246 0 min 0,000 mm 0,0 UV-I 0 W/m 10,1 C 9,2 C 14,5 km/h (3 Bft) 100,00 %
23.05.2019 03:16 11,9 C 14,4 C 11,7 C 89 % 1017,4 hPa 0,0 l/m 9,8 km/h (2 Bft) W 263 0 min 0,000 mm 0,0 UV-I 0 W/m 10,1 C 9,8 C 14,5 km/h (3 Bft) 100,00 %
23.05.2019 03:18 11,9 C 14,4 C 11,7 C 89 % 1017,4 hPa 0,0 l/m 10,2 km/h (2 Bft) W-SW 245 0 min 0,000 mm 0,0 UV-I 0 W/m 10,1 C 9,6 C 17,7 km/h (3 Bft) 100,00 %
23.05.2019 03:20 11,9 C 14,4 C 11,7 C 89 % 1017,4 hPa 0,0 l/m 8,2 km/h (2 Bft) W 267 0 min 0,000 mm 0,0 UV-I 0 W/m 10,1 C 10,7 C 11,3 km/h (2 Bft) 100,00 %
23.05.2019 03:22 11,9 C 14,4 C 11,7 C 89 % 1017,4 hPa 0,0 l/m 10,7 km/h (2 Bft) W-SW 254 0 min 0,000 mm 0,0 UV-I 0 W/m 10,1 C 9,3 C 16,1 km/h (3 Bft) 97,87 %
23.05.2019 03:24 11,9 C 14,4 C 11,7 C 89 % 1017,4 hPa 0,0 l/m 13,6 km/h (3 Bft) W-SW 248 0 min 0,000 mm 0,0 UV-I 0 W/m 10,1 C 8,0 C 22,5 km/h (4 Bft) 97,87 %
23.05.2019 03:26 11,9 C 14,4 C 11,7 C 89 % 1017,5 hPa 0,0 l/m 9,8 km/h (2 Bft) W 269 0 min 0,000 mm 0,0 UV-I 0 W/m 10,1 C 9,8 C 14,5 km/h (3 Bft) 97,87 %
23.05.2019 03:28 11,9 C 14,4 C 11,7 C 89 % 1017,4 hPa 0,0 l/m 11,7 km/h (2 Bft) SW 232 0 min 0,000 mm 0,0 UV-I 0 W/m 10,1 C 8,8 C 16,1 km/h (3 Bft) 98,00 %
23.05.2019 03:30 11,8 C 14,4 C 11,7 C 89 % 1017,4 hPa 0,0 l/m 11,0 km/h (2 Bft) SW 232 0 min 0,000 mm 0,0 UV-I 0 W/m 10,0 C 9,1 C 16,1 km/h (3 Bft) 97,87 %
23.05.2019 03:32 11,8 C 14,4 C 11,7 C 89 % 1017,4 hPa 0,0 l/m 11,6 km/h (2 Bft) W-SW 246 0 min 0,000 mm 0,0 UV-I 0 W/m 10,0 C 8,8 C 16,1 km/h (3 Bft) 97,87 %
23.05.2019 03:34 11,8 C 14,4 C 11,7 C 89 % 1017,4 hPa 0,0 l/m 12,0 km/h (2 Bft) SW 235 0 min 0,000 mm 0,0 UV-I 0 W/m 10,0 C 8,6 C 17,7 km/h (3 Bft) 97,87 %
23.05.2019 03:36 11,8 C 14,4 C 11,7 C 89 % 1017,4 hPa 0,0 l/m 10,5 km/h (2 Bft) W 262 0 min 0,000 mm 0,0 UV-I 0 W/m 10,0 C 9,3 C 14,5 km/h (3 Bft) 100,00 %
23.05.2019 03:38 11,8 C 14,4 C 11,1 C 89 % 1017,4 hPa 0,0 l/m 12,9 km/h (3 Bft) W 264 0 min 0,000 mm 0,0 UV-I 0 W/m 10,0 C 8,2 C 17,7 km/h (3 Bft) 100,00 %
23.05.2019 03:40 11,8 C 14,4 C 11,1 C 89 % 1017,4 hPa 0,0 l/m 11,0 km/h (2 Bft) W 275 0 min 0,000 mm 0,0 UV-I 0 W/m 10,0 C 9,1 C 16,1 km/h (3 Bft) 97,87 %
23.05.2019 03:42 11,7 C 14,4 C 11,1 C 89 % 1017,4 hPa 0,0 l/m 12,3 km/h (3 Bft) W 267 0 min 0,000 mm 0,0 UV-I 0 W/m 9,9 C 8,3 C 17,7 km/h (3 Bft) 100,00 %
23.05.2019 03:44 11,7 C 14,4 C 11,1 C 89 % 1017,4 hPa 0,0 l/m 9,2 km/h (2 Bft) SW 234 0 min 0,000 mm 0,0 UV-I 0 W/m 9,9 C 9,9 C 17,7 km/h (3 Bft) 100,00 %
23.05.2019 03:46 11,7 C 14,4 C 11,1 C 89 % 1017,4 hPa 0,0 l/m 12,8 km/h (3 Bft) W-SW 254 0 min 0,000 mm 0,0 UV-I 0 W/m 9,9 C 8,1 C 19,3 km/h (3 Bft) 100,00 %
23.05.2019 03:48 11,7 C 14,4 C 11,1 C 89 % 1017,4 hPa 0,0 l/m 11,6 km/h (2 Bft) W 265 0 min 0,000 mm 0,0 UV-I 0 W/m 9,9 C 8,7 C 16,1 km/h (3 Bft) 97,87 %
23.05.2019 03:50 11,7 C 14,4 C 11,1 C 89 % 1017,3 hPa 0,0 l/m 10,8 km/h (2 Bft) W-SW 254 0 min 0,000 mm 0,0 UV-I 0 W/m 9,9 C 9,1 C 20,9 km/h (4 Bft) 98,00 %
23.05.2019 03:52 11,7 C 14,4 C 11,1 C 89 % 1017,3 hPa 0,0 l/m 11,4 km/h (2 Bft) W-SW 258 0 min 0,000 mm 0,0 UV-I 0 W/m 9,9 C 8,8 C 16,1 km/h (3 Bft) 100,00 %
23.05.2019 03:54 11,7 C 14,4 C 11,1 C 89 % 1017,3 hPa 0,0 l/m 10,8 km/h (2 Bft) W 270 0 min 0,000 mm 0,0 UV-I 0 W/m 9,9 C 9,1 C 16,1 km/h (3 Bft) 97,22 %
23.05.2019 03:56 11,7 C 14,4 C 11,1 C 89 % 1017,3 hPa 0,0 l/m 13,7 km/h (3 Bft) W-SW 250 0 min 0,000 mm 0,0 UV-I 0 W/m 9,9 C 7,7 C 19,3 km/h (3 Bft) 98,11 %
23.05.2019 03:58 11,7 C 14,4 C 11,1 C 89 % 1017,4 hPa 0,0 l/m 11,7 km/h (2 Bft) W-SW 242 0 min 0,000 mm 0,0 UV-I 0 W/m 9,9 C 8,6 C 17,7 km/h (3 Bft) 95,74 %
23.05.2019 04:00 11,7 C 14,4 C 11,1 C 89 % 1017,4 hPa 0,0 l/m 10,6 km/h (2 Bft) W 267 0 min 0,000 mm 0,0 UV-I 0 W/m 9,9 C 9,2 C 14,5 km/h (3 Bft) 97,87 %
23.05.2019 04:02 11,7 C 14,4 C 11,1 C 89 % 1017,4 hPa 0,0 l/m 11,5 km/h (2 Bft) W 266 0 min 0,026 mm 0,0 UV-I 0 W/m 9,9 C 8,7 C 20,9 km/h (4 Bft) 88,89 %
23.05.2019 04:04 11,6 C 14,4 C 11,1 C 89 % 1017,4 hPa 0,0 l/m 11,3 km/h (2 Bft) W 264 0 min 0,000 mm 0,0 UV-I 0 W/m 9,8 C 8,7 C 16,1 km/h (3 Bft) 93,62 %
23.05.2019 04:06 11,6 C 14,4 C 11,1 C 89 % 1017,4 hPa 0,0 l/m 10,2 km/h (2 Bft) W 265 0 min 0,000 mm 0,0 UV-I 0 W/m 9,8 C 9,3 C 14,5 km/h (3 Bft) 95,74 %
23.05.2019 04:08 11,6 C 14,4 C 11,1 C 90 % 1017,4 hPa 0,0 l/m 12,4 km/h (3 Bft) W 263 0 min 0,000 mm 0,0 UV-I 0 W/m 10,0 C 8,2 C 19,3 km/h (3 Bft) 93,62 %
23.05.2019 04:10 11,6 C 14,4 C 11,1 C 90 % 1017,4 hPa 0,0 l/m 10,9 km/h (2 Bft) W 270 0 min 0,000 mm 0,0 UV-I 0 W/m 10,0 C 8,9 C 17,7 km/h (3 Bft) 95,74 %
23.05.2019 04:12 11,6 C 14,4 C 11,1 C 90 % 1017,4 hPa 0,0 l/m 12,6 km/h (3 Bft) W 266 0 min 0,000 mm 0,0 UV-I 0 W/m 10,0 C 8,1 C 17,7 km/h (3 Bft) 89,36 %
23.05.2019 04:14 11,6 C 14,4 C 11,1 C 89 % 1017,4 hPa 0,0 l/m 10,9 km/h (2 Bft) W-SW 245 0 min 0,000 mm 0,0 UV-I 0 W/m 9,8 C 8,9 C 17,7 km/h (3 Bft) 93,88 %
23.05.2019 04:16 11,6 C 14,4 C 11,1 C 89 % 1017,5 hPa 0,0 l/m 11,9 km/h (2 Bft) W 260 0 min 0,000 mm 0,0 UV-I 0 W/m 9,8 C 8,4 C 16,1 km/h (3 Bft) 95,74 %
23.05.2019 04:18 11,6 C 14,4 C 11,1 C 90 % 1017,4 hPa 0,0 l/m 10,8 km/h (2 Bft) W 270 0 min 0,000 mm 0,0 UV-I 0 W/m 10,0 C 8,9 C 14,5 km/h (3 Bft) 95,74 %
23.05.2019 04:20 11,6 C 14,4 C 11,1 C 90 % 1017,4 hPa 0,0 l/m 11,5 km/h (2 Bft) W 273 0 min 0,000 mm 0,0 UV-I 0 W/m 10,0 C 8,6 C 16,1 km/h (3 Bft) 95,74 %
23.05.2019 04:22 11,6 C 14,4 C 11,1 C 90 % 1017,4 hPa 0,0 l/m 11,7 km/h (2 Bft) W 281 0 min 0,000 mm 0,0 UV-I 0 W/m 10,0 C 8,5 C 20,9 km/h (4 Bft) 96,00 %
23.05.2019 04:24 11,6 C 14,4 C 11,1 C 90 % 1017,5 hPa 0,0 l/m 13,4 km/h (3 Bft) W 262 0 min 0,000 mm 0,0 UV-I 0 W/m 10,0 C 7,7 C 22,5 km/h (4 Bft) 93,62 %
23.05.2019 04:26 11,6 C 14,4 C 11,1 C 90 % 1017,5 hPa 0,0 l/m 13,3 km/h (3 Bft) W 270 0 min 0,000 mm 0,0 UV-I 0 W/m 10,0 C 7,8 C 17,7 km/h (3 Bft) 92,11 %
23.05.2019 04:28 11,6 C 14,4 C 11,1 C 89 % 1017,5 hPa 0,0 l/m 9,1 km/h (2 Bft) W 259 0 min 0,000 mm 0,0 UV-I 0 W/m 9,8 C 9,9 C 16,1 km/h (3 Bft) 95,74 %
23.05.2019 04:30 11,6 C 14,4 C 11,1 C 89 % 1017,5 hPa 0,0 l/m 9,4 km/h (2 Bft) W 261 0 min 0,000 mm 0,0 UV-I 0 W/m 9,8 C 9,7 C 12,9 km/h (3 Bft) 95,74 %
23.05.2019 04:32 11,5 C 14,4 C 11,1 C 89 % 1017,5 hPa 0,0 l/m 10,4 km/h (2 Bft) W-SW 254 0 min 0,000 mm 0,0 UV-I 0 W/m 9,8 C 9,0 C 16,1 km/h (3 Bft) 95,83 %
23.05.2019 04:34 11,5 C 14,4 C 11,1 C 90 % 1017,5 hPa 0,0 l/m 12,2 km/h (2 Bft) W 274 0 min 0,000 mm 0,0 UV-I 0 W/m 9,9 C 8,1 C 19,3 km/h (3 Bft) 97,87 %
23.05.2019 04:36 11,5 C 14,4 C 11,1 C 90 % 1017,5 hPa 0,0 l/m 9,6 km/h (2 Bft) W-SW 254 0 min 0,000 mm 0,0 UV-I 0 W/m 9,9 C 9,5 C 14,5 km/h (3 Bft) 100,00 %
23.05.2019 04:38 11,5 C 14,4 C 11,1 C 90 % 1017,5 hPa 0,0 l/m 9,7 km/h (2 Bft) W 265 0 min 0,000 mm 0,0 UV-I 0 W/m 9,9 C 9,4 C 12,9 km/h (3 Bft) 98,00 %
23.05.2019 04:40 11,4 C 14,4 C 11,1 C 90 % 1017,5 hPa 0,0 l/m 11,3 km/h (2 Bft) W 263 0 min 0,000 mm 0,0 UV-I 0 W/m 9,8 C 8,5 C 16,1 km/h (3 Bft) 97,87 %
23.05.2019 04:42 11,4 C 14,4 C 11,1 C 89 % 1017,5 hPa 0,0 l/m 8,6 km/h (2 Bft) W-SW 248 0 min 0,000 mm 0,0 UV-I 0 W/m 9,7 C 9,9 C 12,9 km/h (3 Bft) 97,87 %
23.05.2019 04:44 11,4 C 14,4 C 11,1 C 89 % 1017,5 hPa 0,0 l/m 8,8 km/h (2 Bft) SW 222 0 min 0,000 mm 0,0 UV-I 0 W/m 9,7 C 9,8 C 12,9 km/h (3 Bft) 100,00 %
23.05.2019 04:46 11,4 C 14,4 C 11,1 C 90 % 1017,5 hPa 0,0 l/m 8,6 km/h (2 Bft) W 259 0 min 0,000 mm 0,0 UV-I 0 W/m 9,8 C 9,9 C 11,3 km/h (2 Bft) 100,00 %
23.05.2019 04:48 11,3 C 14,4 C 10,6 C 90 % 1017,5 hPa 0,0 l/m 9,8 km/h (2 Bft) W-NW 284 0 min 0,000 mm 0,0 UV-I 0 W/m 9,7 C 9,1 C 14,5 km/h (3 Bft) 100,00 %
23.05.2019 04:50 11,4 C 14,4 C 10,6 C 90 % 1017,5 hPa 0,0 l/m 8,8 km/h (2 Bft) W-SW 258 0 min 0,000 mm 0,0 UV-I 0 W/m 9,8 C 9,8 C 12,9 km/h (3 Bft) 95,74 %
23.05.2019 04:52 11,3 C 14,4 C 10,6 C 90 % 1017,4 hPa 0,0 l/m 8,4 km/h (2 Bft) SW 234 0 min 0,000 mm 0,0 UV-I 0 W/m 9,7 C 10,0 C 12,9 km/h (3 Bft) 94,00 %
23.05.2019 04:54 11,3 C 14,4 C 10,6 C 90 % 1017,5 hPa 0,0 l/m 9,9 km/h (2 Bft) W-SW 258 0 min 0,000 mm 0,0 UV-I 0 W/m 9,7 C 9,1 C 16,1 km/h (3 Bft) 95,74 %
23.05.2019 04:56 11,3 C 14,4 C 10,6 C 90 % 1017,4 hPa 0,0 l/m 12,0 km/h (2 Bft) W-SW 237 0 min 0,000 mm 0,0 UV-I 0 W/m 9,7 C 8,0 C 17,7 km/h (3 Bft) 97,87 %
23.05.2019 04:58 11,3 C 14,4 C 10,6 C 90 % 1017,4 hPa 0,0 l/m 11,9 km/h (2 Bft) W-SW 246 0 min 0,000 mm 0,0 UV-I 0 W/m 9,7 C 8,1 C 20,9 km/h (4 Bft) 97,87 %
23.05.2019 05:00 11,3 C 14,4 C 10,6 C 89 % 1017,4 hPa 0,0 l/m 10,2 km/h (2 Bft) SW 226 0 min 0,025 mm 0,0 UV-I 0 W/m 9,6 C 8,9 C 17,7 km/h (3 Bft) 97,87 %
23.05.2019 05:02 11,3 C 14,4 C 10,6 C 89 % 1017,4 hPa 0,0 l/m 10,7 km/h (2 Bft) W-SW 245 0 min 0,000 mm 0,0 UV-I 0 W/m 9,6 C 8,7 C 17,7 km/h (3 Bft) 97,37 %
23.05.2019 05:04 11,3 C 14,4 C 10,6 C 89 % 1017,5 hPa 0,0 l/m 11,4 km/h (2 Bft) W 261 0 min 0,000 mm 0,0 UV-I 0 W/m 9,6 C 8,3 C 17,7 km/h (3 Bft) 97,87 %
23.05.2019 05:06 11,3 C 14,4 C 10,6 C 89 % 1017,4 hPa 0,0 l/m 8,7 km/h (2 Bft) W 263 0 min 0,000 mm 0,0 UV-I 2 W/m 9,6 C 9,8 C 14,5 km/h (3 Bft) 95,74 %
23.05.2019 05:08 11,3 C 14,4 C 10,6 C 89 % 1017,4 hPa 0,0 l/m 7,5 km/h (2 Bft) W-SW 254 0 min 0,000 mm 0,0 UV-I 5 W/m 9,6 C 10,5 C 11,3 km/h (2 Bft) 97,87 %
23.05.2019 05:10 11,3 C 14,4 C 10,6 C 89 % 1017,4 hPa 0,0 l/m 7,6 km/h (2 Bft) W 264 0 min 0,000 mm 0,0 UV-I 5 W/m 9,6 C 10,5 C 12,9 km/h (3 Bft) 97,87 %
23.05.2019 05:12 11,2 C 14,4 C 10,6 C 90 % 1017,4 hPa 0,0 l/m 9,5 km/h (2 Bft) W 264 0 min 0,000 mm 0,0 UV-I 5 W/m 9,6 C 9,2 C 14,5 km/h (3 Bft) 97,92 %
23.05.2019 05:14 11,2 C 14,4 C 10,6 C 90 % 1017,4 hPa 0,0 l/m 7,9 km/h (2 Bft) W-SW 257 0 min 0,000 mm 0,0 UV-I 5 W/m 9,6 C 10,2 C 12,9 km/h (3 Bft) 95,74 %
23.05.2019 05:16 11,2 C 14,4 C 10,6 C 90 % 1017,4 hPa 0,0 l/m 7,3 km/h (2 Bft) W-SW 251 0 min 0,000 mm 0,0 UV-I 5 W/m 9,6 C 10,6 C 11,3 km/h (2 Bft) 92,00 %
23.05.2019 05:18 11,1 C 14,4 C 10,6 C 90 % 1017,4 hPa 0,0 l/m 10,2 km/h (2 Bft) W-NW 296 0 min 0,000 mm 0,0 UV-I 6 W/m 9,5 C 8,7 C 14,5 km/h (3 Bft) 95,74 %
23.05.2019 05:20 11,1 C 14,4 C 10,0 C 90 % 1017,4 hPa 0,0 l/m 6,7 km/h (2 Bft) W 259 0 min 0,000 mm 0,0 UV-I 7 W/m 9,5 C 10,9 C 11,3 km/h (2 Bft) 91,49 %
23.05.2019 05:22 11,1 C 14,4 C 10,0 C 90 % 1017,4 hPa 0,0 l/m 7,4 km/h (2 Bft) W 267 0 min 0,000 mm 0,0 UV-I 7 W/m 9,5 C 10,4 C 12,9 km/h (3 Bft) 93,62 %
23.05.2019 05:24 11,0 C 14,4 C 10,0 C 90 % 1017,4 hPa 0,0 l/m 6,7 km/h (2 Bft) W-SW 257 0 min 0,000 mm 0,0 UV-I 7 W/m 9,4 C 10,8 C 11,3 km/h (2 Bft) 96,00 %
23.05.2019 05:26 10,9 C 14,4 C 10,0 C 90 % 1017,4 hPa 0,0 l/m 8,9 km/h (2 Bft) W 275 0 min 0,000 mm 0,0 UV-I 9 W/m 9,3 C 9,2 C 12,9 km/h (3 Bft) 95,74 %
23.05.2019 05:28 10,9 C 14,4 C 10,0 C 90 % 1017,3 hPa 0,0 l/m 7,4 km/h (2 Bft) W-SW 239 2 min 0,000 mm 0,0 UV-I 9 W/m 9,3 C 10,2 C 11,3 km/h (2 Bft) 92,11 %
23.05.2019 05:30 10,8 C 14,4 C 10,0 C 90 % 1017,3 hPa 0,0 l/m 8,3 km/h (2 Bft) W-SW 249 0 min 0,000 mm 0,0 UV-I 11 W/m 9,2 C 9,5 C 14,5 km/h (3 Bft) 93,62 %
23.05.2019 05:32 10,8 C 14,4 C 10,0 C 91 % 1017,3 hPa 0,0 l/m 8,7 km/h (2 Bft) W-SW 246 0 min 0,000 mm 0,0 UV-I 11 W/m 9,4 C 9,2 C 14,5 km/h (3 Bft) 93,62 %
23.05.2019 05:34 10,8 C 14,4 C 10,0 C 91 % 1017,3 hPa 0,0 l/m 10,8 km/h (2 Bft) SW 219 0 min 0,000 mm 0,0 UV-I 12 W/m 9,4 C 8,0 C 16,1 km/h (3 Bft) 93,62 %
23.05.2019 05:36 10,8 C 14,4 C 10,0 C 91 % 1017,3 hPa 0,0 l/m 10,3 km/h (2 Bft) W 267 0 min 0,000 mm 0,0 UV-I 14 W/m 9,4 C 8,3 C 12,9 km/h (3 Bft) 93,62 %
23.05.2019 05:38 10,7 C 14,4 C 10,0 C 91 % 1017,4 hPa 0,0 l/m 6,8 km/h (2 Bft) W 275 0 min 0,000 mm 0,0 UV-I 16 W/m 9,3 C 10,4 C 12,9 km/h (3 Bft) 95,74 %
23.05.2019 05:40 10,7 C 14,4 C 9,4 C 91 % 1017,4 hPa 0,0 l/m 7,7 km/h (2 Bft) W-SW 248 0 min 0,000 mm 0,0 UV-I 16 W/m 9,3 C 9,8 C 12,9 km/h (3 Bft) 94,00 %
23.05.2019 05:42 10,7 C 14,4 C 9,4 C 91 % 1017,4 hPa 0,0 l/m 8,2 km/h (2 Bft) SW 234 0 min 0,000 mm 0,0 UV-I 18 W/m 9,3 C 9,5 C 12,9 km/h (3 Bft) 98,00 %
23.05.2019 05:44 10,6 C 14,4 C 9,4 C 91 % 1017,4 hPa 0,0 l/m 8,4 km/h (2 Bft) SW 233 0 min 0,000 mm 0,0 UV-I 20 W/m 9,2 C 9,2 C 14,5 km/h (3 Bft) 100,00 %
23.05.2019 05:46 10,6 C 14,4 C 9,4 C 91 % 1017,4 hPa 0,0 l/m 9,9 km/h (2 Bft) W-SW 244 0 min 0,000 mm 0,0 UV-I 22 W/m 9,2 C 8,3 C 12,9 km/h (3 Bft) 97,87 %
23.05.2019 05:48 10,6 C 14,4 C 9,4 C 92 % 1017,4 hPa 0,0 l/m 7,7 km/h (2 Bft) SW 236 0 min 0,000 mm 0,0 UV-I 24 W/m 9,4 C 9,7 C 11,3 km/h (2 Bft) 95,74 %
23.05.2019 05:50 10,5 C 14,4 C 9,4 C 92 % 1017,4 hPa 0,0 l/m 8,5 km/h (2 Bft) S-SW 206 0 min 0,000 mm 0,0 UV-I 26 W/m 9,3 C 9,1 C 12,9 km/h (3 Bft) 97,44 %
23.05.2019 05:52 10,4 C 14,4 C 9,4 C 92 % 1017,4 hPa 0,0 l/m 7,8 km/h (2 Bft) W-SW 251 0 min 0,000 mm 0,0 UV-I 27 W/m 9,2 C 9,4 C 12,9 km/h (3 Bft) 98,00 %
23.05.2019 05:54 10,4 C 14,4 C 9,4 C 92 % 1017,5 hPa 0,0 l/m 8,4 km/h (2 Bft) SW 236 0 min 0,000 mm 0,0 UV-I 29 W/m 9,2 C 9,0 C 12,9 km/h (3 Bft) 100,00 %
23.05.2019 05:56 10,4 C 14,4 C 9,4 C 92 % 1017,5 hPa 0,0 l/m 9,0 km/h (2 Bft) W-SW 239 0 min 0,000 mm 0,0 UV-I 30 W/m 9,2 C 8,6 C 12,9 km/h (3 Bft) 97,87 %
23.05.2019 05:58 10,4 C 14,4 C 9,4 C 92 % 1017,5 hPa 0,0 l/m 8,3 km/h (2 Bft) SW 236 0 min 0,000 mm 0,0 UV-I 31 W/m 9,2 C 9,1 C 12,9 km/h (3 Bft) 96,00 %
23.05.2019 06:00 10,3 C 14,4 C 9,4 C 93 % 1017,5 hPa 0,0 l/m 6,9 km/h (2 Bft) W-SW 243 0 min 0,025 mm 0,0 UV-I 32 W/m 9,2 C 9,9 C 12,9 km/h (3 Bft) 100,00 %
23.05.2019 06:02 10,3 C 14,4 C 9,4 C 93 % 1017,5 hPa 0,0 l/m 5,4 km/h (1 Bft) W-SW 255 0 min 0,000 mm 0,0 UV-I 33 W/m 9,2 C 10,3 C 9,7 km/h (2 Bft) 97,87 %
23.05.2019 06:04 10,3 C 14,4 C 9,4 C 93 % 1017,5 hPa 0,0 l/m 4,8 km/h (1 Bft) W-SW 250 0 min 0,000 mm 0,0 UV-I 33 W/m 9,2 C 10,3 C 6,4 km/h (2 Bft) 95,74 %
23.05.2019 06:06 10,3 C 14,4 C 9,4 C 93 % 1017,5 hPa 0,0 l/m 5,4 km/h (1 Bft) W 265 0 min 0,000 mm 0,0 UV-I 35 W/m 9,2 C 10,3 C 8,0 km/h (2 Bft) 97,14 %
23.05.2019 06:08 10,2 C 14,4 C 9,4 C 93 % 1017,6 hPa 0,0 l/m 6,5 km/h (2 Bft) W 265 0 min 0,000 mm 0,0 UV-I 36 W/m 9,1 C 10,2 C 9,7 km/h (2 Bft) 98,00 %
23.05.2019 06:10 10,2 C 14,4 C 9,4 C 93 % 1017,6 hPa 0,0 l/m 5,8 km/h (2 Bft) W 260 0 min 0,000 mm 0,0 UV-I 38 W/m 9,1 C 10,2 C 8,0 km/h (2 Bft) 95,74 %
23.05.2019 06:12 10,2 C 14,4 C 9,4 C 93 % 1017,6 hPa 0,0 l/m 5,7 km/h (1 Bft) W 261 0 min 0,000 mm 0,0 UV-I 39 W/m 9,1 C 10,2 C 9,7 km/h (2 Bft) 97,87 %
23.05.2019 06:14 10,2 C 14,4 C 9,4 C 93 % 1017,5 hPa 0,0 l/m 5,7 km/h (1 Bft) W-SW 253 0 min 0,000 mm 0,0 UV-I 37 W/m 9,1 C 10,2 C 11,3 km/h (2 Bft) 95,74 %
23.05.2019 06:16 10,3 C 14,4 C 10,0 C 93 % 1017,6 hPa 0,0 l/m 5,4 km/h (1 Bft) W 268 0 min 0,000 mm 0,0 UV-I 37 W/m 9,2 C 10,3 C 6,4 km/h (2 Bft) 95,74 %
23.05.2019 06:18 10,3 C 14,4 C 10,0 C 93 % 1017,6 hPa 0,0 l/m 6,9 km/h (2 Bft) W 268 0 min 0,000 mm 0,0 UV-I 37 W/m 9,2 C 9,9 C 11,3 km/h (2 Bft) 95,74 %
23.05.2019 06:20 10,3 C 14,4 C 10,0 C 93 % 1017,6 hPa 0,0 l/m 6,4 km/h (2 Bft) W 263 0 min 0,000 mm 0,0 UV-I 35 W/m 9,2 C 10,3 C 9,7 km/h (2 Bft) 95,74 %
23.05.2019 06:22 10,2 C 14,4 C 9,4 C 93 % 1017,6 hPa 0,0 l/m 9,8 km/h (2 Bft) W 273 0 min 0,000 mm 0,0 UV-I 33 W/m 9,1 C 7,9 C 16,1 km/h (3 Bft) 97,87 %
23.05.2019 06:24 10,2 C 14,4 C 9,4 C 93 % 1017,6 hPa 0,0 l/m 7,1 km/h (2 Bft) W 272 0 min 0,000 mm 0,0 UV-I 31 W/m 9,1 C 9,7 C 11,3 km/h (2 Bft) 97,87 %
23.05.2019 06:26 10,2 C 14,4 C 10,0 C 93 % 1017,6 hPa 0,0 l/m 6,0 km/h (2 Bft) W 275 0 min 0,000 mm 0,0 UV-I 30 W/m 9,1 C 10,2 C 9,7 km/h (2 Bft) 97,92 %
23.05.2019 06:28 10,2 C 14,4 C 10,0 C 93 % 1017,7 hPa 0,0 l/m 7,9 km/h (2 Bft) W-NW 290 0 min 0,000 mm 0,0 UV-I 27 W/m 9,1 C 9,1 C 11,3 km/h (2 Bft) 95,74 %
23.05.2019 06:30 10,3 C 14,4 C 10,0 C 93 % 1017,7 hPa 0,0 l/m 6,9 km/h (2 Bft) W-NW 288 0 min 0,000 mm 0,0 UV-I 28 W/m 9,2 C 9,9 C 11,3 km/h (2 Bft) 95,74 %
23.05.2019 06:32 10,3 C 14,4 C 10,0 C 93 % 1017,7 hPa 0,0 l/m 14,6 km/h (3 Bft) W 265 0 min 0,000 mm 0,0 UV-I 28 W/m 9,2 C 5,7 C 22,5 km/h (4 Bft) 95,74 %
23.05.2019 06:34 10,4 C 14,4 C 10,6 C 92 % 1017,7 hPa 0,0 l/m 9,5 km/h (2 Bft) W-SW 257 0 min 0,000 mm 0,0 UV-I 30 W/m 9,2 C 8,3 C 14,5 km/h (3 Bft) 98,00 %
23.05.2019 06:36 10,4 C 14,4 C 10,6 C 92 % 1017,7 hPa 0,0 l/m 11,0 km/h (2 Bft) W 277 0 min 0,000 mm 0,0 UV-I 32 W/m 9,2 C 7,5 C 19,3 km/h (3 Bft) 95,74 %
23.05.2019 06:38 10,6 C 14,4 C 10,6 C 92 % 1017,7 hPa 0,0 l/m 12,0 km/h (2 Bft) W-SW 252 0 min 0,000 mm 0,0 UV-I 36 W/m 9,4 C 7,2 C 19,3 km/h (3 Bft) 96,00 %
23.05.2019 06:40 10,6 C 14,4 C 10,6 C 91 % 1017,7 hPa 0,0 l/m 12,5 km/h (3 Bft) W 265 0 min 0,000 mm 0,0 UV-I 44 W/m 9,2 C 7,0 C 22,5 km/h (4 Bft) 95,74 %
23.05.2019 06:42 10,6 C 14,4 C 10,6 C 91 % 1017,8 hPa 0,0 l/m 12,8 km/h (3 Bft) W 268 0 min 0,000 mm 0,0 UV-I 52 W/m 9,2 C 6,8 C 19,3 km/h (3 Bft) 97,87 %
23.05.2019 06:44 10,7 C 14,4 C 11,1 C 91 % 1017,8 hPa 0,0 l/m 13,6 km/h (3 Bft) W-NW 291 0 min 0,000 mm 0,0 UV-I 53 W/m 9,3 C 6,6 C 22,5 km/h (4 Bft) 94,74 %
23.05.2019 06:46 10,7 C 14,4 C 11,1 C 90 % 1017,8 hPa 0,0 l/m 15,3 km/h (3 Bft) W 262 0 min 0,000 mm 0,0 UV-I 56 W/m 9,1 C 5,9 C 24,1 km/h (4 Bft) 97,87 %
23.05.2019 06:48 10,7 C 14,4 C 11,1 C 90 % 1017,8 hPa 0,0 l/m 11,8 km/h (2 Bft) W 261 0 min 0,000 mm 0,0 UV-I 61 W/m 9,1 C 7,4 C 16,1 km/h (3 Bft) 95,74 %
23.05.2019 06:50 10,7 C 14,4 C 11,1 C 90 % 1017,8 hPa 0,0 l/m 11,0 km/h (2 Bft) W-NW 290 0 min 0,000 mm 0,0 UV-I 63 W/m 9,1 C 7,8 C 24,1 km/h (4 Bft) 95,74 %
23.05.2019 06:52 10,8 C 14,4 C 11,1 C 90 % 1017,8 hPa 0,0 l/m 9,1 km/h (2 Bft) W 263 0 min 0,000 mm 0,0 UV-I 68 W/m 9,2 C 9,0 C 14,5 km/h (3 Bft) 97,87 %
23.05.2019 06:54 10,8 C 14,4 C 11,1 C 90 % 1017,9 hPa 0,0 l/m 10,7 km/h (2 Bft) W 267 0 min 0,000 mm 0,0 UV-I 72 W/m 9,2 C 8,1 C 16,1 km/h (3 Bft) 98,00 %
23.05.2019 06:56 10,8 C 14,4 C 11,1 C 90 % 1017,9 hPa 0,0 l/m 11,4 km/h (2 Bft) W 259 0 min 0,000 mm 0,0 UV-I 77 W/m 9,2 C 7,7 C 17,7 km/h (3 Bft) 100,00 %
23.05.2019 06:58 10,8 C 14,4 C 11,7 C 89 % 1017,9 hPa 0,0 l/m 8,9 km/h (2 Bft) W 265 0 min 0,000 mm 0,0 UV-I 80 W/m 9,1 C 9,1 C 17,7 km/h (3 Bft) 97,87 %
23.05.2019 07:00 10,8 C 14,4 C 11,7 C 89 % 1017,9 hPa 0,0 l/m 8,9 km/h (2 Bft) W-SW 255 0 min 0,026 mm 0,0 UV-I 78 W/m 9,1 C 9,1 C 14,5 km/h (3 Bft) 100,00 %
23.05.2019 07:02 10,8 C 14,4 C 11,7 C 89 % 1018,0 hPa 0,0 l/m 12,3 km/h (3 Bft) W-SW 252 0 min 0,000 mm 0,0 UV-I 76 W/m 9,1 C 7,3 C 17,7 km/h (3 Bft) 100,00 %
23.05.2019 07:04 10,8 C 14,4 C 11,7 C 89 % 1018,0 hPa 0,0 l/m 9,5 km/h (2 Bft) NW 312 0 min 0,000 mm 0,0 UV-I 76 W/m 9,1 C 8,8 C 14,5 km/h (3 Bft) 100,00 %
23.05.2019 07:06 10,8 C 14,4 C 11,7 C 89 % 1018,0 hPa 0,0 l/m 14,0 km/h (3 Bft) W 268 0 min 0,000 mm 0,0 UV-I 78 W/m 9,1 C 6,5 C 17,7 km/h (3 Bft) 100,00 %
23.05.2019 07:08 10,8 C 14,4 C 11,7 C 89 % 1018,0 hPa 0,0 l/m 11,8 km/h (2 Bft) W-SW 252 0 min 0,000 mm 0,0 UV-I 83 W/m 9,1 C 7,5 C 16,1 km/h (3 Bft) 100,00 %
23.05.2019 07:10 10,9 C 14,4 C 11,7 C 89 % 1018,1 hPa 0,0 l/m 10,9 km/h (2 Bft) W-SW 257 0 min 0,000 mm 0,0 UV-I 87 W/m 9,2 C 8,1 C 19,3 km/h (3 Bft) 97,87 %
23.05.2019 07:12 10,9 C 14,4 C 11,7 C 89 % 1018,2 hPa 0,0 l/m 9,4 km/h (2 Bft) W 279 0 min 0,000 mm 0,0 UV-I 96 W/m 9,2 C 8,9 C 17,7 km/h (3 Bft) 100,00 %
23.05.2019 07:14 10,9 C 14,4 C 11,7 C 89 % 1018,2 hPa 0,0 l/m 10,4 km/h (2 Bft) W-SW 251 0 min 0,000 mm 0,0 UV-I 104 W/m 9,2 C 8,4 C 17,7 km/h (3 Bft) 100,00 %
23.05.2019 07:16 10,9 C 14,4 C 12,2 C 89 % 1018,2 hPa 0,0 l/m 12,7 km/h (3 Bft) W 264 0 min 0,000 mm 0,0 UV-I 109 W/m 9,2 C 7,2 C 19,3 km/h (3 Bft) 100,00 %
23.05.2019 07:18 10,9 C 14,4 C 12,2 C 89 % 1018,2 hPa 0,0 l/m 12,0 km/h (2 Bft) W-NW 302 0 min 0,000 mm 0,0 UV-I 113 W/m 9,2 C 7,6 C 19,3 km/h (3 Bft) 100,00 %
23.05.2019 07:20 11,0 C 14,4 C 12,2 C 88 % 1018,2 hPa 0,0 l/m 11,1 km/h (2 Bft) NW 314 0 min 0,000 mm 0,0 UV-I 110 W/m 9,1 C 8,1 C 17,7 km/h (3 Bft) 100,00 %
23.05.2019 07:22 11,0 C 14,4 C 12,2 C 88 % 1018,2 hPa 0,0 l/m 8,9 km/h (2 Bft) W-NW 284 0 min 0,000 mm 0,0 UV-I 107 W/m 9,1 C 9,3 C 16,1 km/h (3 Bft) 100,00 %
23.05.2019 07:24 11,1 C 14,4 C 12,2 C 88 % 1018,2 hPa 0,0 l/m 5,7 km/h (1 Bft) W 268 0 min 0,000 mm 0,0 UV-I 110 W/m 9,2 C 11,1 C 11,3 km/h (2 Bft) 100,00 %
23.05.2019 07:26 11,1 C 14,4 C 12,2 C 88 % 1018,2 hPa 0,0 l/m 10,7 km/h (2 Bft) W-NW 287 0 min 0,000 mm 0,0 UV-I 113 W/m 9,2 C 8,4 C 20,9 km/h (4 Bft) 100,00 %
23.05.2019 07:28 11,1 C 14,4 C 12,2 C 87 % 1018,2 hPa 0,0 l/m 9,8 km/h (2 Bft) W-SW 237 0 min 0,000 mm 0,0 UV-I 120 W/m 9,0 C 8,9 C 17,7 km/h (3 Bft) 100,00 %
23.05.2019 07:30 11,1 C 14,4 C 12,2 C 87 % 1018,2 hPa 0,0 l/m 13,4 km/h (3 Bft) W 265 0 min 0,000 mm 0,0 UV-I 133 W/m 9,0 C 7,1 C 24,1 km/h (4 Bft) 100,00 %
23.05.2019 07:32 11,2 C 14,4 C 12,8 C 87 % 1018,2 hPa 0,0 l/m 9,9 km/h (2 Bft) W-SW 244 0 min 0,000 mm 0,0 UV-I 141 W/m 9,1 C 9,0 C 16,1 km/h (3 Bft) 100,00 %
23.05.2019 07:34 11,2 C 14,4 C 12,8 C 87 % 1018,2 hPa 0,0 l/m 7,6 km/h (2 Bft) W 278 0 min 0,000 mm 0,0 UV-I 149 W/m 9,1 C 10,4 C 12,9 km/h (3 Bft) 100,00 %
23.05.2019 07:36 11,2 C 14,4 C 12,8 C 87 % 1018,3 hPa 0,0 l/m 9,8 km/h (2 Bft) W 261 0 min 0,000 mm 0,0 UV-I 154 W/m 9,1 C 9,0 C 22,5 km/h (4 Bft) 97,22 %
23.05.2019 07:38 11,2 C 14,4 C 13,3 C 87 % 1018,3 hPa 0,0 l/m 8,1 km/h (2 Bft) W 277 0 min 0,000 mm 0,0 UV-I 158 W/m 9,1 C 10,0 C 12,9 km/h (3 Bft) 100,00 %
23.05.2019 07:40 11,2 C 14,4 C 13,3 C 86 % 1018,3 hPa 0,0 l/m 12,8 km/h (3 Bft) W-SW 243 0 min 0,000 mm 0,0 UV-I 151 W/m 8,9 C 7,5 C 24,1 km/h (4 Bft) 97,87 %
23.05.2019 07:42 11,2 C 14,4 C 13,3 C 86 % 1018,4 hPa 0,0 l/m 11,6 km/h (2 Bft) W-SW 251 0 min 0,000 mm 0,0 UV-I 141 W/m 8,9 C 8,1 C 20,9 km/h (4 Bft) 97,87 %
23.05.2019 07:44 11,2 C 14,4 C 12,8 C 86 % 1018,4 hPa 0,0 l/m 9,2 km/h (2 Bft) W-SW 248 0 min 0,000 mm 0,0 UV-I 135 W/m 8,9 C 9,4 C 16,1 km/h (3 Bft) 100,00 %
23.05.2019 07:46 11,3 C 14,4 C 13,3 C 86 % 1018,4 hPa 0,0 l/m 7,8 km/h (2 Bft) W-SW 252 0 min 0,000 mm 0,0 UV-I 135 W/m 9,0 C 10,3 C 14,5 km/h (3 Bft) 97,92 %
23.05.2019 07:48 11,3 C 14,4 C 12,8 C 86 % 1018,5 hPa 0,0 l/m 10,8 km/h (2 Bft) W 263 0 min 0,000 mm 0,0 UV-I 141 W/m 9,0 C 8,6 C 19,3 km/h (3 Bft) 97,87 %
23.05.2019 07:50 11,3 C 14,4 C 12,8 C 86 % 1018,5 hPa 0,0 l/m 8,9 km/h (2 Bft) W 263 0 min 0,000 mm 0,0 UV-I 140 W/m 9,0 C 9,7 C 14,5 km/h (3 Bft) 100,00 %
23.05.2019 07:52 11,2 C 14,4 C 12,8 C 86 % 1018,5 hPa 0,0 l/m 14,1 km/h (3 Bft) W-SW 252 0 min 0,000 mm 0,2 UV-I 143 W/m 8,9 C 7,0 C 22,5 km/h (4 Bft) 100,00 %
23.05.2019 07:54 11,2 C 14,4 C 12,8 C 86 % 1018,5 hPa 0,0 l/m 11,7 km/h (2 Bft) W 260 0 min 0,000 mm 0,5 UV-I 150 W/m 8,9 C 8,0 C 22,5 km/h (4 Bft) 97,87 %
23.05.2019 07:56 11,2 C 14,4 C 12,8 C 86 % 1018,5 hPa 0,0 l/m 12,7 km/h (3 Bft) W 277 0 min 0,000 mm 0,5 UV-I 150 W/m 8,9 C 7,6 C 20,9 km/h (4 Bft) 100,00 %
23.05.2019 07:58 11,2 C 14,4 C 13,3 C 86 % 1018,5 hPa 0,0 l/m 9,1 km/h (2 Bft) W-NW 290 0 min 0,000 mm 0,5 UV-I 149 W/m 8,9 C 9,4 C 16,1 km/h (3 Bft) 97,87 %
23.05.2019 08:00 11,3 C 14,4 C 13,3 C 86 % 1018,5 hPa 0,0 l/m 8,3 km/h (2 Bft) W 265 0 min 0,076 mm 0,5 UV-I 159 W/m 9,0 C 10,0 C 16,1 km/h (3 Bft) 100,00 %
23.05.2019 08:02 11,3 C 14,4 C 13,3 C 86 % 1018,5 hPa 0,0 l/m 5,7 km/h (1 Bft) W-SW 253 0 min 0,000 mm 0,5 UV-I 167 W/m 9,0 C 11,3 C 11,3 km/h (2 Bft) 95,74 %
23.05.2019 08:04 11,3 C 14,4 C 13,9 C 86 % 1018,6 hPa 0,0 l/m 8,5 km/h (2 Bft) W-NW 300 0 min 0,000 mm 0,5 UV-I 171 W/m 9,0 C 9,9 C 12,9 km/h (3 Bft) 96,23 %
23.05.2019 08:06 11,4 C 14,4 C 13,9 C 86 % 1018,6 hPa 0,0 l/m 6,0 km/h (2 Bft) W 269 0 min 0,000 mm 0,6 UV-I 167 W/m 9,1 C 11,4 C 12,9 km/h (3 Bft) 94,00 %
23.05.2019 08:08 11,4 C 14,4 C 13,9 C 86 % 1018,6 hPa 0,0 l/m 5,1 km/h (1 Bft) N-NW 329 0 min 0,000 mm 0,6 UV-I 181 W/m 9,1 C 11,4 C 9,7 km/h (2 Bft) 94,29 %
23.05.2019 08:10 11,4 C 14,4 C 13,9 C 86 % 1018,5 hPa 0,0 l/m 7,2 km/h (2 Bft) W 275 0 min 0,000 mm 0,6 UV-I 178 W/m 9,1 C 10,9 C 12,9 km/h (3 Bft) 96,00 %
23.05.2019 08:12 11,5 C 14,4 C 14,4 C 86 % 1018,6 hPa 0,0 l/m 7,5 km/h (2 Bft) W-SW 257 0 min 0,000 mm 0,6 UV-I 180 W/m 9,2 C 10,8 C 16,1 km/h (3 Bft) 96,00 %
23.05.2019 08:14 11,5 C 14,4 C 13,9 C 85 % 1018,6 hPa 0,0 l/m 5,7 km/h (1 Bft) SW 223 0 min 0,000 mm 0,6 UV-I 175 W/m 9,1 C 11,5 C 14,5 km/h (3 Bft) 93,62 %
23.05.2019 08:16 11,4 C 14,4 C 14,4 C 85 % 1018,7 hPa 0,0 l/m 6,2 km/h (2 Bft) W-SW 249 0 min 0,000 mm 0,6 UV-I 190 W/m 9,0 C 11,4 C 12,9 km/h (3 Bft) 95,83 %
23.05.2019 08:18 11,5 C 14,4 C 14,4 C 85 % 1018,6 hPa 0,0 l/m 5,9 km/h (2 Bft) W-SW 251 0 min 0,000 mm 0,7 UV-I 206 W/m 9,1 C 11,5 C 16,1 km/h (3 Bft) 89,36 %
23.05.2019 08:20 11,6 C 14,4 C 15,0 C 85 % 1018,6 hPa 0,0 l/m 8,4 km/h (2 Bft) NW 322 0 min 0,000 mm 0,7 UV-I 227 W/m 9,2 C 10,3 C 16,1 km/h (3 Bft) 93,62 %
23.05.2019 08:22 11,6 C 14,4 C 15,0 C 85 % 1018,6 hPa 0,0 l/m 4,8 km/h (1 Bft) W 267 0 min 0,000 mm 0,7 UV-I 238 W/m 9,2 C 11,6 C 12,9 km/h (3 Bft) 95,74 %
23.05.2019 08:24 11,6 C 14,4 C 15,0 C 85 % 1018,6 hPa 0,0 l/m 10,1 km/h (2 Bft) W 277 0 min 0,000 mm 0,8 UV-I 246 W/m 9,2 C 9,3 C 19,3 km/h (3 Bft) 95,74 %
23.05.2019 08:26 11,6 C 14,4 C 15,0 C 84 % 1018,6 hPa 0,0 l/m 13,0 km/h (3 Bft) N-NW 330 0 min 0,000 mm 0,8 UV-I 251 W/m 9,0 C 7,9 C 20,9 km/h (4 Bft) 93,62 %
23.05.2019 08:28 11,6 C 14,4 C 15,0 C 85 % 1018,7 hPa 0,0 l/m 10,7 km/h (2 Bft) W-NW 292 0 min 0,000 mm 0,8 UV-I 253 W/m 9,2 C 9,0 C 17,7 km/h (3 Bft) 97,87 %
23.05.2019 08:30 11,6 C 14,4 C 15,0 C 84 % 1018,7 hPa 0,0 l/m 10,0 km/h (2 Bft) W 270 0 min 0,000 mm 0,8 UV-I 254 W/m 9,0 C 9,4 C 16,1 km/h (3 Bft) 97,87 %
23.05.2019 08:32 11,6 C 14,4 C 15,0 C 84 % 1018,7 hPa 0,0 l/m 5,3 km/h (1 Bft) W 264 0 min 0,000 mm 0,8 UV-I 256 W/m 9,0 C 11,6 C 12,9 km/h (3 Bft) 95,74 %
23.05.2019 08:34 11,7 C 14,4 C 15,6 C 84 % 1018,7 hPa 0,0 l/m 9,7 km/h (2 Bft) W 264 0 min 0,000 mm 0,8 UV-I 253 W/m 9,1 C 9,6 C 12,9 km/h (3 Bft) 97,87 %
23.05.2019 08:36 11,8 C 14,4 C 15,6 C 85 % 1018,7 hPa 0,0 l/m 5,8 km/h (2 Bft) NW 309 0 min 0,000 mm 0,8 UV-I 257 W/m 9,4 C 11,8 C 11,3 km/h (2 Bft) 100,00 %
23.05.2019 08:38 11,8 C 14,4 C 15,6 C 85 % 1018,7 hPa 0,0 l/m 6,3 km/h (2 Bft) W-SW 248 0 min 0,000 mm 0,9 UV-I 261 W/m 9,4 C 11,8 C 12,9 km/h (3 Bft) 100,00 %
23.05.2019 08:40 11,9 C 14,4 C 15,6 C 85 % 1018,7 hPa 0,0 l/m 11,0 km/h (2 Bft) SW 234 0 min 0,000 mm 0,9 UV-I 270 W/m 9,5 C 9,2 C 19,3 km/h (3 Bft) 94,74 %
23.05.2019 08:42 11,9 C 14,4 C 16,1 C 84 % 1018,7 hPa 0,0 l/m 11,1 km/h (2 Bft) W 277 0 min 0,000 mm 0,9 UV-I 277 W/m 9,3 C 9,1 C 16,1 km/h (3 Bft) 100,00 %
23.05.2019 08:44 11,9 C 14,4 C 16,1 C 83 % 1018,7 hPa 0,0 l/m 11,9 km/h (2 Bft) W 267 0 min 0,000 mm 0,9 UV-I 285 W/m 9,1 C 8,7 C 19,3 km/h (3 Bft) 98,00 %
23.05.2019 08:46 11,9 C 14,4 C 16,1 C 84 % 1018,7 hPa 0,0 l/m 9,7 km/h (2 Bft) W-NW 284 0 min 0,000 mm 1,0 UV-I 286 W/m 9,3 C 9,9 C 16,1 km/h (3 Bft) 100,00 %
23.05.2019 08:48 11,9 C 14,4 C 16,1 C 84 % 1018,7 hPa 0,0 l/m 8,0 km/h (2 Bft) W 269 0 min 0,000 mm 0,9 UV-I 281 W/m 9,3 C 10,8 C 14,5 km/h (3 Bft) 100,00 %
23.05.2019 08:50 11,9 C 14,4 C 16,1 C 84 % 1018,7 hPa 0,0 l/m 9,0 km/h (2 Bft) W 274 0 min 0,000 mm 0,9 UV-I 275 W/m 9,3 C 10,2 C 14,5 km/h (3 Bft) 100,00 %
23.05.2019 08:52 12,0 C 14,4 C 16,1 C 84 % 1018,7 hPa 0,0 l/m 6,5 km/h (2 Bft) NW 315 0 min 0,000 mm 0,9 UV-I 268 W/m 9,4 C 12,0 C 14,5 km/h (3 Bft) 100,00 %
23.05.2019 08:54 12,1 C 14,4 C 16,1 C 84 % 1018,7 hPa 0,0 l/m 5,4 km/h (1 Bft) NW 312 0 min 0,000 mm 0,9 UV-I 260 W/m 9,5 C 12,1 C 12,9 km/h (3 Bft) 97,87 %
23.05.2019 08:56 12,1 C 14,4 C 16,1 C 83 % 1018,8 hPa 0,0 l/m 6,1 km/h (2 Bft) W 274 0 min 0,000 mm 0,9 UV-I 253 W/m 9,3 C 12,1 C 9,7 km/h (2 Bft) 97,44 %
23.05.2019 08:58 12,1 C 14,4 C 16,1 C 83 % 1018,8 hPa 0,0 l/m 6,4 km/h (2 Bft) W-SW 244 0 min 0,000 mm 0,9 UV-I 244 W/m 9,3 C 12,1 C 9,7 km/h (2 Bft) 98,00 %
23.05.2019 09:00 12,1 C 14,4 C 16,1 C 84 % 1018,8 hPa 0,0 l/m 7,5 km/h (2 Bft) W-SW 252 0 min 0,127 mm 0,8 UV-I 229 W/m 9,5 C 11,4 C 12,9 km/h (3 Bft) 97,87 %
23.05.2019 09:02 12,2 C 14,4 C 16,1 C 84 % 1018,8 hPa 0,0 l/m 7,0 km/h (2 Bft) W-SW 244 0 min 0,000 mm 0,9 UV-I 231 W/m 9,6 C 11,8 C 17,7 km/h (3 Bft) 98,11 %
23.05.2019 09:04 12,2 C 14,4 C 16,1 C 83 % 1018,8 hPa 0,0 l/m 8,5 km/h (2 Bft) W-SW 257 0 min 0,000 mm 0,7 UV-I 225 W/m 9,4 C 10,9 C 14,5 km/h (3 Bft) 97,87 %
23.05.2019 09:06 12,3 C 14,4 C 16,1 C 83 % 1018,8 hPa 0,0 l/m 7,9 km/h (2 Bft) W 260 0 min 0,000 mm 0,5 UV-I 222 W/m 9,5 C 11,3 C 12,9 km/h (3 Bft) 97,14 %
23.05.2019 09:08 12,3 C 14,4 C 16,1 C 83 % 1018,8 hPa 0,0 l/m 9,7 km/h (2 Bft) W 269 0 min 0,000 mm 0,9 UV-I 228 W/m 9,5 C 10,3 C 16,1 km/h (3 Bft) 97,87 %
23.05.2019 09:10 12,2 C 14,4 C 15,6 C 82 % 1018,8 hPa 0,0 l/m 11,0 km/h (2 Bft) W 276 0 min 0,000 mm 0,9 UV-I 226 W/m 9,2 C 9,5 C 17,7 km/h (3 Bft) 96,23 %
23.05.2019 09:12 12,2 C 14,4 C 15,6 C 82 % 1018,8 hPa 0,0 l/m 4,5 km/h (1 Bft) W-NW 285 0 min 0,000 mm 0,9 UV-I 223 W/m 9,2 C 12,2 C 9,7 km/h (2 Bft) 94,00 %
23.05.2019 09:14 12,2 C 14,4 C 15,6 C 82 % 1018,8 hPa 0,0 l/m 9,5 km/h (2 Bft) W 261 0 min 0,000 mm 0,9 UV-I 221 W/m 9,2 C 10,3 C 19,3 km/h (3 Bft) 97,87 %
23.05.2019 09:16 12,2 C 14,4 C 15,6 C 82 % 1018,7 hPa 0,0 l/m 7,2 km/h (2 Bft) W-SW 252 0 min 0,000 mm 0,9 UV-I 226 W/m 9,2 C 11,7 C 12,9 km/h (3 Bft) 94,74 %
23.05.2019 09:18 12,2 C 14,4 C 15,6 C 82 % 1018,7 hPa 0,0 l/m 7,7 km/h (2 Bft) W 260 0 min 0,000 mm 0,9 UV-I 230 W/m 9,2 C 11,3 C 14,5 km/h (3 Bft) 95,74 %
23.05.2019 09:20 12,2 C 14,4 C 15,6 C 82 % 1018,8 hPa 0,0 l/m 10,8 km/h (2 Bft) SW 223 0 min 0,000 mm 0,9 UV-I 235 W/m 9,2 C 9,6 C 16,1 km/h (3 Bft) 92,00 %
23.05.2019 09:22 12,2 C 14,4 C 15,6 C 82 % 1018,7 hPa 0,0 l/m 9,9 km/h (2 Bft) W-SW 252 0 min 0,000 mm 1,0 UV-I 243 W/m 9,2 C 10,1 C 17,7 km/h (3 Bft) 97,87 %
23.05.2019 09:24 12,2 C 14,4 C 15,6 C 82 % 1018,8 hPa 0,0 l/m 8,6 km/h (2 Bft) W-NW 294 0 min 0,000 mm 1,0 UV-I 249 W/m 9,2 C 10,8 C 16,1 km/h (3 Bft) 96,23 %
23.05.2019 09:26 12,2 C 14,4 C 15,6 C 81 % 1018,8 hPa 0,0 l/m 10,0 km/h (2 Bft) W-NW 286 0 min 0,000 mm 1,0 UV-I 252 W/m 9,0 C 10,0 C 16,1 km/h (3 Bft) 93,62 %
23.05.2019 09:28 12,2 C 14,4 C 15,6 C 81 % 1018,7 hPa 0,0 l/m 9,7 km/h (2 Bft) W 262 0 min 0,000 mm 1,0 UV-I 253 W/m 9,0 C 10,2 C 17,7 km/h (3 Bft) 95,74 %
23.05.2019 09:30 12,2 C 14,4 C 15,6 C 81 % 1018,7 hPa 0,0 l/m 7,1 km/h (2 Bft) W-NW 296 0 min 0,000 mm 1,0 UV-I 253 W/m 9,0 C 11,7 C 16,1 km/h (3 Bft) 91,49 %
23.05.2019 09:32 12,3 C 14,4 C 15,6 C 81 % 1018,7 hPa 0,0 l/m 7,4 km/h (2 Bft) W-SW 238 0 min 0,000 mm 1,0 UV-I 254 W/m 9,1 C 11,6 C 14,5 km/h (3 Bft) 97,22 %
23.05.2019 09:34 12,3 C 14,4 C 15,6 C 81 % 1018,7 hPa 0,0 l/m 8,0 km/h (2 Bft) W 271 0 min 0,000 mm 1,1 UV-I 257 W/m 9,1 C 11,3 C 16,1 km/h (3 Bft) 91,49 %
23.05.2019 09:36 12,3 C 14,4 C 15,6 C 81 % 1018,7 hPa 0,0 l/m 9,9 km/h (2 Bft) W 266 0 min 0,000 mm 1,1 UV-I 260 W/m 9,1 C 10,2 C 14,5 km/h (3 Bft) 93,62 %
23.05.2019 09:38 12,3 C 14,4 C 15,6 C 80 % 1018,7 hPa 0,0 l/m 9,2 km/h (2 Bft) W 266 0 min 0,000 mm 1,1 UV-I 266 W/m 8,9 C 10,6 C 12,9 km/h (3 Bft) 93,62 %
23.05.2019 09:40 12,3 C 14,4 C 16,1 C 81 % 1018,8 hPa 0,0 l/m 6,6 km/h (2 Bft) W-SW 247 0 min 0,000 mm 1,2 UV-I 272 W/m 9,1 C 12,2 C 11,3 km/h (2 Bft) 95,74 %
23.05.2019 09:42 12,4 C 14,4 C 16,1 C 80 % 1018,7 hPa 0,0 l/m 13,5 km/h (3 Bft) W 275 0 min 0,000 mm 1,2 UV-I 283 W/m 9,0 C 8,6 C 19,3 km/h (3 Bft) 94,00 %
23.05.2019 09:44 12,4 C 14,4 C 16,1 C 78 % 1018,8 hPa 0,0 l/m 14,0 km/h (3 Bft) W-SW 253 0 min 0,000 mm 1,2 UV-I 293 W/m 8,7 C 8,4 C 19,3 km/h (3 Bft) 91,49 %
23.05.2019 09:46 12,4 C 14,4 C 16,1 C 78 % 1018,8 hPa 0,0 l/m 15,2 km/h (3 Bft) W-NW 282 0 min 0,000 mm 1,3 UV-I 298 W/m 8,7 C 8,0 C 24,1 km/h (4 Bft) 93,62 %
23.05.2019 09:48 12,4 C 14,4 C 16,1 C 77 % 1018,7 hPa 0,0 l/m 11,4 km/h (2 Bft) NW 319 0 min 0,000 mm 1,3 UV-I 299 W/m 8,5 C 9,6 C 17,7 km/h (3 Bft) 95,74 %
23.05.2019 09:50 12,4 C 14,4 C 16,1 C 77 % 1018,8 hPa 0,0 l/m 10,8 km/h (2 Bft) W 279 0 min 0,000 mm 1,3 UV-I 297 W/m 8,5 C 9,8 C 20,9 km/h (4 Bft) 96,00 %
23.05.2019 09:52 12,5 C 14,4 C 16,1 C 77 % 1018,7 hPa 0,0 l/m 9,6 km/h (2 Bft) W 269 0 min 0,000 mm 1,3 UV-I 298 W/m 8,6 C 10,6 C 19,3 km/h (3 Bft) 97,87 %
23.05.2019 09:54 12,5 C 14,4 C 16,7 C 78 % 1018,7 hPa 0,0 l/m 9,3 km/h (2 Bft) W-SW 240 0 min 0,000 mm 1,3 UV-I 302 W/m 8,8 C 10,7 C 19,3 km/h (3 Bft) 93,62 %
23.05.2019 09:56 12,6 C 14,4 C 16,7 C 78 % 1018,7 hPa 0,0 l/m 7,2 km/h (2 Bft) W-SW 252 0 min 0,000 mm 1,3 UV-I 307 W/m 8,9 C 12,1 C 12,9 km/h (3 Bft) 98,00 %
23.05.2019 09:58 12,7 C 14,4 C 17,2 C 78 % 1018,8 hPa 0,0 l/m 7,3 km/h (2 Bft) NW 321 0 min 0,000 mm 1,4 UV-I 313 W/m 9,0 C 12,1 C 11,3 km/h (2 Bft) 97,14 %
23.05.2019 10:00 12,7 C 14,4 C 17,2 C 77 % 1018,7 hPa 0,0 l/m 10,9 km/h (2 Bft) W-SW 251 0 min 0,152 mm 1,4 UV-I 320 W/m 8,8 C 10,1 C 22,5 km/h (4 Bft) 93,62 %
23.05.2019 10:02 12,7 C 14,4 C 17,2 C 76 % 1018,8 hPa 0,0 l/m 12,3 km/h (3 Bft) W 263 0 min 0,000 mm 1,5 UV-I 326 W/m 8,6 C 9,5 C 19,3 km/h (3 Bft) 91,67 %
23.05.2019 10:04 12,7 C 14,4 C 17,2 C 77 % 1018,8 hPa 0,0 l/m 8,6 km/h (2 Bft) W 273 0 min 0,000 mm 1,5 UV-I 335 W/m 8,8 C 11,3 C 12,9 km/h (3 Bft) 93,62 %
23.05.2019 10:06 12,8 C 14,4 C 17,8 C 77 % 1018,8 hPa 0,0 l/m 9,8 km/h (2 Bft) W 272 0 min 0,000 mm 1,6 UV-I 349 W/m 8,9 C 10,8 C 14,5 km/h (3 Bft) 91,49 %
23.05.2019 10:08 12,8 C 14,4 C 17,8 C 77 % 1018,8 hPa 0,0 l/m 11,0 km/h (2 Bft) W-NW 286 0 min 0,000 mm 1,6 UV-I 363 W/m 8,9 C 10,2 C 24,1 km/h (4 Bft) 96,00 %
23.05.2019 10:10 12,9 C 14,4 C 17,8 C 76 % 1018,7 hPa 0,0 l/m 9,2 km/h (2 Bft) W-SW 244 0 min 0,000 mm 1,7 UV-I 375 W/m 8,8 C 11,2 C 17,7 km/h (3 Bft) 97,87 %
23.05.2019 10:12 12,9 C 14,4 C 17,8 C 75 % 1018,8 hPa 0,0 l/m 14,5 km/h (3 Bft) W 275 0 min 0,000 mm 1,8 UV-I 384 W/m 8,6 C 8,8 C 24,1 km/h (4 Bft) 95,74 %
23.05.2019 10:14 12,8 C 14,4 C 17,8 C 75 % 1018,8 hPa 0,0 l/m 11,5 km/h (2 Bft) W-NW 286 2 min 0,000 mm 1,9 UV-I 399 W/m 8,5 C 10,0 C 20,9 km/h (4 Bft) 95,74 %
23.05.2019 10:16 12,9 C 14,4 C 18,3 C 76 % 1018,8 hPa 0,0 l/m 9,2 km/h (2 Bft) NW 313 2 min 0,000 mm 1,9 UV-I 408 W/m 8,8 C 11,2 C 12,9 km/h (3 Bft) 95,74 %
23.05.2019 10:18 13,0 C 14,4 C 18,9 C 78 % 1018,8 hPa 0,0 l/m 5,3 km/h (1 Bft) NW 319 2 min 0,000 mm 2,0 UV-I 414 W/m 9,3 C 13,0 C 12,9 km/h (3 Bft) 95,74 %
23.05.2019 10:20 13,2 C 14,4 C 19,4 C 77 % 1018,8 hPa 0,0 l/m 6,4 km/h (2 Bft) W-SW 249 2 min 0,000 mm 2,1 UV-I 432 W/m 9,3 C 13,2 C 14,5 km/h (3 Bft) 96,00 %
23.05.2019 10:22 13,3 C 14,4 C 19,4 C 77 % 1018,8 hPa 0,0 l/m 6,2 km/h (2 Bft) W-SW 244 2 min 0,000 mm 2,1 UV-I 443 W/m 9,4 C 13,3 C 11,3 km/h (2 Bft) 97,87 %
23.05.2019 10:24 13,3 C 14,4 C 20,0 C 76 % 1018,9 hPa 0,0 l/m 6,1 km/h (2 Bft) W-SW 238 2 min 0,000 mm 2,2 UV-I 457 W/m 9,2 C 13,3 C 11,3 km/h (2 Bft) 97,37 %
23.05.2019 10:26 13,3 C 14,4 C 20,0 C 75 % 1018,9 hPa 0,0 l/m 9,6 km/h (2 Bft) W-SW 246 2 min 0,000 mm 2,3 UV-I 478 W/m 9,0 C 11,4 C 16,1 km/h (3 Bft) 95,74 %
23.05.2019 10:28 13,3 C 14,4 C 20,6 C 75 % 1018,8 hPa 0,0 l/m 10,0 km/h (2 Bft) W-SW 254 2 min 0,000 mm 2,3 UV-I 466 W/m 9,0 C 11,2 C 22,5 km/h (4 Bft) 97,87 %
23.05.2019 10:30 13,3 C 14,4 C 20,0 C 75 % 1018,8 hPa 0,0 l/m 14,3 km/h (3 Bft) W 280 2 min 0,000 mm 2,3 UV-I 471 W/m 9,0 C 9,4 C 20,9 km/h (4 Bft) 97,87 %
23.05.2019 10:32 13,4 C 14,4 C 20,6 C 75 % 1018,8 hPa 0,0 l/m 8,7 km/h (2 Bft) W 277 2 min 0,000 mm 2,4 UV-I 500 W/m 9,1 C 12,0 C 14,5 km/h (3 Bft) 97,92 %
23.05.2019 10:34 13,4 C 14,4 C 20,6 C 75 % 1018,8 hPa 0,0 l/m 13,6 km/h (3 Bft) W 269 2 min 0,000 mm 2,5 UV-I 528 W/m 9,1 C 9,8 C 20,9 km/h (4 Bft) 100,00 %
23.05.2019 10:36 13,5 C 14,4 C 20,6 C 74 % 1018,8 hPa 0,0 l/m 15,7 km/h (3 Bft) W 275 2 min 0,000 mm 2,6 UV-I 553 W/m 9,0 C 9,1 C 24,1 km/h (4 Bft) 100,00 %
23.05.2019 10:38 13,6 C 14,4 C 22,8 C 74 % 1018,7 hPa 0,0 l/m 19,0 km/h (3 Bft) W 274 2 min 0,000 mm 3,4 UV-I 605 W/m 9,1 C 8,2 C 27,4 km/h (4 Bft) 97,87 %
23.05.2019 10:40 13,8 C 14,4 C 25,0 C 73 % 1018,7 hPa 0,0 l/m 17,4 km/h (3 Bft) W-SW 243 2 min 0,000 mm 3,8 UV-I 988 W/m 9,0 C 8,9 C 24,1 km/h (4 Bft) 97,87 %
23.05.2019 10:42 14,1 C 14,4 C 25,0 C 73 % 1018,7 hPa 0,0 l/m 15,7 km/h (3 Bft) W-SW 249 2 min 0,000 mm 3,4 UV-I 708 W/m 9,3 C 9,9 C 24,1 km/h (4 Bft) 97,87 %
23.05.2019 10:44 14,2 C 14,4 C 26,1 C 73 % 1018,7 hPa 0,0 l/m 11,3 km/h (2 Bft) W 281 2 min 0,000 mm 3,6 UV-I 874 W/m 9,4 C 11,6 C 17,7 km/h (3 Bft) 97,87 %
23.05.2019 10:46 14,3 C 14,4 C 27,2 C 71 % 1018,7 hPa 0,0 l/m 16,6 km/h (3 Bft) W-SW 254 2 min 0,000 mm 3,8 UV-I 926 W/m 9,1 C 9,8 C 24,1 km/h (4 Bft) 100,00 %
23.05.2019 10:48 14,4 C 14,4 C 27,8 C 70 % 1018,7 hPa 0,0 l/m 13,5 km/h (3 Bft) W 264 2 min 0,000 mm 3,7 UV-I 854 W/m 9,0 C 11,0 C 22,5 km/h (4 Bft) 100,00 %
23.05.2019 10:50 14,6 C 15,0 C 27,2 C 71 % 1018,7 hPa 0,0 l/m 12,6 km/h (3 Bft) W 267 2 min 0,000 mm 3,5 UV-I 861 W/m 9,4 C 11,6 C 20,9 km/h (4 Bft) 97,37 %
23.05.2019 10:52 14,7 C 14,4 C 27,2 C 72 % 1018,7 hPa 0,0 l/m 11,3 km/h (2 Bft) W 273 2 min 0,000 mm 3,2 UV-I 814 W/m 9,7 C 12,2 C 16,1 km/h (3 Bft) 97,87 %
23.05.2019 10:54 14,8 C 15,0 C 26,1 C 70 % 1018,7 hPa 0,0 l/m 16,0 km/h (3 Bft) W-NW 284 2 min 0,000 mm 3,7 UV-I 805 W/m 9,4 C 10,6 C 20,9 km/h (4 Bft) 98,00 %
23.05.2019 10:56 14,8 C 15,0 C 27,8 C 69 % 1018,7 hPa 0,0 l/m 11,3 km/h (2 Bft) W 269 2 min 0,000 mm 4,2 UV-I 970 W/m 9,2 C 12,3 C 20,9 km/h (4 Bft) 97,87 %
23.05.2019 10:58 14,9 C 15,0 C 28,3 C 69 % 1018,7 hPa 0,0 l/m 14,5 km/h (3 Bft) W-SW 238 2 min 0,000 mm 3,9 UV-I 1060 W/m 9,3 C 11,2 C 22,5 km/h (4 Bft) 97,87 %
23.05.2019 11:00 14,9 C 15,0 C 27,8 C 67 % 1018,7 hPa 0,0 l/m 12,7 km/h (3 Bft) W 275 2 min 0,356 mm 3,8 UV-I 1047 W/m 8,8 C 11,9 C 19,3 km/h (3 Bft) 98,00 %
23.05.2019 11:02 14,8 C 15,0 C 26,1 C 67 % 1018,6 hPa 0,0 l/m 12,4 km/h (3 Bft) W 266 2 min 0,000 mm 3,0 UV-I 816 W/m 8,7 C 11,9 C 20,9 km/h (4 Bft) 95,83 %
23.05.2019 11:04 14,8 C 14,4 C 25,0 C 69 % 1018,5 hPa 0,0 l/m 13,1 km/h (3 Bft) W 261 2 min 0,000 mm 2,9 UV-I 486 W/m 9,2 C 11,6 C 24,1 km/h (4 Bft) 98,00 %
23.05.2019 11:06 14,7 C 14,4 C 23,9 C 68 % 1018,5 hPa 0,0 l/m 12,3 km/h (3 Bft) W-SW 251 2 min 0,000 mm 2,9 UV-I 525 W/m 8,9 C 11,8 C 22,5 km/h (4 Bft) 100,00 %
23.05.2019 11:08 14,6 C 15,0 C 22,8 C 68 % 1018,5 hPa 0,0 l/m 14,4 km/h (3 Bft) W-SW 242 2 min 0,000 mm 2,9 UV-I 510 W/m 8,8 C 10,9 C 24,1 km/h (4 Bft) 96,00 %
23.05.2019 11:10 14,4 C 14,4 C 21,7 C 68 % 1018,4 hPa 0,0 l/m 10,1 km/h (2 Bft) SW 225 2 min 0,000 mm 2,8 UV-I 467 W/m 8,6 C 12,4 C 20,9 km/h (4 Bft) 97,87 %
23.05.2019 11:12 14,4 C 15,0 C 22,2 C 69 % 1018,5 hPa 0,0 l/m 13,2 km/h (3 Bft) W 259 2 min 0,000 mm 3,1 UV-I 541 W/m 8,8 C 11,1 C 24,1 km/h (4 Bft) 98,11 %
23.05.2019 11:14 14,5 C 15,0 C 25,0 C 69 % 1018,5 hPa 0,0 l/m 16,9 km/h (3 Bft) W-SW 251 2 min 0,000 mm 4,7 UV-I 564 W/m 8,9 C 10,0 C 29,0 km/h (5 Bft) 100,00 %
23.05.2019 11:16 14,7 C 15,0 C 26,1 C 68 % 1018,5 hPa 0,0 l/m 15,3 km/h (3 Bft) W 259 2 min 0,000 mm 4,2 UV-I 564 W/m 8,9 C 10,7 C 24,1 km/h (4 Bft) 100,00 %
23.05.2019 11:18 14,8 C 15,0 C 26,7 C 68 % 1018,5 hPa 0,0 l/m 18,4 km/h (3 Bft) NW 306 2 min 0,000 mm 4,1 UV-I 618 W/m 9,0 C 9,9 C 25,7 km/h (4 Bft) 100,00 %
23.05.2019 11:20 15,1 C 15,0 C 28,3 C 67 % 1018,5 hPa 0,0 l/m 15,4 km/h (3 Bft) W 261 2 min 0,000 mm 4,7 UV-I 1079 W/m 9,0 C 11,2 C 27,4 km/h (4 Bft) 100,00 %
23.05.2019 11:22 15,2 C 15,0 C 29,4 C 67 % 1018,5 hPa 0,0 l/m 13,2 km/h (3 Bft) N-NW 338 2 min 0,000 mm 4,8 UV-I 828 W/m 9,1 C 12,1 C 24,1 km/h (4 Bft) 97,87 %
23.05.2019 11:24 15,4 C 15,0 C 30,6 C 68 % 1018,5 hPa 0,0 l/m 11,5 km/h (2 Bft) W-SW 250 2 min 0,000 mm 4,6 UV-I 1135 W/m 9,5 C 12,9 C 20,9 km/h (4 Bft) 97,87 %
23.05.2019 11:26 15,7 C 15,0 C 30,6 C 66 % 1018,5 hPa 0,0 l/m 6,8 km/h (2 Bft) W 261 2 min 0,000 mm 4,5 UV-I 817 W/m 9,4 C 15,5 C 16,1 km/h (3 Bft) 100,00 %
23.05.2019 11:28 15,8 C 15,0 C 31,7 C 67 % 1018,5 hPa 0,0 l/m 7,2 km/h (2 Bft) SW 236 2 min 0,000 mm 4,8 UV-I 1088 W/m 9,7 C 15,4 C 14,5 km/h (3 Bft) 100,00 %
23.05.2019 11:30 16,0 C 15,0 C 32,2 C 67 % 1018,5 hPa 0,0 l/m 13,1 km/h (3 Bft) W 277 2 min 0,000 mm 5,0 UV-I 837 W/m 9,9 C 13,0 C 25,7 km/h (4 Bft) 97,87 %
23.05.2019 11:32 16,0 C 15,0 C 31,7 C 64 % 1018,5 hPa 0,0 l/m 14,5 km/h (3 Bft) W-NW 282 2 min 0,000 mm 5,3 UV-I 839 W/m 9,2 C 12,6 C 24,1 km/h (4 Bft) 100,00 %
23.05.2019 11:34 16,1 C 15,0 C 31,1 C 64 % 1018,5 hPa 0,0 l/m 11,7 km/h (2 Bft) N-NW 333 2 min 0,000 mm 4,8 UV-I 1148 W/m 9,3 C 13,7 C 22,5 km/h (4 Bft) 100,00 %
23.05.2019 11:36 15,9 C 15,0 C 29,4 C 63 % 1018,5 hPa 0,0 l/m 12,6 km/h (3 Bft) SW 234 2 min 0,000 mm 4,1 UV-I 823 W/m 8,9 C 13,1 C 24,1 km/h (4 Bft) 97,87 %
23.05.2019 11:38 15,8 C 15,0 C 27,8 C 64 % 1018,5 hPa 0,0 l/m 9,2 km/h (2 Bft) W 269 2 min 0,000 mm 3,7 UV-I 798 W/m 9,0 C 14,4 C 17,7 km/h (3 Bft) 95,74 %
23.05.2019 11:40 15,7 C 15,0 C 27,2 C 65 % 1018,4 hPa 0,0 l/m 7,8 km/h (2 Bft) S-SW 213 2 min 0,000 mm 3,3 UV-I 615 W/m 9,1 C 14,9 C 14,5 km/h (3 Bft) 93,62 %
23.05.2019 11:42 15,7 C 15,0 C 25,6 C 66 % 1018,4 hPa 0,0 l/m 13,2 km/h (3 Bft) W-SW 248 2 min 0,000 mm 3,2 UV-I 570 W/m 9,4 C 12,6 C 29,0 km/h (5 Bft) 97,87 %
23.05.2019 11:44 15,5 C 15,0 C 24,4 C 64 % 1018,5 hPa 0,0 l/m 14,7 km/h (3 Bft) W-SW 257 2 min 0,000 mm 3,1 UV-I 571 W/m 8,7 C 11,9 C 20,9 km/h (4 Bft) 97,37 %
23.05.2019 11:46 15,3 C 15,0 C 23,3 C 64 % 1018,5 hPa 0,0 l/m 14,7 km/h (3 Bft) W-NW 283 2 min 0,000 mm 3,1 UV-I 567 W/m 8,5 C 11,7 C 24,1 km/h (4 Bft) 100,00 %
23.05.2019 11:48 15,1 C 15,0 C 22,2 C 64 % 1018,5 hPa 0,0 l/m 16,4 km/h (3 Bft) W 281 2 min 0,000 mm 3,0 UV-I 534 W/m 8,3 C 10,9 C 25,7 km/h (4 Bft) 98,00 %
23.05.2019 11:50 15,0 C 15,0 C 22,2 C 66 % 1018,4 hPa 0,0 l/m 12,4 km/h (3 Bft) W-SW 252 2 min 0,000 mm 3,0 UV-I 533 W/m 8,7 C 12,1 C 17,7 km/h (3 Bft) 97,87 %
23.05.2019 11:52 14,9 C 15,0 C 22,2 C 65 % 1018,4 hPa 0,0 l/m 10,7 km/h (2 Bft) W-SW 251 2 min 0,000 mm 2,9 UV-I 517 W/m 8,4 C 12,7 C 19,3 km/h (3 Bft) 95,74 %
23.05.2019 11:54 14,9 C 15,0 C 22,2 C 66 % 1018,4 hPa 0,0 l/m 15,1 km/h (3 Bft) SW 236 2 min 0,000 mm 2,8 UV-I 487 W/m 8,6 C 11,0 C 22,5 km/h (4 Bft) 95,74 %
23.05.2019 11:56 14,9 C 15,0 C 21,1 C 64 % 1018,4 hPa 0,0 l/m 15,8 km/h (3 Bft) W 272 2 min 0,000 mm 2,8 UV-I 473 W/m 8,2 C 10,8 C 22,5 km/h (4 Bft) 97,87 %
23.05.2019 11:58 14,8 C 15,0 C 21,1 C 65 % 1018,4 hPa 0,0 l/m 16,3 km/h (3 Bft) W 277 0 min 0,000 mm 2,7 UV-I 466 W/m 8,3 C 10,5 C 25,7 km/h (4 Bft) 93,62 %
23.05.2019 12:00 14,8 C 15,0 C 20,6 C 65 % 1018,4 hPa 0,0 l/m 14,3 km/h (3 Bft) W 261 0 min 0,000 mm 2,7 UV-I 449 W/m 8,3 C 11,2 C 20,9 km/h (4 Bft) 94,00 %
23.05.2019 12:02 14,7 C 15,0 C 20,6 C 66 % 1018,5 hPa 0,0 l/m 11,5 km/h (2 Bft) W-SW 246 0 min 0,432 mm 2,7 UV-I 437 W/m 8,4 C 12,1 C 22,5 km/h (4 Bft) 97,73 %
23.05.2019 12:04 14,7 C 15,0 C 20,6 C 67 % 1018,4 hPa 0,0 l/m 7,9 km/h (2 Bft) W-SW 250 0 min 0,000 mm 2,7 UV-I 444 W/m 8,6 C 13,8 C 16,1 km/h (3 Bft) 97,87 %
23.05.2019 12:06 14,8 C 15,0 C 21,1 C 67 % 1018,4 hPa 0,0 l/m 11,3 km/h (2 Bft) W-NW 285 0 min 0,000 mm 2,9 UV-I 459 W/m 8,7 C 12,3 C 19,3 km/h (3 Bft) 100,00 %
23.05.2019 12:09 14,8 C 15,0 C 22,2 C 66 % 1018,4 hPa 0,0 l/m 11,2 km/h (2 Bft) W-SW 254 3 min 0,000 mm 3,3 UV-I 484 W/m 8,5 C 12,4 C 24,1 km/h (4 Bft) 97,37 %
23.05.2019 12:10 14,8 C 15,0 C 22,2 C 66 % 1018,4 hPa 0,0 l/m 11,6 km/h (2 Bft) W 261 1 min 0,000 mm 3,0 UV-I 491 W/m 8,5 C 12,2 C 14,5 km/h (3 Bft) 100,00 %
23.05.2019 12:12 14,8 C 15,0 C 22,8 C 67 % 1018,4 hPa 0,0 l/m 7,5 km/h (2 Bft) W-SW 237 2 min 0,000 mm 3,1 UV-I 516 W/m 8,7 C 14,2 C 12,9 km/h (3 Bft) 98,00 %
23.05.2019 12:14 14,8 C 15,0 C 22,8 C 66 % 1018,4 hPa 0,0 l/m 7,1 km/h (2 Bft) W 272 2 min 0,000 mm 3,2 UV-I 523 W/m 8,5 C 14,4 C 12,9 km/h (3 Bft) 97,87 %
23.05.2019 12:16 15,0 C 15,0 C 23,3 C 66 % 1018,4 hPa 0,0 l/m 11,6 km/h (2 Bft) SW 230 2 min 0,000 mm 3,4 UV-I 548 W/m 8,7 C 12,4 C 17,7 km/h (3 Bft) 96,00 %
23.05.2019 12:18 15,2 C 15,0 C 24,4 C 66 % 1018,4 hPa 0,0 l/m 15,6 km/h (3 Bft) SW 223 2 min 0,000 mm 4,2 UV-I 601 W/m 8,9 C 11,2 C 22,5 km/h (4 Bft) 95,12 %
23.05.2019 12:20 15,3 C 15,0 C 23,9 C 63 % 1018,4 hPa 0,0 l/m 14,0 km/h (3 Bft) W 265 2 min 0,000 mm 3,7 UV-I 635 W/m 8,3 C 11,9 C 22,5 km/h (4 Bft) 93,62 %
23.05.2019 12:22 15,4 C 15,0 C 25,6 C 63 % 1018,4 hPa 0,0 l/m 10,8 km/h (2 Bft) W 260 2 min 0,000 mm 4,6 UV-I 724 W/m 8,4 C 13,2 C 17,7 km/h (3 Bft) 96,00 %
23.05.2019 12:24 15,6 C 15,0 C 26,7 C 65 % 1018,3 hPa 0,0 l/m 7,4 km/h (2 Bft) W-SW 254 2 min 0,000 mm 3,8 UV-I 698 W/m 9,0 C 15,1 C 12,9 km/h (3 Bft) 97,87 %
23.05.2019 12:26 15,7 C 15,0 C 26,1 C 63 % 1018,3 hPa 0,0 l/m 9,2 km/h (2 Bft) W-SW 251 2 min 0,000 mm 3,6 UV-I 624 W/m 8,7 C 14,3 C 14,5 km/h (3 Bft) 95,74 %
23.05.2019 12:28 15,7 C 15,0 C 25,0 C 64 % 1018,3 hPa 0,0 l/m 7,3 km/h (2 Bft) SW 224 2 min 0,000 mm 3,2 UV-I 507 W/m 8,9 C 15,2 C 14,5 km/h (3 Bft) 95,74 %
23.05.2019 12:30 15,7 C 15,0 C 24,4 C 64 % 1018,3 hPa 0,0 l/m 10,4 km/h (2 Bft) W-SW 248 2 min 0,000 mm 3,3 UV-I 499 W/m 8,9 C 13,7 C 20,9 km/h (4 Bft) 95,74 %
23.05.2019 12:32 15,7 C 15,0 C 23,9 C 61 % 1018,3 hPa 0,0 l/m 15,6 km/h (3 Bft) W-NW 286 2 min 0,000 mm 3,4 UV-I 540 W/m 8,2 C 11,9 C 24,1 km/h (4 Bft) 97,87 %
23.05.2019 12:34 15,6 C 15,0 C 23,9 C 60 % 1018,4 hPa 0,0 l/m 12,2 km/h (2 Bft) W-NW 293 2 min 0,000 mm 3,8 UV-I 609 W/m 7,9 C 12,9 C 22,5 km/h (4 Bft) 97,92 %
23.05.2019 12:36 15,6 C 15,0 C 23,9 C 60 % 1018,4 hPa 0,0 l/m 10,9 km/h (2 Bft) W-SW 242 2 min 0,000 mm 3,6 UV-I 580 W/m 7,9 C 13,4 C 17,7 km/h (3 Bft) 100,00 %
23.05.2019 12:38 15,6 C 15,0 C 23,9 C 60 % 1018,3 hPa 0,0 l/m 12,6 km/h (3 Bft) N-NW 338 2 min 0,000 mm 3,7 UV-I 591 W/m 7,9 C 12,7 C 22,5 km/h (4 Bft) 97,87 %
23.05.2019 12:40 15,6 C 15,0 C 23,9 C 60 % 1018,3 hPa 0,0 l/m 13,4 km/h (3 Bft) W-SW 258 2 min 0,000 mm 3,7 UV-I 605 W/m 7,9 C 12,5 C 19,3 km/h (3 Bft) 97,87 %
23.05.2019 12:42 15,6 C 15,0 C 23,9 C 60 % 1018,3 hPa 0,0 l/m 10,9 km/h (2 Bft) W-SW 251 2 min 0,000 mm 3,7 UV-I 595 W/m 7,9 C 13,4 C 17,7 km/h (3 Bft) 100,00 %
23.05.2019 12:44 15,5 C 15,0 C 23,3 C 60 % 1018,3 hPa 0,0 l/m 12,4 km/h (3 Bft) W 273 2 min 0,000 mm 3,6 UV-I 637 W/m 7,8 C 12,7 C 17,7 km/h (3 Bft) 100,00 %
23.05.2019 12:46 15,6 C 15,0 C 23,9 C 60 % 1018,3 hPa 0,0 l/m 8,3 km/h (2 Bft) W-SW 238 2 min 0,000 mm 3,5 UV-I 560 W/m 7,9 C 14,6 C 12,9 km/h (3 Bft) 97,87 %
23.05.2019 12:48 15,7 C 15,0 C 26,1 C 60 % 1018,1 hPa 0,0 l/m 12,6 km/h (3 Bft) W-SW 248 2 min 0,000 mm 5,4 UV-I 918 W/m 8,0 C 12,9 C 19,3 km/h (3 Bft) 95,74 %
23.05.2019 12:50 15,9 C 15,0 C 28,9 C 63 % 1018,1 hPa 0,0 l/m 4,7 km/h (1 Bft) W-SW 240 2 min 0,000 mm 5,4 UV-I 1084 W/m 8,9 C 15,9 C 11,3 km/h (2 Bft) 100,00 %
23.05.2019 12:52 16,3 C 15,0 C 30,0 C 62 % 1018,1 hPa 0,0 l/m 6,4 km/h (2 Bft) NW 317 2 min 0,000 mm 4,4 UV-I 970 W/m 9,0 C 16,3 C 12,9 km/h (3 Bft) 97,87 %
23.05.2019 12:54 16,6 C 15,6 C 31,1 C 63 % 1018,1 hPa 0,0 l/m 4,1 km/h (1 Bft) W 272 2 min 0,000 mm 5,0 UV-I 962 W/m 9,5 C 16,6 C 11,3 km/h (2 Bft) 100,00 %
23.05.2019 12:56 16,8 C 15,0 C 32,2 C 62 % 1018,1 hPa 0,0 l/m 10,5 km/h (2 Bft) W 259 2 min 0,000 mm 5,3 UV-I 996 W/m 9,5 C 14,9 C 20,9 km/h (4 Bft) 93,62 %
23.05.2019 12:58 16,9 C 15,0 C 32,8 C 58 % 1018,1 hPa 0,0 l/m 7,5 km/h (2 Bft) W 273 2 min 0,000 mm 5,5 UV-I 1070 W/m 8,6 C 16,3 C 17,7 km/h (3 Bft) 97,87 %
23.05.2019 13:00 16,9 C 15,6 C 32,8 C 59 % 1018,0 hPa 0,0 l/m 6,9 km/h (2 Bft) N-NW 348 2 min 0,406 mm 5,3 UV-I 1041 W/m 8,8 C 16,7 C 12,9 km/h (3 Bft) 97,87 %
23.05.2019 13:02 16,9 C 15,6 C 32,8 C 58 % 1018,0 hPa 0,0 l/m 6,5 km/h (2 Bft) W 260 2 min 0,000 mm 5,0 UV-I 1037 W/m 8,6 C 16,9 C 14,5 km/h (3 Bft) 97,37 %
23.05.2019 13:04 17,0 C 15,6 C 31,1 C 58 % 1018,0 hPa 0,0 l/m 12,9 km/h (3 Bft) W 264 2 min 0,000 mm 5,0 UV-I 1030 W/m 8,7 C 14,3 C 20,9 km/h (4 Bft) 100,00 %
23.05.2019 13:06 17,1 C 15,6 C 31,1 C 58 % 1017,9 hPa 0,0 l/m 14,3 km/h (3 Bft) W 264 2 min 0,000 mm 5,3 UV-I 1030 W/m 8,8 C 13,9 C 20,9 km/h (4 Bft) 100,00 %
23.05.2019 13:08 17,1 C 15,6 C 31,7 C 56 % 1018,0 hPa 0,0 l/m 13,2 km/h (3 Bft) W-SW 254 2 min 0,000 mm 5,4 UV-I 1014 W/m 8,3 C 14,3 C 19,3 km/h (3 Bft) 100,00 %
23.05.2019 13:10 17,1 C 15,6 C 32,2 C 55 % 1017,9 hPa 0,0 l/m 7,8 km/h (2 Bft) W-NW 298 2 min 0,000 mm 5,5 UV-I 1037 W/m 8,0 C 16,4 C 17,7 km/h (3 Bft) 100,00 %
23.05.2019 13:12 17,1 C 15,6 C 32,8 C 58 % 1017,9 hPa 0,0 l/m 9,5 km/h (2 Bft) NW 325 2 min 0,000 mm 5,6 UV-I 1104 W/m 8,8 C 15,6 C 16,1 km/h (3 Bft) 100,00 %
23.05.2019 13:14 17,1 C 15,6 C 30,6 C 58 % 1017,8 hPa 0,0 l/m 9,0 km/h (2 Bft) NW 311 2 min 0,000 mm 4,1 UV-I 1042 W/m 8,8 C 15,9 C 16,1 km/h (3 Bft) 100,00 %
23.05.2019 13:16 17,1 C 15,6 C 30,6 C 57 % 1017,8 hPa 0,0 l/m 7,2 km/h (2 Bft) W-NW 294 0 min 0,000 mm 4,3 UV-I 371 W/m 8,5 C 16,7 C 12,9 km/h (3 Bft) 100,00 %
23.05.2019 13:18 16,9 C 15,6 C 28,3 C 56 % 1017,9 hPa 0,0 l/m 10,2 km/h (2 Bft) W 277 0 min 0,000 mm 3,8 UV-I 371 W/m 8,1 C 15,1 C 17,7 km/h (3 Bft) 100,00 %
23.05.2019 13:20 16,8 C 15,6 C 26,1 C 56 % 1017,8 hPa 0,0 l/m 9,1 km/h (2 Bft) W-SW 246 0 min 0,000 mm 3,4 UV-I 371 W/m 8,0 C 15,5 C 16,1 km/h (3 Bft) 100,00 %
23.05.2019 13:22 16,7 C 15,6 C 27,8 C 57 % 1017,8 hPa 0,0 l/m 4,8 km/h (1 Bft) N-NO 26 0 min 0,000 mm 5,1 UV-I 475 W/m 8,1 C 16,7 C 8,0 km/h (2 Bft) 100,00 %
23.05.2019 13:24 16,8 C 15,6 C 30,0 C 59 % 1017,7 hPa 0,0 l/m 5,1 km/h (1 Bft) W-NW 299 2 min 0,000 mm 5,3 UV-I 986 W/m 8,7 C 16,8 C 9,7 km/h (2 Bft) 100,00 %
23.05.2019 13:26 17,1 C 15,6 C 31,7 C 57 % 1017,8 hPa 0,0 l/m 8,4 km/h (2 Bft) W-SW 252 2 min 0,000 mm 5,2 UV-I 991 W/m 8,5 C 16,1 C 16,1 km/h (3 Bft) 97,87 %
23.05.2019 13:28 17,3 C 15,6 C 31,7 C 53 % 1017,8 hPa 0,0 l/m 15,9 km/h (3 Bft) W 272 2 min 0,000 mm 5,5 UV-I 1013 W/m 7,6 C 13,7 C 24,1 km/h (4 Bft) 97,87 %
23.05.2019 13:30 17,4 C 15,6 C 32,8 C 55 % 1017,8 hPa 0,0 l/m 10,2 km/h (2 Bft) W 277 2 min 0,000 mm 5,5 UV-I 1027 W/m 8,3 C 15,7 C 16,1 km/h (3 Bft) 100,00 %
23.05.2019 13:32 17,6 C 15,6 C 33,9 C 55 % 1017,7 hPa 0,0 l/m 7,2 km/h (2 Bft) W 275 2 min 0,000 mm 5,4 UV-I 1010 W/m 8,5 C 17,2 C 14,5 km/h (3 Bft) 100,00 %
23.05.2019 13:34 17,7 C 15,6 C 33,3 C 51 % 1017,7 hPa 0,0 l/m 12,0 km/h (2 Bft) W 270 2 min 0,000 mm 5,4 UV-I 1012 W/m 7,4 C 15,4 C 17,7 km/h (3 Bft) 100,00 %
23.05.2019 13:36 17,7 C 15,6 C 32,8 C 51 % 1017,7 hPa 0,0 l/m 14,0 km/h (3 Bft) W 269 2 min 0,000 mm 5,4 UV-I 1022 W/m 7,4 C 14,8 C 25,7 km/h (4 Bft) 98,00 %
23.05.2019 13:38 17,8 C 15,6 C 31,7 C 52 % 1017,6 hPa 0,0 l/m 12,1 km/h (2 Bft) W-SW 240 2 min 0,000 mm 4,9 UV-I 952 W/m 7,8 C 15,5 C 16,1 km/h (3 Bft) 100,00 %
23.05.2019 13:40 17,8 C 15,6 C 31,7 C 51 % 1017,7 hPa 0,0 l/m 11,3 km/h (2 Bft) W-NW 289 2 min 0,000 mm 4,9 UV-I 747 W/m 7,5 C 15,7 C 20,9 km/h (4 Bft) 95,74 %
23.05.2019 13:42 17,8 C 15,6 C 32,2 C 49 % 1017,7 hPa 0,0 l/m 12,6 km/h (3 Bft) W 267 2 min 0,000 mm 5,3 UV-I 917 W/m 6,9 C 15,3 C 19,3 km/h (3 Bft) 94,00 %
23.05.2019 13:44 17,7 C 15,6 C 33,9 C 49 % 1017,7 hPa 0,0 l/m 6,3 km/h (2 Bft) W-SW 257 2 min 0,000 mm 5,6 UV-I 1090 W/m 6,9 C 17,7 C 14,5 km/h (3 Bft) 95,83 %
23.05.2019 13:46 17,8 C 15,6 C 34,4 C 49 % 1017,6 hPa 0,0 l/m 8,2 km/h (2 Bft) S 188 2 min 0,000 mm 5,7 UV-I 1110 W/m 6,9 C 17,0 C 14,5 km/h (3 Bft) 94,74 %
23.05.2019 13:48 17,8 C 15,6 C 33,9 C 49 % 1017,6 hPa 0,0 l/m 13,9 km/h (3 Bft) W 279 2 min 0,000 mm 5,2 UV-I 1121 W/m 6,9 C 14,9 C 22,5 km/h (4 Bft) 96,00 %
23.05.2019 13:50 17,9 C 15,6 C 32,8 C 47 % 1017,6 hPa 0,0 l/m 12,9 km/h (3 Bft) W-SW 244 2 min 0,000 mm 5,4 UV-I 972 W/m 6,4 C 15,3 C 22,5 km/h (4 Bft) 93,62 %
23.05.2019 13:52 17,8 C 15,6 C 32,8 C 47 % 1017,6 hPa 0,0 l/m 6,8 km/h (2 Bft) N-NO 22 2 min 0,000 mm 5,2 UV-I 962 W/m 6,3 C 17,6 C 12,9 km/h (3 Bft) 93,62 %
23.05.2019 13:54 17,7 C 15,6 C 34,4 C 55 % 1017,6 hPa 0,0 l/m 6,3 km/h (2 Bft) W-SW 256 2 min 0,000 mm 5,4 UV-I 1017 W/m 8,5 C 17,7 C 11,3 km/h (2 Bft) 95,74 %
23.05.2019 13:56 18,0 C 15,6 C 36,1 C 54 % 1017,6 hPa 0,0 l/m 8,4 km/h (2 Bft) W 260 2 min 0,000 mm 5,3 UV-I 1101 W/m 8,6 C 17,1 C 16,1 km/h (3 Bft) 96,23 %
23.05.2019 13:58 18,1 C 15,6 C 35,0 C 52 % 1017,5 hPa 0,0 l/m 17,0 km/h (3 Bft) W 261 2 min 0,000 mm 5,2 UV-I 1016 W/m 8,1 C 14,4 C 22,5 km/h (4 Bft) 92,11 %
23.05.2019 14:00 17,9 C 15,6 C 32,8 C 48 % 1017,6 hPa 0,0 l/m 13,1 km/h (3 Bft) W-SW 239 2 min 0,584 mm 4,8 UV-I 968 W/m 6,7 C 15,3 C 19,3 km/h (3 Bft) 93,62 %
23.05.2019 14:02 17,9 C 15,6 C 30,6 C 48 % 1017,6 hPa 0,0 l/m 15,0 km/h (3 Bft) W-SW 251 2 min 0,000 mm 4,2 UV-I 775 W/m 6,7 C 14,7 C 22,5 km/h (4 Bft) 95,74 %
23.05.2019 14:04 17,8 C 15,6 C 28,9 C 47 % 1017,6 hPa 0,0 l/m 13,8 km/h (3 Bft) W 259 2 min 0,000 mm 3,8 UV-I 617 W/m 6,3 C 14,9 C 25,7 km/h (4 Bft) 95,74 %
23.05.2019 14:06 17,6 C 15,6 C 28,9 C 49 % 1017,5 hPa 0,0 l/m 7,1 km/h (2 Bft) W-SW 249 2 min 0,000 mm 4,1 UV-I 687 W/m 6,8 C 17,3 C 14,5 km/h (3 Bft) 94,00 %
23.05.2019 14:08 17,4 C 15,6 C 28,9 C 49 % 1017,6 hPa 0,0 l/m 10,5 km/h (2 Bft) W-NW 298 2 min 0,000 mm 4,3 UV-I 796 W/m 6,6 C 15,6 C 22,5 km/h (4 Bft) 93,62 %
23.05.2019 14:10 17,4 C 15,6 C 28,3 C 50 % 1017,6 hPa 0,0 l/m 11,2 km/h (2 Bft) W 281 2 min 0,000 mm 3,9 UV-I 673 W/m 6,9 C 15,3 C 16,1 km/h (3 Bft) 95,74 %
23.05.2019 14:12 17,3 C 15,6 C 27,2 C 49 % 1017,6 hPa 0,0 l/m 9,3 km/h (2 Bft) W 269 2 min 0,000 mm 3,8 UV-I 608 W/m 6,5 C 15,9 C 17,7 km/h (3 Bft) 96,00 %
23.05.2019 14:14 17,3 C 15,6 C 26,7 C 49 % 1017,6 hPa 0,0 l/m 13,6 km/h (3 Bft) W 263 2 min 0,000 mm 4,0 UV-I 678 W/m 6,5 C 14,4 C 22,5 km/h (4 Bft) 97,62 %
23.05.2019 14:16 17,2 C 15,6 C 28,3 C 49 % 1017,6 hPa 0,0 l/m 10,6 km/h (2 Bft) SW 233 2 min 0,000 mm 4,5 UV-I 747 W/m 6,4 C 15,3 C 16,1 km/h (3 Bft) 93,62 %
23.05.2019 14:18 17,3 C 15,6 C 28,9 C 49 % 1017,4 hPa 0,0 l/m 10,6 km/h (2 Bft) W-SW 243 2 min 0,000 mm 4,4 UV-I 803 W/m 6,5 C 15,4 C 14,5 km/h (3 Bft) 97,87 %
23.05.2019 14:20 17,3 C 15,6 C 30,0 C 48 % 1017,4 hPa 0,0 l/m 7,6 km/h (2 Bft) NW 304 2 min 0,000 mm 4,4 UV-I 811 W/m 6,2 C 16,7 C 16,1 km/h (3 Bft) 97,87 %
23.05.2019 14:22 17,5 C 15,6 C 30,6 C 51 % 1017,4 hPa 0,0 l/m 6,4 km/h (2 Bft) W-NW 298 2 min 0,000 mm 4,5 UV-I 819 W/m 7,3 C 17,5 C 12,9 km/h (3 Bft) 97,87 %
23.05.2019 14:24 17,7 C 15,6 C 31,7 C 49 % 1017,4 hPa 0,0 l/m 9,9 km/h (2 Bft) W-NW 284 2 min 0,000 mm 4,5 UV-I 819 W/m 6,9 C 16,1 C 19,3 km/h (3 Bft) 98,00 %
23.05.2019 14:26 17,8 C 15,6 C 33,3 C 49 % 1017,4 hPa 0,0 l/m 9,3 km/h (2 Bft) W 259 2 min 0,000 mm 5,3 UV-I 959 W/m 6,9 C 16,5 C 16,1 km/h (3 Bft) 97,87 %
23.05.2019 14:28 17,9 C 15,6 C 33,3 C 47 % 1017,4 hPa 0,0 l/m 13,4 km/h (3 Bft) W-SW 238 2 min 0,000 mm 5,0 UV-I 1099 W/m 6,4 C 15,2 C 20,9 km/h (4 Bft) 97,87 %
23.05.2019 14:30 17,9 C 16,1 C 32,2 C 47 % 1017,4 hPa 0,0 l/m 13,5 km/h (3 Bft) N-NW 335 2 min 0,000 mm 4,8 UV-I 1006 W/m 6,4 C 15,1 C 22,5 km/h (4 Bft) 97,37 %
23.05.2019 14:32 18,2 C 16,1 C 32,8 C 53 % 1017,4 hPa 0,0 l/m 5,6 km/h (1 Bft) W-NW 284 2 min 0,000 mm 4,6 UV-I 884 W/m 8,5 C 18,2 C 11,3 km/h (2 Bft) 95,74 %
23.05.2019 14:34 18,3 C 16,1 C 33,9 C 51 % 1017,3 hPa 0,0 l/m 6,0 km/h (2 Bft) NW 308 2 min 0,000 mm 5,0 UV-I 884 W/m 8,0 C 18,3 C 12,9 km/h (3 Bft) 93,62 %
23.05.2019 14:36 18,3 C 16,1 C 32,8 C 48 % 1017,2 hPa 0,0 l/m 8,6 km/h (2 Bft) NW 321 2 min 0,000 mm 4,1 UV-I 781 W/m 7,1 C 17,3 C 17,7 km/h (3 Bft) 95,74 %
23.05.2019 14:38 18,1 C 16,1 C 30,0 C 50 % 1017,2 hPa 0,0 l/m 11,2 km/h (2 Bft) N 5 2 min 0,000 mm 3,8 UV-I 667 W/m 7,5 C 16,1 C 22,5 km/h (4 Bft) 94,00 %
23.05.2019 14:40 17,9 C 16,1 C 29,4 C 50 % 1017,2 hPa 0,0 l/m 9,3 km/h (2 Bft) N-NO 22 2 min 0,000 mm 4,0 UV-I 743 W/m 7,3 C 16,6 C 17,7 km/h (3 Bft) 98,00 %
23.05.2019 14:42 17,8 C 16,1 C 29,4 C 52 % 1017,2 hPa 0,0 l/m 8,4 km/h (2 Bft) W-NW 300 2 min 0,000 mm 3,9 UV-I 794 W/m 7,8 C 16,9 C 16,1 km/h (3 Bft) 97,87 %
23.05.2019 14:44 17,8 C 16,1 C 28,3 C 50 % 1017,2 hPa 0,0 l/m 5,4 km/h (1 Bft) W 271 2 min 0,000 mm 3,4 UV-I 587 W/m 7,2 C 17,8 C 11,3 km/h (2 Bft) 96,00 %
23.05.2019 14:46 17,7 C 16,1 C 27,2 C 48 % 1017,2 hPa 0,0 l/m 5,1 km/h (1 Bft) W 267 2 min 0,000 mm 3,1 UV-I 530 W/m 6,6 C 17,7 C 9,7 km/h (2 Bft) 97,22 %
23.05.2019 14:48 17,7 C 16,1 C 27,2 C 49 % 1017,2 hPa 0,0 l/m 8,5 km/h (2 Bft) NO 38 2 min 0,000 mm 3,3 UV-I 603 W/m 6,9 C 16,7 C 14,5 km/h (3 Bft) 97,87 %
23.05.2019 14:50 17,7 C 16,1 C 27,2 C 55 % 1017,1 hPa 0,0 l/m 7,6 km/h (2 Bft) N-NW 333 2 min 0,000 mm 3,2 UV-I 587 W/m 8,5 C 17,1 C 14,5 km/h (3 Bft) 94,12 %
23.05.2019 14:52 17,6 C 16,1 C 26,7 C 53 % 1017,2 hPa 0,0 l/m 4,8 km/h (1 Bft) N 355 2 min 0,000 mm 3,1 UV-I 567 W/m 7,9 C 17,6 C 9,7 km/h (2 Bft) 97,87 %
23.05.2019 14:54 17,4 C 16,1 C 26,7 C 56 % 1017,2 hPa 0,0 l/m 8,0 km/h (2 Bft) N-NW 328 2 min 0,000 mm 3,1 UV-I 557 W/m 8,5 C 16,6 C 16,1 km/h (3 Bft) 95,74 %
23.05.2019 14:56 17,4 C 16,1 C 26,1 C 55 % 1017,1 hPa 0,0 l/m 6,4 km/h (2 Bft) N-NW 338 2 min 0,000 mm 3,1 UV-I 578 W/m 8,3 C 17,4 C 14,5 km/h (3 Bft) 98,00 %
23.05.2019 14:58 17,4 C 16,1 C 26,1 C 55 % 1017,1 hPa 0,0 l/m 5,2 km/h (1 Bft) N-NW 346 2 min 0,000 mm 3,1 UV-I 584 W/m 8,3 C 17,4 C 12,9 km/h (3 Bft) 94,74 %
23.05.2019 15:00 17,4 C 16,1 C 26,7 C 55 % 1017,1 hPa 0,0 l/m 5,7 km/h (1 Bft) NW 310 2 min 0,458 mm 3,1 UV-I 604 W/m 8,3 C 17,4 C 12,9 km/h (3 Bft) 96,15 %
23.05.2019 15:02 17,4 C 16,1 C 27,2 C 54 % 1017,1 hPa 0,0 l/m 3,5 km/h (1 Bft) NW 313 2 min 0,000 mm 3,1 UV-I 600 W/m 8,0 C 17,4 C 6,4 km/h (2 Bft) 97,87 %
23.05.2019 15:04 17,6 C 16,1 C 27,2 C 51 % 1017,1 hPa 0,0 l/m 7,6 km/h (2 Bft) NW 313 2 min 0,000 mm 3,0 UV-I 559 W/m 7,3 C 17,0 C 12,9 km/h (3 Bft) 95,74 %
23.05.2019 15:06 17,7 C 16,1 C 27,2 C 52 % 1017,0 hPa 0,0 l/m 4,5 km/h (1 Bft) O 94 2 min 0,000 mm 2,9 UV-I 551 W/m 7,7 C 17,7 C 8,0 km/h (2 Bft) 96,00 %
23.05.2019 15:08 17,7 C 16,1 C 27,2 C 52 % 1017,0 hPa 0,0 l/m 5,6 km/h (1 Bft) W-SW 254 2 min 0,000 mm 2,9 UV-I 550 W/m 7,7 C 17,7 C 9,7 km/h (2 Bft) 92,68 %
23.05.2019 15:10 17,7 C 16,1 C 26,7 C 51 % 1017,0 hPa 0,0 l/m 7,9 km/h (2 Bft) NW 315 2 min 0,000 mm 2,9 UV-I 551 W/m 7,4 C 17,0 C 12,9 km/h (3 Bft) 97,87 %
23.05.2019 15:12 17,6 C 16,1 C 26,1 C 49 % 1016,9 hPa 0,0 l/m 11,1 km/h (2 Bft) W-NW 302 2 min 0,000 mm 2,9 UV-I 546 W/m 6,8 C 15,6 C 14,5 km/h (3 Bft) 93,62 %
23.05.2019 15:14 17,5 C 16,1 C 25,6 C 49 % 1016,9 hPa 0,0 l/m 6,9 km/h (2 Bft) NW 321 2 min 0,000 mm 2,8 UV-I 536 W/m 6,7 C 17,3 C 14,5 km/h (3 Bft) 91,49 %
23.05.2019 15:16 17,4 C 16,1 C 25,6 C 51 % 1016,8 hPa 0,0 l/m 7,0 km/h (2 Bft) SW 234 2 min 0,000 mm 2,7 UV-I 511 W/m 7,2 C 17,1 C 12,9 km/h (3 Bft) 95,74 %
23.05.2019 15:18 17,4 C 16,1 C 25,0 C 51 % 1016,8 hPa 0,0 l/m 7,3 km/h (2 Bft) SW 229 2 min 0,000 mm 2,6 UV-I 492 W/m 7,2 C 17,0 C 17,7 km/h (3 Bft) 93,62 %
23.05.2019 15:20 17,4 C 16,1 C 24,4 C 51 % 1016,8 hPa 0,0 l/m 11,1 km/h (2 Bft) W-SW 243 2 min 0,000 mm 2,5 UV-I 479 W/m 7,2 C 15,4 C 19,3 km/h (3 Bft) 94,34 %
23.05.2019 15:22 17,4 C 16,1 C 23,3 C 51 % 1016,8 hPa 0,0 l/m 15,5 km/h (3 Bft) SW 234 2 min 0,000 mm 2,5 UV-I 466 W/m 7,2 C 14,0 C 25,7 km/h (4 Bft) 94,74 %
23.05.2019 15:24 17,4 C 16,1 C 23,3 C 51 % 1016,8 hPa 0,0 l/m 11,5 km/h (2 Bft) W-NW 284 2 min 0,000 mm 2,4 UV-I 455 W/m 7,2 C 15,2 C 16,1 km/h (3 Bft) 91,67 %
23.05.2019 15:26 17,4 C 16,1 C 23,3 C 51 % 1016,8 hPa 0,0 l/m 6,3 km/h (2 Bft) NO 46 2 min 0,000 mm 2,4 UV-I 449 W/m 7,2 C 17,4 C 17,7 km/h (3 Bft) 93,62 %
23.05.2019 15:28 17,4 C 16,1 C 23,9 C 51 % 1016,7 hPa 0,0 l/m 2,2 km/h (1 Bft) NW 304 2 min 0,000 mm 2,4 UV-I 454 W/m 7,2 C 17,4 C 6,4 km/h (2 Bft) 95,74 %
23.05.2019 15:30 17,4 C 16,1 C 23,9 C 51 % 1016,7 hPa 0,0 l/m 3,5 km/h (1 Bft) N 349 2 min 0,000 mm 2,4 UV-I 460 W/m 7,2 C 17,4 C 12,9 km/h (3 Bft) 96,00 %
23.05.2019 15:32 17,4 C 16,1 C 24,4 C 51 % 1016,7 hPa 0,0 l/m 5,6 km/h (1 Bft) NW 323 2 min 0,000 mm 2,4 UV-I 471 W/m 7,2 C 17,4 C 9,7 km/h (2 Bft) 95,74 %
23.05.2019 15:34 17,4 C 16,1 C 25,0 C 51 % 1016,6 hPa 0,0 l/m 6,2 km/h (2 Bft) N 360 2 min 0,000 mm 2,6 UV-I 539 W/m 7,2 C 17,4 C 14,5 km/h (3 Bft) 95,74 %
23.05.2019 15:36 17,4 C 16,1 C 25,0 C 51 % 1016,7 hPa 0,0 l/m 5,4 km/h (1 Bft) W 276 2 min 0,000 mm 2,5 UV-I 511 W/m 7,2 C 17,4 C 12,9 km/h (3 Bft) 93,62 %
23.05.2019 15:38 17,4 C 16,1 C 24,4 C 51 % 1016,7 hPa 0,0 l/m 7,6 km/h (2 Bft) N 360 2 min 0,000 mm 2,3 UV-I 464 W/m 7,2 C 16,8 C 12,9 km/h (3 Bft) 93,62 %
23.05.2019 15:40 17,4 C 16,1 C 24,4 C 51 % 1016,7 hPa 0,0 l/m 6,8 km/h (2 Bft) W 264 2 min 0,000 mm 2,3 UV-I 457 W/m 7,2 C 17,2 C 16,1 km/h (3 Bft) 95,12 %
23.05.2019 15:42 17,4 C 16,1 C 24,4 C 51 % 1016,6 hPa 0,0 l/m 10,6 km/h (2 Bft) N-NW 340 2 min 0,000 mm 2,2 UV-I 448 W/m 7,2 C 15,5 C 19,3 km/h (3 Bft) 94,23 %
23.05.2019 15:44 17,4 C 16,1 C 23,9 C 51 % 1016,7 hPa 0,0 l/m 7,6 km/h (2 Bft) W-NW 303 2 min 0,000 mm 2,1 UV-I 434 W/m 7,2 C 16,8 C 14,5 km/h (3 Bft) 91,49 %
23.05.2019 15:46 17,4 C 16,1 C 23,9 C 51 % 1016,6 hPa 0,0 l/m 4,9 km/h (1 Bft) W-SW 242 2 min 0,000 mm 2,1 UV-I 422 W/m 7,2 C 17,4 C 8,0 km/h (2 Bft) 96,00 %
23.05.2019 15:48 17,4 C 16,1 C 23,9 C 51 % 1016,6 hPa 0,0 l/m 8,9 km/h (2 Bft) W 277 2 min 0,000 mm 2,0 UV-I 414 W/m 7,2 C 16,2 C 19,3 km/h (3 Bft) 97,87 %
23.05.2019 15:50 17,4 C 16,1 C 23,3 C 51 % 1016,6 hPa 0,0 l/m 7,0 km/h (2 Bft) W 269 2 min 0,000 mm 1,9 UV-I 399 W/m 7,2 C 17,1 C 17,7 km/h (3 Bft) 100,00 %
23.05.2019 15:52 17,4 C 16,1 C 23,3 C 51 % 1016,6 hPa 0,0 l/m 3,7 km/h (1 Bft) W-SW 255 0 min 0,000 mm 1,8 UV-I 381 W/m 7,2 C 17,4 C 9,7 km/h (2 Bft) 97,87 %
23.05.2019 15:54 17,4 C 16,1 C 22,8 C 51 % 1016,6 hPa 0,0 l/m 3,7 km/h (1 Bft) W-NW 283 0 min 0,000 mm 1,8 UV-I 364 W/m 7,2 C 17,4 C 9,7 km/h (2 Bft) 97,87 %
23.05.2019 15:56 17,4 C 16,1 C 22,8 C 51 % 1016,6 hPa 0,0 l/m 5,9 km/h (2 Bft) N-NW 346 0 min 0,000 mm 1,7 UV-I 358 W/m 7,2 C 17,4 C 11,3 km/h (2 Bft) 97,87 %
23.05.2019 15:58 17,4 C 16,1 C 22,2 C 51 % 1016,7 hPa 0,0 l/m 4,3 km/h (1 Bft) W-NW 300 0 min 0,000 mm 1,7 UV-I 363 W/m 7,2 C 17,4 C 8,0 km/h (2 Bft) 95,74 %
23.05.2019 16:00 17,4 C 16,1 C 22,2 C 51 % 1016,7 hPa 0,0 l/m 5,7 km/h (1 Bft) NW 304 0 min 0,000 mm 1,8 UV-I 379 W/m 7,2 C 17,4 C 11,3 km/h (2 Bft) 97,87 %
23.05.2019 16:02 17,4 C 16,1 C 22,8 C 51 % 1016,6 hPa 0,0 l/m 5,1 km/h (1 Bft) W-NW 294 2 min 0,304 mm 1,8 UV-I 392 W/m 7,2 C 17,4 C 9,7 km/h (2 Bft) 93,62 %
23.05.2019 16:04 17,4 C 16,1 C 22,8 C 51 % 1016,6 hPa 0,0 l/m 5,1 km/h (1 Bft) W 263 2 min 0,000 mm 1,8 UV-I 396 W/m 7,2 C 17,4 C 11,3 km/h (2 Bft) 95,74 %
23.05.2019 16:06 17,4 C 16,1 C 22,2 C 51 % 1016,5 hPa 0,0 l/m 10,3 km/h (2 Bft) NW 309 2 min 0,000 mm 1,8 UV-I 394 W/m 7,2 C 15,7 C 16,1 km/h (3 Bft) 100,00 %
23.05.2019 16:08 17,4 C 16,1 C 22,2 C 51 % 1016,6 hPa 0,0 l/m 7,2 km/h (2 Bft) W 277 2 min 0,000 mm 1,7 UV-I 381 W/m 7,2 C 17,0 C 11,3 km/h (2 Bft) 100,00 %
23.05.2019 16:10 17,4 C 16,1 C 22,8 C 51 % 1016,6 hPa 0,0 l/m 2,5 km/h (1 Bft) N-NW 340 2 min 0,000 mm 1,7 UV-I 382 W/m 7,2 C 17,4 C 4,8 km/h (1 Bft) 98,00 %
23.05.2019 16:12 17,3 C 16,1 C 22,8 C 55 % 1016,5 hPa 0,0 l/m 4,3 km/h (1 Bft) W-NW 292 2 min 0,000 mm 1,8 UV-I 393 W/m 8,2 C 17,3 C 9,7 km/h (2 Bft) 98,00 %
23.05.2019 16:14 17,1 C 16,1 C 22,8 C 54 % 1016,5 hPa 0,0 l/m 5,6 km/h (1 Bft) W-NW 301 2 min 0,000 mm 1,8 UV-I 392 W/m 7,7 C 17,1 C 12,9 km/h (3 Bft) 95,74 %
23.05.2019 16:16 17,0 C 16,1 C 22,8 C 58 % 1016,5 hPa 0,0 l/m 3,4 km/h (1 Bft) N 5 2 min 0,000 mm 1,7 UV-I 377 W/m 8,7 C 17,0 C 8,0 km/h (2 Bft) 96,00 %
23.05.2019 16:18 16,9 C 16,1 C 22,8 C 57 % 1016,5 hPa 0,0 l/m 7,0 km/h (2 Bft) N-NO 14 0 min 0,000 mm 1,7 UV-I 360 W/m 8,3 C 16,6 C 14,5 km/h (3 Bft) 100,00 %
23.05.2019 16:20 16,8 C 16,1 C 22,2 C 56 % 1016,5 hPa 0,0 l/m 7,8 km/h (2 Bft) N-NW 336 0 min 0,000 mm 1,6 UV-I 345 W/m 8,0 C 16,1 C 12,9 km/h (3 Bft) 100,00 %
23.05.2019 16:22 16,8 C 16,1 C 22,2 C 57 % 1016,5 hPa 0,0 l/m 4,7 km/h (1 Bft) NW 323 0 min 0,000 mm 1,6 UV-I 344 W/m 8,2 C 16,8 C 12,9 km/h (3 Bft) 97,87 %
23.05.2019 16:24 16,7 C 16,1 C 22,2 C 55 % 1016,5 hPa 0,0 l/m 3,7 km/h (1 Bft) NW 315 0 min 0,000 mm 1,5 UV-I 346 W/m 7,6 C 16,7 C 9,7 km/h (2 Bft) 97,87 %
23.05.2019 16:26 16,8 C 16,1 C 22,2 C 55 % 1016,5 hPa 0,0 l/m 5,8 km/h (2 Bft) N-NW 333 0 min 0,000 mm 1,5 UV-I 345 W/m 7,7 C 16,8 C 8,0 km/h (2 Bft) 100,00 %
23.05.2019 16:28 16,7 C 16,1 C 22,2 C 57 % 1016,6 hPa 0,0 l/m 7,4 km/h (2 Bft) N 5 0 min 0,000 mm 1,5 UV-I 333 W/m 8,1 C 16,2 C 11,3 km/h (2 Bft) 100,00 %
23.05.2019 16:30 16,7 C 16,1 C 21,7 C 57 % 1016,5 hPa 0,0 l/m 9,8 km/h (2 Bft) W 266 0 min 0,000 mm 1,4 UV-I 317 W/m 8,1 C 15,1 C 16,1 km/h (3 Bft) 100,00 %
23.05.2019 16:32 16,7 C 16,1 C 21,7 C 58 % 1016,6 hPa 0,0 l/m 1,1 km/h (1 Bft) W 267 0 min 0,000 mm 1,4 UV-I 311 W/m 8,4 C 16,7 C 4,8 km/h (1 Bft) 97,87 %
23.05.2019 16:34 16,9 C 16,1 C 21,7 C 56 % 1016,5 hPa 0,0 l/m 3,2 km/h (1 Bft) W-SW 252 0 min 0,000 mm 1,3 UV-I 311 W/m 8,1 C 16,9 C 8,0 km/h (2 Bft) 93,62 %
23.05.2019 16:36 16,9 C 16,1 C 21,7 C 58 % 1016,5 hPa 0,0 l/m 2,8 km/h (1 Bft) N 5 0 min 0,000 mm 1,3 UV-I 313 W/m 8,6 C 16,9 C 8,0 km/h (2 Bft) 98,00 %
23.05.2019 16:38 16,8 C 16,1 C 21,7 C 55 % 1016,5 hPa 0,0 l/m 7,2 km/h (2 Bft) N-NO 12 0 min 0,000 mm 1,3 UV-I 319 W/m 7,7 C 16,4 C 11,3 km/h (2 Bft) 97,22 %
23.05.2019 16:40 16,8 C 16,1 C 21,7 C 55 % 1016,5 hPa 0,0 l/m 7,8 km/h (2 Bft) N-NO 19 0 min 0,000 mm 1,3 UV-I 328 W/m 7,7 C 16,1 C 14,5 km/h (3 Bft) 98,00 %
23.05.2019 16:42 16,7 C 16,1 C 21,7 C 56 % 1016,5 hPa 0,0 l/m 4,9 km/h (1 Bft) N-NO 20 0 min 0,000 mm 1,3 UV-I 323 W/m 7,9 C 16,7 C 8,0 km/h (2 Bft) 97,87 %
23.05.2019 16:44 16,7 C 16,1 C 21,7 C 56 % 1016,5 hPa 0,0 l/m 7,0 km/h (2 Bft) N-NW 329 0 min 0,000 mm 1,3 UV-I 307 W/m 7,9 C 16,4 C 12,9 km/h (3 Bft) 97,87 %
23.05.2019 16:46 16,7 C 16,1 C 21,1 C 54 % 1016,4 hPa 0,0 l/m 9,8 km/h (2 Bft) N 10 0 min 0,000 mm 1,2 UV-I 290 W/m 7,3 C 15,1 C 14,5 km/h (3 Bft) 97,87 %
23.05.2019 16:48 16,6 C 16,1 C 20,6 C 53 % 1016,4 hPa 0,0 l/m 7,3 km/h (2 Bft) N-NO 18 0 min 0,000 mm 1,1 UV-I 274 W/m 7,0 C 16,1 C 11,3 km/h (2 Bft) 96,00 %
23.05.2019 16:50 16,5 C 16,1 C 20,6 C 56 % 1016,4 hPa 0,0 l/m 5,3 km/h (1 Bft) N 11 0 min 0,000 mm 1,1 UV-I 262 W/m 7,7 C 16,5 C 8,0 km/h (2 Bft) 98,00 %
23.05.2019 16:52 16,4 C 16,1 C 20,6 C 55 % 1016,4 hPa 0,0 l/m 6,5 km/h (2 Bft) N 5 0 min 0,000 mm 1,0 UV-I 251 W/m 7,3 C 16,4 C 9,7 km/h (2 Bft) 97,87 %
23.05.2019 16:54 16,4 C 16,1 C 20,0 C 54 % 1016,4 hPa 0,0 l/m 8,0 km/h (2 Bft) N-NO 17 0 min 0,000 mm 0,9 UV-I 244 W/m 7,1 C 15,6 C 12,9 km/h (3 Bft) 95,74 %
23.05.2019 16:56 16,4 C 16,1 C 20,0 C 54 % 1016,4 hPa 0,0 l/m 5,7 km/h (1 Bft) N-NO 18 0 min 0,000 mm 0,9 UV-I 240 W/m 7,1 C 16,4 C 8,0 km/h (2 Bft) 100,00 %
23.05.2019 16:58 16,5 C 16,1 C 20,0 C 54 % 1016,4 hPa 0,0 l/m 5,9 km/h (2 Bft) N 9 0 min 0,000 mm 0,9 UV-I 239 W/m 7,2 C 16,5 C 9,7 km/h (2 Bft) 100,00 %
23.05.2019 17:00 16,4 C 16,1 C 20,0 C 56 % 1016,3 hPa 0,0 l/m 4,7 km/h (1 Bft) N-NW 348 0 min 0,000 mm 0,9 UV-I 236 W/m 7,6 C 16,4 C 6,4 km/h (2 Bft) 100,00 %
23.05.2019 17:02 16,4 C 16,1 C 20,0 C 56 % 1016,3 hPa 0,0 l/m 4,8 km/h (1 Bft) N 355 0 min 0,204 mm 0,9 UV-I 232 W/m 7,6 C 16,4 C 8,0 km/h (2 Bft) 97,87 %
23.05.2019 17:04 16,4 C 16,1 C 20,0 C 55 % 1016,3 hPa 0,0 l/m 6,6 km/h (2 Bft) N 355 0 min 0,000 mm 0,8 UV-I 229 W/m 7,3 C 16,3 C 11,3 km/h (2 Bft) 97,87 %
23.05.2019 17:06 16,4 C 16,1 C 20,0 C 55 % 1016,2 hPa 0,0 l/m 7,6 km/h (2 Bft) NW 317 0 min 0,000 mm 0,8 UV-I 226 W/m 7,3 C 15,8 C 11,3 km/h (2 Bft) 100,00 %
23.05.2019 17:08 16,4 C 16,1 C 20,0 C 58 % 1016,2 hPa 0,0 l/m 4,5 km/h (1 Bft) N 355 0 min 0,000 mm 0,8 UV-I 225 W/m 8,1 C 16,4 C 6,4 km/h (2 Bft) 100,00 %
23.05.2019 17:10 16,5 C 16,1 C 20,0 C 56 % 1016,2 hPa 0,0 l/m 4,3 km/h (1 Bft) N 360 0 min 0,000 mm 0,8 UV-I 225 W/m 7,7 C 16,5 C 6,4 km/h (2 Bft) 100,00 %
23.05.2019 17:12 16,6 C 16,1 C 20,0 C 55 % 1016,2 hPa 0,0 l/m 4,3 km/h (1 Bft) NW 305 0 min 0,000 mm 0,8 UV-I 225 W/m 7,5 C 16,6 C 8,0 km/h (2 Bft) 97,87 %
23.05.2019 17:14 16,6 C 16,1 C 20,0 C 58 % 1016,2 hPa 0,0 l/m 4,2 km/h (1 Bft) N 5 0 min 0,000 mm 0,8 UV-I 224 W/m 8,3 C 16,6 C 8,0 km/h (2 Bft) 100,00 %
23.05.2019 17:16 16,6 C 16,1 C 20,0 C 55 % 1016,2 hPa 0,0 l/m 3,2 km/h (1 Bft) N-NW 338 0 min 0,000 mm 0,8 UV-I 223 W/m 7,5 C 16,6 C 4,8 km/h (1 Bft) 97,87 %
23.05.2019 17:18 16,6 C 16,1 C 20,0 C 56 % 1016,2 hPa 0,0 l/m 2,8 km/h (1 Bft) N 11 0 min 0,000 mm 0,7 UV-I 224 W/m 7,8 C 16,6 C 4,8 km/h (1 Bft) 100,00 %
23.05.2019 17:20 16,6 C 16,1 C 20,6 C 57 % 1016,2 hPa 0,0 l/m 1,5 km/h (1 Bft) N-NO 12 0 min 0,000 mm 0,7 UV-I 227 W/m 8,0 C 16,6 C 3,2 km/h (1 Bft) 93,62 %
23.05.2019 17:22 16,7 C 16,1 C 20,0 C 57 % 1016,3 hPa 0,0 l/m 3,6 km/h (1 Bft) NO 42 0 min 0,000 mm 0,7 UV-I 228 W/m 8,1 C 16,7 C 6,4 km/h (2 Bft) 97,87 %
23.05.2019 17:24 16,7 C 16,1 C 20,0 C 55 % 1016,2 hPa 0,0 l/m 3,4 km/h (1 Bft) N 355 0 min 0,000 mm 0,7 UV-I 230 W/m 7,6 C 16,7 C 4,8 km/h (1 Bft) 97,87 %
23.05.2019 17:26 16,7 C 16,1 C 20,0 C 55 % 1016,2 hPa 0,0 l/m 4,6 km/h (1 Bft) N-NO 22 0 min 0,000 mm 0,7 UV-I 234 W/m 7,6 C 16,7 C 8,0 km/h (2 Bft) 95,74 %
23.05.2019 17:28 16,7 C 16,1 C 20,6 C 55 % 1016,2 hPa 0,0 l/m 1,8 km/h (1 Bft) N-NO 15 0 min 0,000 mm 0,7 UV-I 240 W/m 7,6 C 16,7 C 4,8 km/h (1 Bft) 97,87 %
23.05.2019 17:30 16,8 C 16,1 C 20,6 C 56 % 1016,1 hPa 0,0 l/m 3,6 km/h (1 Bft) W-SW 258 0 min 0,000 mm 0,7 UV-I 247 W/m 8,0 C 16,8 C 4,8 km/h (1 Bft) 95,74 %
23.05.2019 17:32 17,0 C 16,1 C 21,1 C 55 % 1016,1 hPa 0,0 l/m 2,6 km/h (1 Bft) W 267 0 min 0,000 mm 0,8 UV-I 257 W/m 7,9 C 17,0 C 4,8 km/h (1 Bft) 98,00 %
23.05.2019 17:34 17,1 C 16,1 C 21,1 C 53 % 1016,1 hPa 0,0 l/m 2,0 km/h (1 Bft) W 268 2 min 0,000 mm 0,8 UV-I 271 W/m 7,4 C 17,1 C 4,8 km/h (1 Bft) 95,74 %
23.05.2019 17:36 17,1 C 16,1 C 21,7 C 55 % 1016,1 hPa 0,0 l/m 2,5 km/h (1 Bft) W 269 2 min 0,000 mm 0,8 UV-I 275 W/m 8,0 C 17,1 C 4,8 km/h (1 Bft) 97,87 %
23.05.2019 17:38 17,2 C 16,1 C 22,2 C 57 % 1016,1 hPa 0,0 l/m 3,9 km/h (1 Bft) W 281 2 min 0,000 mm 0,9 UV-I 294 W/m 8,6 C 17,2 C 11,3 km/h (2 Bft) 97,87 %
23.05.2019 17:40 17,2 C 16,1 C 22,2 C 52 % 1016,0 hPa 0,0 l/m 5,7 km/h (1 Bft) W 259 2 min 0,000 mm 0,9 UV-I 305 W/m 7,3 C 17,2 C 8,0 km/h (2 Bft) 97,87 %
23.05.2019 17:42 17,3 C 16,1 C 22,8 C 55 % 1016,0 hPa 0,0 l/m 2,6 km/h (1 Bft) N 355 2 min 0,000 mm 0,9 UV-I 331 W/m 8,2 C 17,3 C 4,8 km/h (1 Bft) 97,37 %
23.05.2019 17:44 17,4 C 16,1 C 23,3 C 53 % 1016,0 hPa 0,0 l/m 6,9 km/h (2 Bft) W 265 2 min 0,000 mm 0,9 UV-I 345 W/m 7,7 C 17,2 C 11,3 km/h (2 Bft) 95,74 %
23.05.2019 17:46 17,4 C 16,1 C 23,3 C 50 % 1016,0 hPa 0,0 l/m 6,7 km/h (2 Bft) W-SW 249 2 min 0,000 mm 0,8 UV-I 314 W/m 6,9 C 17,3 C 11,3 km/h (2 Bft) 93,62 %
23.05.2019 17:48 17,5 C 16,1 C 23,3 C 51 % 1016,0 hPa 0,0 l/m 6,1 km/h (2 Bft) W-SW 252 2 min 0,000 mm 0,8 UV-I 301 W/m 7,3 C 17,5 C 12,9 km/h (3 Bft) 93,62 %
23.05.2019 17:50 17,6 C 16,1 C 22,8 C 51 % 1015,9 hPa 0,0 l/m 7,2 km/h (2 Bft) W-SW 255 2 min 0,000 mm 0,8 UV-I 288 W/m 7,3 C 17,2 C 12,9 km/h (3 Bft) 97,87 %
23.05.2019 17:52 17,6 C 16,1 C 22,8 C 51 % 1015,9 hPa 0,0 l/m 3,5 km/h (1 Bft) W-SW 237 2 min 0,000 mm 0,8 UV-I 277 W/m 7,3 C 17,6 C 6,4 km/h (2 Bft) 95,74 %
23.05.2019 17:54 17,6 C 16,1 C 22,8 C 50 % 1015,9 hPa 0,0 l/m 4,1 km/h (1 Bft) W-SW 242 2 min 0,000 mm 0,8 UV-I 266 W/m 7,1 C 17,6 C 6,4 km/h (2 Bft) 97,92 %
23.05.2019 17:56 17,6 C 16,1 C 22,2 C 57 % 1015,9 hPa 0,0 l/m 2,8 km/h (1 Bft) W-SW 244 2 min 0,000 mm 0,8 UV-I 254 W/m 9,0 C 17,6 C 4,8 km/h (1 Bft) 100,00 %
23.05.2019 17:58 17,6 C 16,1 C 22,2 C 56 % 1015,9 hPa 0,0 l/m 6,1 km/h (2 Bft) W-NW 288 0 min 0,000 mm 0,7 UV-I 228 W/m 8,7 C 17,6 C 9,7 km/h (2 Bft) 97,87 %
23.05.2019 18:00 17,5 C 16,1 C 21,7 C 52 % 1015,9 hPa 0,0 l/m 4,4 km/h (1 Bft) W-SW 248 2 min 0,177 mm 0,7 UV-I 234 W/m 7,5 C 17,5 C 6,4 km/h (2 Bft) 93,62 %
23.05.2019 18:02 17,5 C 16,1 C 21,7 C 51 % 1015,9 hPa 0,0 l/m 4,3 km/h (1 Bft) W 268 2 min 0,000 mm 0,7 UV-I 232 W/m 7,3 C 17,5 C 9,7 km/h (2 Bft) 98,00 %
23.05.2019 18:04 17,5 C 16,1 C 21,1 C 51 % 1015,8 hPa 0,0 l/m 5,0 km/h (1 Bft) NW 309 2 min 0,000 mm 0,7 UV-I 229 W/m 7,3 C 17,5 C 9,7 km/h (2 Bft) 95,74 %
23.05.2019 18:06 17,4 C 16,1 C 21,1 C 51 % 1015,9 hPa 0,0 l/m 5,5 km/h (1 Bft) W-NW 290 2 min 0,000 mm 0,7 UV-I 229 W/m 7,2 C 17,4 C 11,3 km/h (2 Bft) 95,74 %
23.05.2019 18:08 17,5 C 16,1 C 21,7 C 52 % 1015,8 hPa 0,0 l/m 4,9 km/h (1 Bft) W-NW 300 2 min 0,000 mm 0,7 UV-I 243 W/m 7,5 C 17,5 C 9,7 km/h (2 Bft) 98,00 %
23.05.2019 18:10 17,6 C 16,1 C 23,3 C 50 % 1015,8 hPa 0,0 l/m 4,4 km/h (1 Bft) W-SW 247 2 min 0,000 mm 0,7 UV-I 348 W/m 7,1 C 17,6 C 8,0 km/h (2 Bft) 97,87 %
23.05.2019 18:12 17,7 C 16,1 C 23,3 C 53 % 1015,8 hPa 0,0 l/m 3,4 km/h (1 Bft) W-NW 290 2 min 0,000 mm 0,7 UV-I 294 W/m 8,0 C 17,7 C 6,4 km/h (2 Bft) 97,37 %
23.05.2019 18:14 17,7 C 16,1 C 24,4 C 52 % 1015,8 hPa 0,0 l/m 4,1 km/h (1 Bft) NW 304 2 min 0,000 mm 0,7 UV-I 376 W/m 7,7 C 17,7 C 8,0 km/h (2 Bft) 97,87 %
23.05.2019 18:16 17,8 C 16,1 C 26,1 C 49 % 1015,8 hPa 0,0 l/m 4,5 km/h (1 Bft) SW 229 2 min 0,000 mm 0,7 UV-I 401 W/m 6,9 C 17,8 C 6,4 km/h (2 Bft) 95,74 %
23.05.2019 18:18 18,0 C 16,1 C 26,1 C 50 % 1015,8 hPa 0,0 l/m 2,9 km/h (1 Bft) W-SW 242 2 min 0,000 mm 0,7 UV-I 349 W/m 7,4 C 18,0 C 8,0 km/h (2 Bft) 97,87 %
23.05.2019 18:20 18,2 C 16,1 C 26,7 C 51 % 1015,8 hPa 0,0 l/m 2,9 km/h (1 Bft) W-SW 245 2 min 0,000 mm 0,7 UV-I 334 W/m 7,9 C 18,2 C 8,0 km/h (2 Bft) 97,87 %
23.05.2019 18:22 18,3 C 16,1 C 27,2 C 48 % 1015,7 hPa 0,0 l/m 1,2 km/h (1 Bft) W-SW 245 2 min 0,000 mm 0,7 UV-I 386 W/m 7,1 C 18,3 C 3,2 km/h (1 Bft) 97,87 %
23.05.2019 18:24 18,3 C 16,1 C 27,8 C 49 % 1015,8 hPa 0,0 l/m 4,0 km/h (1 Bft) NW 306 2 min 0,000 mm 0,7 UV-I 372 W/m 7,4 C 18,3 C 11,3 km/h (2 Bft) 100,00 %
23.05.2019 18:26 18,3 C 16,1 C 27,8 C 46 % 1015,8 hPa 0,0 l/m 6,1 km/h (2 Bft) W-SW 250 2 min 0,000 mm 0,6 UV-I 379 W/m 6,5 C 18,3 C 9,7 km/h (2 Bft) 100,00 %
23.05.2019 18:28 18,3 C 16,1 C 26,7 C 44 % 1015,8 hPa 0,0 l/m 7,0 km/h (2 Bft) W-SW 256 2 min 0,000 mm 0,6 UV-I 376 W/m 5,8 C 18,0 C 12,9 km/h (3 Bft) 97,87 %
23.05.2019 18:30 18,2 C 16,1 C 26,1 C 44 % 1015,8 hPa 0,0 l/m 12,0 km/h (2 Bft) W 281 2 min 0,000 mm 0,6 UV-I 343 W/m 5,7 C 16,0 C 14,5 km/h (3 Bft) 100,00 %
23.05.2019 18:32 18,1 C 16,1 C 26,1 C 44 % 1015,8 hPa 0,0 l/m 8,1 km/h (2 Bft) NW 317 2 min 0,000 mm 0,6 UV-I 343 W/m 5,7 C 17,3 C 12,9 km/h (3 Bft) 100,00 %
23.05.2019 18:34 18,1 C 16,1 C 26,1 C 46 % 1015,8 hPa 0,0 l/m 3,7 km/h (1 Bft) W-SW 246 2 min 0,000 mm 0,6 UV-I 346 W/m 6,3 C 18,1 C 6,4 km/h (2 Bft) 97,87 %
23.05.2019 18:36 18,2 C 16,1 C 26,7 C 44 % 1015,8 hPa 0,0 l/m 3,8 km/h (1 Bft) NW 306 2 min 0,000 mm 0,6 UV-I 336 W/m 5,7 C 18,2 C 11,3 km/h (2 Bft) 97,87 %
23.05.2019 18:38 18,2 C 16,1 C 26,7 C 46 % 1015,8 hPa 0,0 l/m 4,1 km/h (1 Bft) W 275 2 min 0,000 mm 0,5 UV-I 321 W/m 6,4 C 18,2 C 9,7 km/h (2 Bft) 100,00 %
23.05.2019 18:40 18,2 C 16,1 C 26,7 C 43 % 1015,8 hPa 0,0 l/m 5,9 km/h (2 Bft) W-SW 254 2 min 0,000 mm 0,5 UV-I 308 W/m 5,4 C 18,2 C 11,3 km/h (2 Bft) 100,00 %
23.05.2019 18:42 18,2 C 16,1 C 26,7 C 45 % 1015,8 hPa 0,0 l/m 3,2 km/h (1 Bft) W 271 2 min 0,000 mm 0,5 UV-I 297 W/m 6,1 C 18,2 C 8,0 km/h (2 Bft) 98,00 %
23.05.2019 18:44 18,2 C 16,1 C 26,7 C 46 % 1015,8 hPa 0,0 l/m 6,5 km/h (2 Bft) W 274 2 min 0,000 mm 0,5 UV-I 284 W/m 6,4 C 18,2 C 14,5 km/h (3 Bft) 100,00 %
23.05.2019 18:46 18,2 C 16,1 C 26,1 C 45 % 1015,8 hPa 0,0 l/m 4,9 km/h (1 Bft) W 262 2 min 0,000 mm 0,5 UV-I 268 W/m 6,1 C 18,2 C 8,0 km/h (2 Bft) 100,00 %
23.05.2019 18:48 18,2 C 16,1 C 26,1 C 45 % 1015,8 hPa 0,0 l/m 4,7 km/h (1 Bft) W-SW 239 2 min 0,000 mm 0,3 UV-I 259 W/m 6,1 C 18,2 C 8,0 km/h (2 Bft) 97,87 %
23.05.2019 18:50 18,2 C 16,1 C 26,7 C 46 % 1015,8 hPa 0,0 l/m 2,8 km/h (1 Bft) W-SW 239 2 min 0,000 mm 0,0 UV-I 252 W/m 6,4 C 18,2 C 4,8 km/h (1 Bft) 100,00 %
23.05.2019 18:52 18,3 C 16,1 C 26,1 C 47 % 1015,8 hPa 0,0 l/m 3,5 km/h (1 Bft) W 267 2 min 0,000 mm 0,0 UV-I 226 W/m 6,8 C 18,3 C 6,4 km/h (2 Bft) 95,74 %
23.05.2019 18:54 18,3 C 16,1 C 25,6 C 46 % 1015,8 hPa 0,0 l/m 3,6 km/h (1 Bft) W 267 2 min 0,000 mm 0,0 UV-I 230 W/m 6,5 C 18,3 C 6,4 km/h (2 Bft) 100,00 %
23.05.2019 18:56 18,3 C 16,1 C 25,6 C 47 % 1015,8 hPa 0,0 l/m 2,5 km/h (1 Bft) W 270 2 min 0,000 mm 0,0 UV-I 218 W/m 6,8 C 18,3 C 4,8 km/h (1 Bft) 100,00 %
23.05.2019 18:58 18,2 C 16,1 C 25,0 C 47 % 1015,8 hPa 0,0 l/m 6,2 km/h (2 Bft) W-SW 257 2 min 0,000 mm 0,0 UV-I 214 W/m 6,7 C 18,2 C 11,3 km/h (2 Bft) 100,00 %
23.05.2019 19:00 18,1 C 16,1 C 24,4 C 46 % 1015,8 hPa 0,0 l/m 7,9 km/h (2 Bft) W-SW 246 2 min 0,000 mm 0,0 UV-I 220 W/m 6,3 C 17,4 C 12,9 km/h (3 Bft) 100,00 %
23.05.2019 19:02 18,0 C 16,1 C 23,9 C 46 % 1015,8 hPa 0,0 l/m 10,0 km/h (2 Bft) W-SW 237 2 min 0,204 mm 0,0 UV-I 204 W/m 6,2 C 16,4 C 14,5 km/h (3 Bft) 100,00 %
23.05.2019 19:04 17,9 C 16,1 C 23,3 C 46 % 1015,8 hPa 0,0 l/m 8,1 km/h (2 Bft) W-SW 246 2 min 0,000 mm 0,0 UV-I 205 W/m 6,1 C 17,1 C 14,5 km/h (3 Bft) 100,00 %
23.05.2019 19:06 17,9 C 16,1 C 22,8 C 46 % 1015,8 hPa 0,0 l/m 6,0 km/h (2 Bft) W-SW 249 2 min 0,000 mm 0,0 UV-I 201 W/m 6,1 C 17,9 C 11,3 km/h (2 Bft) 97,87 %
23.05.2019 19:08 17,9 C 16,1 C 22,8 C 48 % 1015,8 hPa 0,0 l/m 4,8 km/h (1 Bft) W-SW 256 2 min 0,000 mm 0,0 UV-I 179 W/m 6,7 C 17,9 C 8,0 km/h (2 Bft) 95,74 %
23.05.2019 19:10 17,9 C 16,1 C 22,2 C 48 % 1015,8 hPa 0,0 l/m 3,8 km/h (1 Bft) W-NW 290 2 min 0,000 mm 0,0 UV-I 142 W/m 6,7 C 17,9 C 4,8 km/h (1 Bft) 95,74 %
23.05.2019 19:12 17,8 C 16,1 C 21,7 C 50 % 1015,8 hPa 0,0 l/m 3,1 km/h (1 Bft) W-NW 302 2 min 0,000 mm 0,0 UV-I 130 W/m 7,2 C 17,8 C 4,8 km/h (1 Bft) 100,00 %
23.05.2019 19:14 17,7 C 16,1 C 21,1 C 49 % 1015,8 hPa 0,0 l/m 2,3 km/h (1 Bft) W-NW 300 0 min 0,000 mm 0,0 UV-I 119 W/m 6,9 C 17,7 C 4,8 km/h (1 Bft) 100,00 %
23.05.2019 19:16 17,7 C 16,1 C 20,6 C 51 % 1015,7 hPa 0,0 l/m 1,3 km/h (1 Bft) W-NW 300 2 min 0,000 mm 0,0 UV-I 142 W/m 7,4 C 17,7 C 3,2 km/h (1 Bft) 97,87 %
23.05.2019 19:18 17,7 C 16,1 C 21,1 C 51 % 1015,7 hPa 0,0 l/m 2,4 km/h (1 Bft) W-SW 238 2 min 0,000 mm 0,0 UV-I 160 W/m 7,4 C 17,7 C 4,8 km/h (1 Bft) 96,00 %
23.05.2019 19:20 17,7 C 16,1 C 21,1 C 50 % 1015,7 hPa 0,0 l/m 4,2 km/h (1 Bft) W 263 2 min 0,000 mm 0,0 UV-I 148 W/m 7,1 C 17,7 C 9,7 km/h (2 Bft) 95,74 %
23.05.2019 19:22 17,7 C 16,1 C 21,1 C 51 % 1015,7 hPa 0,0 l/m 2,8 km/h (1 Bft) W 263 2 min 0,000 mm 0,0 UV-I 147 W/m 7,4 C 17,7 C 4,8 km/h (1 Bft) 95,74 %
23.05.2019 19:24 17,7 C 16,1 C 21,1 C 52 % 1015,7 hPa 0,0 l/m 4,2 km/h (1 Bft) W 260 2 min 0,000 mm 0,0 UV-I 147 W/m 7,7 C 17,7 C 6,4 km/h (2 Bft) 97,14 %
23.05.2019 19:26 17,7 C 16,1 C 21,1 C 52 % 1015,7 hPa 0,0 l/m 4,9 km/h (1 Bft) W-NW 283 2 min 0,000 mm 0,0 UV-I 141 W/m 7,7 C 17,7 C 8,0 km/h (2 Bft) 94,55 %
23.05.2019 19:28 17,7 C 16,1 C 20,6 C 50 % 1015,7 hPa 0,0 l/m 6,0 km/h (2 Bft) W-SW 254 2 min 0,000 mm 0,0 UV-I 146 W/m 7,1 C 17,7 C 11,3 km/h (2 Bft) 93,62 %
23.05.2019 19:30 17,6 C 16,1 C 20,0 C 49 % 1015,6 hPa 0,0 l/m 7,6 km/h (2 Bft) W-NW 296 2 min 0,000 mm 0,0 UV-I 140 W/m 6,8 C 17,0 C 11,3 km/h (2 Bft) 93,62 %
23.05.2019 19:32 17,6 C 16,1 C 20,0 C 49 % 1015,6 hPa 0,0 l/m 3,6 km/h (1 Bft) W 259 2 min 0,000 mm 0,0 UV-I 140 W/m 6,8 C 17,6 C 6,4 km/h (2 Bft) 91,49 %
23.05.2019 19:34 17,6 C 16,1 C 19,4 C 49 % 1015,6 hPa 0,0 l/m 3,4 km/h (1 Bft) W-SW 257 2 min 0,000 mm 0,0 UV-I 134 W/m 6,8 C 17,6 C 6,4 km/h (2 Bft) 86,00 %
23.05.2019 19:36 17,5 C 16,1 C 19,4 C 53 % 1015,6 hPa 0,0 l/m 1,1 km/h (1 Bft) W-SW 257 2 min 0,000 mm 0,0 UV-I 127 W/m 7,8 C 17,5 C 1,6 km/h (1 Bft) 89,47 %
23.05.2019 19:39 17,4 C 16,1 C 18,9 C 51 % 1015,6 hPa 0,0 l/m 2,3 km/h (1 Bft) W 259 3 min 0,000 mm 0,0 UV-I 120 W/m 7,2 C 17,4 C 4,8 km/h (1 Bft) 93,24 %
23.05.2019 19:40 17,4 C 16,1 C 18,9 C 51 % 1015,6 hPa 0,0 l/m 2,8 km/h (1 Bft) W-SW 256 1 min 0,000 mm 0,0 UV-I 114 W/m 7,2 C 17,4 C 4,8 km/h (1 Bft) 95,65 %
23.05.2019 19:42 17,3 C 16,1 C 18,9 C 51 % 1015,6 hPa 0,0 l/m 1,3 km/h (1 Bft) W-SW 256 2 min 0,000 mm 0,0 UV-I 112 W/m 7,1 C 17,3 C 4,8 km/h (1 Bft) 89,36 %
23.05.2019 19:44 17,3 C 16,1 C 18,3 C 52 % 1015,6 hPa 0,0 l/m 2,6 km/h (1 Bft) W 265 2 min 0,000 mm 0,0 UV-I 107 W/m 7,3 C 17,3 C 4,8 km/h (1 Bft) 93,62 %
23.05.2019 19:46 17,3 C 16,1 C 18,3 C 53 % 1015,6 hPa 0,0 l/m 4,0 km/h (1 Bft) W 264 2 min 0,000 mm 0,0 UV-I 104 W/m 7,6 C 17,3 C 6,4 km/h (2 Bft) 93,62 %
23.05.2019 19:49 17,2 C 16,1 C 17,8 C 53 % 1015,6 hPa 0,0 l/m 3,4 km/h (1 Bft) W 275 3 min 0,000 mm 0,0 UV-I 98 W/m 7,5 C 17,2 C 4,8 km/h (1 Bft) 90,14 %
23.05.2019 19:50 17,2 C 16,1 C 17,8 C 54 % 1015,6 hPa 0,0 l/m 3,7 km/h (1 Bft) W-NW 290 1 min 0,000 mm 0,0 UV-I 93 W/m 7,8 C 17,2 C 8,0 km/h (2 Bft) 91,67 %
23.05.2019 19:52 17,1 C 16,1 C 17,2 C 54 % 1015,6 hPa 0,0 l/m 4,5 km/h (1 Bft) W 278 2 min 0,000 mm 0,0 UV-I 88 W/m 7,7 C 17,1 C 8,0 km/h (2 Bft) 95,74 %
23.05.2019 19:54 17,1 C 16,1 C 17,2 C 53 % 1015,6 hPa 0,0 l/m 3,6 km/h (1 Bft) NW 304 2 min 0,000 mm 0,0 UV-I 85 W/m 7,4 C 17,1 C 6,4 km/h (2 Bft) 93,62 %
23.05.2019 19:56 17,0 C 16,1 C 16,7 C 54 % 1015,6 hPa 0,0 l/m 4,2 km/h (1 Bft) W-SW 246 2 min 0,000 mm 0,0 UV-I 83 W/m 7,6 C 17,0 C 6,4 km/h (2 Bft) 97,87 %
23.05.2019 19:59 16,9 C 16,1 C 16,1 C 53 % 1015,6 hPa 0,0 l/m 5,1 km/h (1 Bft) W-SW 254 3 min 0,000 mm 0,0 UV-I 79 W/m 7,3 C 16,9 C 9,7 km/h (2 Bft) 97,01 %
23.05.2019 20:00 16,9 C 16,1 C 16,1 C 53 % 1015,6 hPa 0,0 l/m 5,7 km/h (1 Bft) W 274 1 min 0,000 mm 0,0 UV-I 75 W/m 7,3 C 16,9 C 9,7 km/h (2 Bft) 100,00 %
23.05.2019 20:02 16,8 C 16,1 C 15,6 C 54 % 1015,6 hPa 0,0 l/m 5,8 km/h (2 Bft) W 263 2 min 0,101 mm 0,0 UV-I 71 W/m 7,4 C 16,8 C 9,7 km/h (2 Bft) 97,87 %
23.05.2019 20:04 16,7 C 16,1 C 15,6 C 53 % 1015,6 hPa 0,0 l/m 4,7 km/h (1 Bft) W 259 2 min 0,000 mm 0,0 UV-I 66 W/m 7,1 C 16,7 C 6,4 km/h (2 Bft) 95,74 %
23.05.2019 20:06 16,7 C 16,1 C 15,0 C 53 % 1015,6 hPa 0,0 l/m 5,4 km/h (1 Bft) W 267 2 min 0,000 mm 0,0 UV-I 63 W/m 7,1 C 16,7 C 8,0 km/h (2 Bft) 95,74 %
23.05.2019 20:08 16,6 C 16,1 C 15,0 C 54 % 1015,7 hPa 0,0 l/m 4,6 km/h (1 Bft) W 267 2 min 0,000 mm 0,0 UV-I 52 W/m 7,3 C 16,6 C 6,4 km/h (2 Bft) 97,87 %
23.05.2019 20:10 16,6 C 16,1 C 14,4 C 55 % 1015,7 hPa 0,0 l/m 4,7 km/h (1 Bft) W 261 2 min 0,000 mm 0,0 UV-I 44 W/m 7,5 C 16,6 C 9,7 km/h (2 Bft) 98,00 %
23.05.2019 20:12 16,5 C 16,1 C 14,4 C 54 % 1015,7 hPa 0,0 l/m 5,9 km/h (2 Bft) W-SW 258 2 min 0,000 mm 0,0 UV-I 40 W/m 7,2 C 16,5 C 11,3 km/h (2 Bft) 97,87 %
23.05.2019 20:14 16,3 C 16,1 C 13,9 C 55 % 1015,7 hPa 0,0 l/m 5,1 km/h (1 Bft) W-SW 253 2 min 0,000 mm 0,0 UV-I 40 W/m 7,2 C 16,3 C 9,7 km/h (2 Bft) 97,87 %
23.05.2019 20:16 16,3 C 16,1 C 13,9 C 55 % 1015,7 hPa 0,0 l/m 4,7 km/h (1 Bft) W 266 2 min 0,000 mm 0,0 UV-I 40 W/m 7,2 C 16,3 C 6,4 km/h (2 Bft) 98,00 %
23.05.2019 20:18 16,2 C 16,1 C 13,9 C 55 % 1015,7 hPa 0,0 l/m 6,2 km/h (2 Bft) W-SW 248 2 min 0,000 mm 0,0 UV-I 38 W/m 7,2 C 16,2 C 8,0 km/h (2 Bft) 97,37 %
23.05.2019 20:20 16,1 C 16,1 C 13,3 C 56 % 1015,7 hPa 0,0 l/m 4,8 km/h (1 Bft) W 261 2 min 0,000 mm 0,0 UV-I 31 W/m 7,3 C 16,1 C 6,4 km/h (2 Bft) 97,87 %
23.05.2019 20:22 16,1 C 16,1 C 13,3 C 56 % 1015,7 hPa 0,0 l/m 4,8 km/h (1 Bft) W 260 2 min 0,000 mm 0,0 UV-I 27 W/m 7,3 C 16,1 C 6,4 km/h (2 Bft) 97,87 %
23.05.2019 20:24 16,0 C 16,1 C 12,8 C 56 % 1015,8 hPa 0,0 l/m 4,8 km/h (1 Bft) W 262 2 min 0,000 mm 0,0 UV-I 25 W/m 7,2 C 16,0 C 6,4 km/h (2 Bft) 97,87 %
23.05.2019 20:26 15,8 C 16,1 C 12,8 C 57 % 1015,7 hPa 0,0 l/m 5,3 km/h (1 Bft) W-SW 257 2 min 0,000 mm 0,0 UV-I 21 W/m 7,3 C 15,8 C 9,7 km/h (2 Bft) 93,75 %
23.05.2019 20:28 15,8 C 16,1 C 12,8 C 57 % 1015,7 hPa 0,0 l/m 3,5 km/h (1 Bft) W-SW 257 2 min 0,000 mm 0,0 UV-I 19 W/m 7,3 C 15,8 C 4,8 km/h (1 Bft) 93,62 %
23.05.2019 20:30 15,7 C 16,1 C 12,2 C 58 % 1015,8 hPa 0,0 l/m 3,4 km/h (1 Bft) W-SW 258 2 min 0,000 mm 0,0 UV-I 17 W/m 7,5 C 15,7 C 4,8 km/h (1 Bft) 95,74 %
23.05.2019 20:32 15,6 C 16,1 C 12,2 C 58 % 1015,8 hPa 0,0 l/m 3,2 km/h (1 Bft) W-SW 257 2 min 0,000 mm 0,0 UV-I 16 W/m 7,4 C 15,6 C 4,8 km/h (1 Bft) 97,87 %
23.05.2019 20:34 15,5 C 16,1 C 11,7 C 58 % 1015,7 hPa 0,0 l/m 3,3 km/h (1 Bft) W-SW 257 0 min 0,000 mm 0,0 UV-I 14 W/m 7,3 C 15,5 C 4,8 km/h (1 Bft) 97,87 %
23.05.2019 20:36 15,4 C 16,1 C 11,1 C 59 % 1015,8 hPa 0,0 l/m 3,1 km/h (1 Bft) W-SW 257 0 min 0,000 mm 0,0 UV-I 13 W/m 7,4 C 15,4 C 4,8 km/h (1 Bft) 95,74 %
23.05.2019 20:39 15,3 C 16,1 C 11,1 C 60 % 1015,8 hPa 0,0 l/m 2,2 km/h (1 Bft) W-SW 258 0 min 0,000 mm 0,0 UV-I 11 W/m 7,6 C 15,3 C 3,2 km/h (1 Bft) 95,89 %
23.05.2019 20:40 15,3 C 16,1 C 11,7 C 59 % 1015,8 hPa 0,0 l/m 1,9 km/h (1 Bft) W-SW 258 0 min 0,000 mm 0,0 UV-I 11 W/m 7,3 C 15,3 C 3,2 km/h (1 Bft) 100,00 %
23.05.2019 20:42 15,2 C 16,1 C 11,1 C 62 % 1015,8 hPa 0,0 l/m 1,6 km/h (1 Bft) W-SW 258 0 min 0,000 mm 0,0 UV-I 10 W/m 8,0 C 15,2 C 3,2 km/h (1 Bft) 93,62 %
23.05.2019 20:44 14,8 C 16,1 C 11,1 C 64 % 1015,8 hPa 0,0 l/m 0,4 km/h (0 Bft) W-SW 258 0 min 0,000 mm 0,0 UV-I 9 W/m 8,1 C 14,8 C 1,6 km/h (1 Bft) 96,00 %
23.05.2019 20:46 14,5 C 16,1 C 10,6 C 66 % 1015,8 hPa 0,0 l/m 0,0 km/h (0 Bft) W-SW 258 0 min 0,000 mm 0,0 UV-I 7 W/m 8,2 C 14,5 C 0,0 km/h (0 Bft) 97,37 %
23.05.2019 20:48 14,2 C 16,1 C 10,6 C 67 % 1015,8 hPa 0,0 l/m 0,0 km/h (0 Bft) W-SW 258 0 min 0,000 mm 0,0 UV-I 7 W/m 8,2 C 14,2 C 0,0 km/h (0 Bft) 97,87 %
23.05.2019 20:50 14,0 C 16,1 C 10,0 C 68 % 1015,8 hPa 0,0 l/m 0,4 km/h (0 Bft) W-SW 258 0 min 0,000 mm 0,0 UV-I 6 W/m 8,2 C 14,0 C 1,6 km/h (1 Bft) 95,74 %
23.05.2019 20:52 13,8 C 16,1 C 10,0 C 68 % 1015,9 hPa 0,0 l/m 1,3 km/h (1 Bft) W-SW 258 0 min 0,000 mm 0,0 UV-I 5 W/m 8,0 C 13,8 C 3,2 km/h (1 Bft) 96,00 %
23.05.2019 20:54 13,7 C 16,1 C 9,4 C 69 % 1015,9 hPa 0,0 l/m 1,7 km/h (1 Bft) W-SW 258 0 min 0,000 mm 0,0 UV-I 5 W/m 8,1 C 13,7 C 3,2 km/h (1 Bft) 98,00 %
23.05.2019 20:56 13,5 C 16,1 C 9,4 C 71 % 1015,9 hPa 0,0 l/m 1,9 km/h (1 Bft) W-SW 258 0 min 0,000 mm 0,0 UV-I 5 W/m 8,3 C 13,5 C 3,2 km/h (1 Bft) 97,87 %
23.05.2019 20:58 13,2 C 16,1 C 9,4 C 73 % 1015,9 hPa 0,0 l/m 2,4 km/h (1 Bft) W-SW 258 0 min 0,000 mm 0,0 UV-I 5 W/m 8,5 C 13,2 C 3,2 km/h (1 Bft) 97,87 %
23.05.2019 21:00 12,9 C 16,1 C 9,4 C 74 % 1015,9 hPa 0,0 l/m 2,5 km/h (1 Bft) W-SW 258 0 min 0,026 mm 0,0 UV-I 4 W/m 8,4 C 12,9 C 3,2 km/h (1 Bft) 97,44 %
23.05.2019 21:02 12,8 C 16,1 C 8,9 C 76 % 1015,9 hPa 0,0 l/m 2,8 km/h (1 Bft) W-SW 258 0 min 0,000 mm 0,0 UV-I 0 W/m 8,7 C 12,8 C 3,2 km/h (1 Bft) 97,87 %
23.05.2019 21:04 12,7 C 16,1 C 8,9 C 77 % 1015,9 hPa 0,0 l/m 3,0 km/h (1 Bft) W-SW 246 0 min 0,000 mm 0,0 UV-I 0 W/m 8,8 C 12,7 C 3,2 km/h (1 Bft) 95,74 %
23.05.2019 21:06 12,4 C 16,1 C 8,9 C 77 % 1016,0 hPa 0,0 l/m 2,9 km/h (1 Bft) W-SW 246 0 min 0,000 mm 0,0 UV-I 0 W/m 8,5 C 12,4 C 3,2 km/h (1 Bft) 98,11 %
23.05.2019 21:08 12,3 C 16,1 C 8,9 C 79 % 1016,0 hPa 0,0 l/m 2,8 km/h (1 Bft) W-SW 246 0 min 0,000 mm 0,0 UV-I 0 W/m 8,8 C 12,3 C 3,2 km/h (1 Bft) 97,87 %
23.05.2019 21:10 12,1 C 16,1 C 8,9 C 80 % 1016,0 hPa 0,0 l/m 3,0 km/h (1 Bft) W-SW 246 0 min 0,000 mm 0,0 UV-I 0 W/m 8,8 C 12,1 C 3,2 km/h (1 Bft) 96,00 %
23.05.2019 21:12 11,9 C 16,1 C 8,9 C 80 % 1016,1 hPa 0,0 l/m 3,0 km/h (1 Bft) W-SW 238 0 min 0,000 mm 0,0 UV-I 0 W/m 8,6 C 11,9 C 4,8 km/h (1 Bft) 97,87 %
23.05.2019 21:14 11,8 C 16,1 C 8,9 C 80 % 1016,1 hPa 0,0 l/m 3,6 km/h (1 Bft) SW 227 0 min 0,000 mm 0,0 UV-I 0 W/m 8,5 C 11,8 C 4,8 km/h (1 Bft) 97,87 %
23.05.2019 21:16 11,8 C 16,1 C 8,3 C 80 % 1016,1 hPa 0,0 l/m 2,9 km/h (1 Bft) SW 227 0 min 0,000 mm 0,0 UV-I 0 W/m 8,5 C 11,8 C 4,8 km/h (1 Bft) 95,74 %
23.05.2019 21:19 11,8 C 16,1 C 8,3 C 80 % 1016,1 hPa 0,0 l/m 3,3 km/h (1 Bft) SW 227 0 min 0,000 mm 0,0 UV-I 0 W/m 8,5 C 11,8 C 4,8 km/h (1 Bft) 98,57 %
23.05.2019 21:20 11,9 C 16,1 C 8,3 C 80 % 1016,1 hPa 0,0 l/m 4,2 km/h (1 Bft) SW 227 0 min 0,000 mm 0,0 UV-I 0 W/m 8,6 C 11,9 C 4,8 km/h (1 Bft) 93,33 %
23.05.2019 21:22 11,9 C 16,1 C 8,3 C 79 % 1016,2 hPa 0,0 l/m 3,9 km/h (1 Bft) SW 227 0 min 0,000 mm 0,0 UV-I 0 W/m 8,4 C 11,9 C 4,8 km/h (1 Bft) 97,87 %
23.05.2019 21:24 12,0 C 16,1 C 8,3 C 79 % 1016,2 hPa 0,0 l/m 3,7 km/h (1 Bft) SW 227 0 min 0,000 mm 0,0 UV-I 0 W/m 8,5 C 12,0 C 4,8 km/h (1 Bft) 95,74 %
23.05.2019 21:26 11,9 C 16,1 C 8,3 C 79 % 1016,2 hPa 0,0 l/m 4,0 km/h (1 Bft) SW 227 0 min 0,000 mm 0,0 UV-I 0 W/m 8,4 C 11,9 C 4,8 km/h (1 Bft) 97,87 %
23.05.2019 21:28 11,8 C 16,1 C 8,3 C 79 % 1016,2 hPa 0,0 l/m 3,5 km/h (1 Bft) SW 227 0 min 0,000 mm 0,0 UV-I 0 W/m 8,3 C 11,8 C 4,8 km/h (1 Bft) 94,00 %
23.05.2019 21:30 11,6 C 16,1 C 8,3 C 79 % 1016,2 hPa 0,0 l/m 4,2 km/h (1 Bft) SW 226 0 min 0,000 mm 0,0 UV-I 0 W/m 8,1 C 11,6 C 6,4 km/h (2 Bft) 97,87 %
23.05.2019 21:32 11,5 C 16,1 C 8,3 C 79 % 1016,2 hPa 0,0 l/m 4,7 km/h (1 Bft) S-SW 211 0 min 0,000 mm 0,0 UV-I 0 W/m 8,0 C 11,5 C 6,4 km/h (2 Bft) 98,00 %
23.05.2019 21:34 11,5 C 16,1 C 8,3 C 79 % 1016,3 hPa 0,0 l/m 4,6 km/h (1 Bft) S-SW 211 0 min 0,000 mm 0,0 UV-I 0 W/m 8,0 C 11,5 C 4,8 km/h (1 Bft) 97,37 %
23.05.2019 21:36 11,5 C 16,1 C 8,3 C 79 % 1016,2 hPa 0,0 l/m 4,2 km/h (1 Bft) S-SW 211 0 min 0,000 mm 0,0 UV-I 0 W/m 8,0 C 11,5 C 4,8 km/h (1 Bft) 96,00 %
23.05.2019 21:39 11,7 C 16,1 C 8,3 C 79 % 1016,2 hPa 0,0 l/m 3,7 km/h (1 Bft) S-SW 211 0 min 0,000 mm 0,0 UV-I 0 W/m 8,2 C 11,7 C 4,8 km/h (1 Bft) 97,30 %
23.05.2019 21:40 11,7 C 16,1 C 8,3 C 79 % 1016,2 hPa 0,0 l/m 3,7 km/h (1 Bft) S-SW 211 0 min 0,000 mm 0,0 UV-I 0 W/m 8,2 C 11,7 C 4,8 km/h (1 Bft) 92,31 %
23.05.2019 21:42 11,7 C 16,1 C 8,3 C 79 % 1016,2 hPa 0,0 l/m 3,3 km/h (1 Bft) S-SW 211 0 min 0,000 mm 0,0 UV-I 0 W/m 8,2 C 11,7 C 4,8 km/h (1 Bft) 94,87 %
23.05.2019 21:44 11,5 C 16,1 C 8,3 C 80 % 1016,2 hPa 0,0 l/m 2,8 km/h (1 Bft) S-SW 211 0 min 0,000 mm 0,0 UV-I 0 W/m 8,2 C 11,5 C 3,2 km/h (1 Bft) 97,87 %
23.05.2019 21:46 11,3 C 16,1 C 8,3 C 81 % 1016,2 hPa 0,0 l/m 2,8 km/h (1 Bft) S-SW 211 0 min 0,000 mm 0,0 UV-I 0 W/m 8,2 C 11,3 C 4,8 km/h (1 Bft) 100,00 %
23.05.2019 21:48 11,2 C 16,1 C 8,3 C 81 % 1016,2 hPa 0,0 l/m 4,0 km/h (1 Bft) S-SW 211 0 min 0,000 mm 0,0 UV-I 0 W/m 8,1 C 11,2 C 4,8 km/h (1 Bft) 93,62 %
23.05.2019 21:50 11,2 C 16,1 C 7,8 C 81 % 1016,2 hPa 0,0 l/m 4,3 km/h (1 Bft) S-SW 211 0 min 0,000 mm 0,0 UV-I 0 W/m 8,1 C 11,2 C 6,4 km/h (2 Bft) 95,74 %
23.05.2019 21:52 11,1 C 16,1 C 7,8 C 80 % 1016,2 hPa 0,0 l/m 3,8 km/h (1 Bft) S-SW 211 0 min 0,000 mm 0,0 UV-I 0 W/m 7,8 C 11,1 C 4,8 km/h (1 Bft) 97,87 %
23.05.2019 21:54 11,2 C 16,1 C 7,8 C 81 % 1016,1 hPa 0,0 l/m 3,6 km/h (1 Bft) S-SW 211 0 min 0,000 mm 0,0 UV-I 0 W/m 8,1 C 11,2 C 4,8 km/h (1 Bft) 98,00 %
23.05.2019 21:56 11,1 C 16,1 C 7,8 C 81 % 1016,2 hPa 0,0 l/m 3,8 km/h (1 Bft) S-SW 211 0 min 0,000 mm 0,0 UV-I 0 W/m 8,0 C 11,1 C 4,8 km/h (1 Bft) 98,00 %
23.05.2019 21:59 11,1 C 16,1 C 7,8 C 83 % 1016,2 hPa 0,0 l/m 3,3 km/h (1 Bft) S-SW 211 0 min 0,000 mm 0,0 UV-I 0 W/m 8,3 C 11,1 C 4,8 km/h (1 Bft) 97,14 %
23.05.2019 22:00 10,9 C 16,1 C 7,8 C 82 % 1016,2 hPa 0,0 l/m 4,0 km/h (1 Bft) S-SW 211 0 min 0,000 mm 0,0 UV-I 0 W/m 7,9 C 10,9 C 4,8 km/h (1 Bft) 100,00 %
23.05.2019 22:02 10,9 C 16,1 C 7,8 C 82 % 1016,2 hPa 0,0 l/m 4,8 km/h (1 Bft) S-SW 211 0 min 0,025 mm 0,0 UV-I 0 W/m 7,9 C 10,9 C 6,4 km/h (2 Bft) 97,87 %
23.05.2019 22:04 10,9 C 16,1 C 7,8 C 81 % 1016,1 hPa 0,0 l/m 5,3 km/h (1 Bft) S-SW 211 0 min 0,000 mm 0,0 UV-I 0 W/m 7,8 C 10,9 C 6,4 km/h (2 Bft) 100,00 %
23.05.2019 22:06 10,9 C 16,1 C 7,8 C 81 % 1016,2 hPa 0,0 l/m 5,0 km/h (1 Bft) S-SW 211 0 min 0,000 mm 0,0 UV-I 0 W/m 7,8 C 10,9 C 6,4 km/h (2 Bft) 97,87 %
23.05.2019 22:08 11,0 C 16,1 C 7,8 C 81 % 1016,2 hPa 0,0 l/m 4,2 km/h (1 Bft) S-SW 211 0 min 0,000 mm 0,0 UV-I 0 W/m 7,9 C 11,0 C 6,4 km/h (2 Bft) 97,87 %
23.05.2019 22:10 11,0 C 16,1 C 7,8 C 81 % 1016,2 hPa 0,0 l/m 3,4 km/h (1 Bft) S-SW 211 0 min 0,000 mm 0,0 UV-I 0 W/m 7,9 C 11,0 C 4,8 km/h (1 Bft) 100,00 %
23.05.2019 22:12 11,1 C 16,1 C 7,8 C 81 % 1016,2 hPa 0,0 l/m 4,0 km/h (1 Bft) S-SW 211 0 min 0,000 mm 0,0 UV-I 0 W/m 8,0 C 11,1 C 4,8 km/h (1 Bft) 100,00 %
23.05.2019 22:14 11,1 C 16,1 C 7,8 C 80 % 1016,2 hPa 0,0 l/m 3,7 km/h (1 Bft) S-SW 211 0 min 0,000 mm 0,0 UV-I 0 W/m 7,8 C 11,1 C 4,8 km/h (1 Bft) 100,00 %
23.05.2019 22:16 11,1 C 16,1 C 7,8 C 80 % 1016,2 hPa 0,0 l/m 4,5 km/h (1 Bft) S-SW 211 0 min 0,000 mm 0,0 UV-I 0 W/m 7,8 C 11,1 C 6,4 km/h (2 Bft) 96,00 %
23.05.2019 22:18 10,9 C 16,1 C 7,2 C 81 % 1016,2 hPa 0,0 l/m 3,9 km/h (1 Bft) S-SW 211 0 min 0,000 mm 0,0 UV-I 0 W/m 7,8 C 10,9 C 4,8 km/h (1 Bft) 95,74 %
23.05.2019 22:20 10,8 C 16,1 C 7,2 C 82 % 1016,1 hPa 0,0 l/m 3,0 km/h (1 Bft) S-SW 211 0 min 0,000 mm 0,0 UV-I 0 W/m 7,9 C 10,8 C 4,8 km/h (1 Bft) 94,87 %
23.05.2019 22:22 10,8 C 16,1 C 7,2 C 82 % 1016,1 hPa 0,0 l/m 3,1 km/h (1 Bft) S-SW 211 0 min 0,000 mm 0,0 UV-I 0 W/m 7,9 C 10,8 C 4,8 km/h (1 Bft) 97,87 %
23.05.2019 22:24 10,8 C 16,1 C 7,8 C 82 % 1016,2 hPa 0,0 l/m 4,8 km/h (1 Bft) S-SW 211 0 min 0,000 mm 0,0 UV-I 0 W/m 7,9 C 10,8 C 6,4 km/h (2 Bft) 93,62 %
23.05.2019 22:26 10,8 C 16,1 C 7,8 C 82 % 1016,2 hPa 0,0 l/m 5,9 km/h (2 Bft) S-SW 203 0 min 0,000 mm 0,0 UV-I 0 W/m 7,9 C 10,8 C 8,0 km/h (2 Bft) 97,87 %
23.05.2019 22:29 11,2 C 16,1 C 7,8 C 79 % 1016,1 hPa 0,0 l/m 6,1 km/h (2 Bft) S-SW 196 0 min 0,000 mm 0,0 UV-I 0 W/m 7,7 C 11,2 C 9,7 km/h (2 Bft) 95,12 %
23.05.2019 22:30 11,3 C 16,1 C 7,8 C 78 % 1016,1 hPa 0,0 l/m 5,6 km/h (1 Bft) S-SW 196 0 min 0,000 mm 0,0 UV-I 0 W/m 7,6 C 11,3 C 6,4 km/h (2 Bft) 100,00 %
23.05.2019 22:32 11,4 C 16,1 C 7,8 C 77 % 1016,1 hPa 0,0 l/m 5,2 km/h (1 Bft) S-SW 196 0 min 0,000 mm 0,0 UV-I 0 W/m 7,5 C 11,4 C 6,4 km/h (2 Bft) 95,74 %
23.05.2019 22:34 11,5 C 16,1 C 8,3 C 77 % 1016,1 hPa 0,0 l/m 5,4 km/h (1 Bft) S-SW 196 0 min 0,000 mm 0,0 UV-I 0 W/m 7,6 C 11,5 C 6,4 km/h (2 Bft) 97,87 %
23.05.2019 22:36 11,6 C 16,1 C 8,3 C 77 % 1016,1 hPa 0,0 l/m 5,3 km/h (1 Bft) S-SW 196 0 min 0,000 mm 0,0 UV-I 0 W/m 7,7 C 11,6 C 6,4 km/h (2 Bft) 97,87 %
23.05.2019 22:38 11,5 C 16,1 C 8,3 C 76 % 1016,1 hPa 0,0 l/m 5,0 km/h (1 Bft) S-SW 196 0 min 0,000 mm 0,0 UV-I 0 W/m 7,4 C 11,5 C 6,4 km/h (2 Bft) 95,74 %
23.05.2019 22:40 11,4 C 16,1 C 8,3 C 77 % 1016,1 hPa 0,0 l/m 5,1 km/h (1 Bft) S-SW 196 0 min 0,000 mm 0,0 UV-I 0 W/m 7,5 C 11,4 C 6,4 km/h (2 Bft) 100,00 %
23.05.2019 22:42 11,2 C 16,1 C 8,3 C 78 % 1016,2 hPa 0,0 l/m 4,6 km/h (1 Bft) S-SW 196 0 min 0,000 mm 0,0 UV-I 0 W/m 7,5 C 11,2 C 6,4 km/h (2 Bft) 98,00 %
23.05.2019 22:44 11,1 C 16,1 C 7,8 C 79 % 1016,1 hPa 0,0 l/m 5,1 km/h (1 Bft) S-SW 196 0 min 0,000 mm 0,0 UV-I 0 W/m 7,6 C 11,1 C 6,4 km/h (2 Bft) 97,87 %
23.05.2019 22:46 10,9 C 16,1 C 7,8 C 79 % 1016,1 hPa 0,0 l/m 4,5 km/h (1 Bft) S-SW 196 0 min 0,000 mm 0,0 UV-I 0 W/m 7,4 C 10,9 C 6,4 km/h (2 Bft) 100,00 %
23.05.2019 22:48 10,9 C 16,1 C 7,8 C 79 % 1016,1 hPa 0,0 l/m 4,7 km/h (1 Bft) S-SW 196 0 min 0,000 mm 0,0 UV-I 0 W/m 7,4 C 10,9 C 6,4 km/h (2 Bft) 97,87 %
23.05.2019 22:50 10,9 C 16,1 C 7,2 C 79 % 1016,1 hPa 0,0 l/m 5,0 km/h (1 Bft) S-SW 200 0 min 0,000 mm 0,0 UV-I 0 W/m 7,4 C 10,9 C 6,4 km/h (2 Bft) 97,87 %
23.05.2019 22:52 10,9 C 16,1 C 7,2 C 79 % 1016,1 hPa 0,0 l/m 4,9 km/h (1 Bft) S-SW 200 0 min 0,000 mm 0,0 UV-I 0 W/m 7,4 C 10,9 C 6,4 km/h (2 Bft) 100,00 %
23.05.2019 22:54 11,1 C 16,1 C 7,2 C 79 % 1016,1 hPa 0,0 l/m 5,4 km/h (1 Bft) S-SW 203 0 min 0,000 mm 0,0 UV-I 0 W/m 7,6 C 11,1 C 6,4 km/h (2 Bft) 100,00 %
23.05.2019 22:56 11,1 C 16,1 C 7,2 C 79 % 1016,0 hPa 0,0 l/m 5,8 km/h (2 Bft) S-SW 202 0 min 0,000 mm 0,0 UV-I 0 W/m 7,6 C 11,1 C 6,4 km/h (2 Bft) 97,92 %
23.05.2019 22:58 11,1 C 16,1 C 7,2 C 79 % 1016,0 hPa 0,0 l/m 5,4 km/h (1 Bft) S-SW 202 0 min 0,000 mm 0,0 UV-I 0 W/m 7,6 C 11,1 C 8,0 km/h (2 Bft) 96,00 %
23.05.2019 23:00 11,2 C 16,1 C 7,2 C 79 % 1016,0 hPa 0,0 l/m 5,6 km/h (1 Bft) S-SW 202 0 min 0,000 mm 0,0 UV-I 0 W/m 7,7 C 11,2 C 6,4 km/h (2 Bft) 98,00 %
23.05.2019 23:02 11,2 C 16,1 C 7,2 C 78 % 1016,0 hPa 0,0 l/m 6,4 km/h (2 Bft) S-SW 203 0 min 0,025 mm 0,0 UV-I 0 W/m 7,5 C 11,2 C 9,7 km/h (2 Bft) 100,00 %
23.05.2019 23:04 11,2 C 16,1 C 7,8 C 78 % 1015,9 hPa 0,0 l/m 6,3 km/h (2 Bft) SW 214 0 min 0,000 mm 0,0 UV-I 0 W/m 7,5 C 11,2 C 8,0 km/h (2 Bft) 100,00 %
23.05.2019 23:06 11,2 C 16,1 C 7,8 C 78 % 1016,0 hPa 0,0 l/m 6,3 km/h (2 Bft) S-SW 206 0 min 0,000 mm 0,0 UV-I 0 W/m 7,5 C 11,2 C 9,7 km/h (2 Bft) 100,00 %
23.05.2019 23:08 11,2 C 16,1 C 8,3 C 79 % 1016,0 hPa 0,0 l/m 6,8 km/h (2 Bft) S-SW 196 0 min 0,000 mm 0,0 UV-I 0 W/m 7,7 C 10,9 C 9,7 km/h (2 Bft) 95,74 %
23.05.2019 23:10 11,2 C 16,1 C 8,3 C 79 % 1016,0 hPa 0,0 l/m 5,9 km/h (2 Bft) S 186 0 min 0,000 mm 0,0 UV-I 0 W/m 7,7 C 11,2 C 9,7 km/h (2 Bft) 97,87 %
23.05.2019 23:12 11,3 C 16,1 C 8,9 C 78 % 1016,0 hPa 0,0 l/m 6,3 km/h (2 Bft) S-SW 198 0 min 0,000 mm 0,0 UV-I 0 W/m 7,6 C 11,3 C 9,7 km/h (2 Bft) 100,00 %
23.05.2019 23:14 11,3 C 16,1 C 8,9 C 78 % 1016,0 hPa 0,0 l/m 6,6 km/h (2 Bft) S-SW 200 0 min 0,000 mm 0,0 UV-I 0 W/m 7,6 C 11,2 C 9,7 km/h (2 Bft) 97,87 %
23.05.2019 23:16 11,4 C 16,1 C 8,9 C 78 % 1016,0 hPa 0,0 l/m 6,2 km/h (2 Bft) S-SW 195 0 min 0,000 mm 0,0 UV-I 0 W/m 7,7 C 11,4 C 9,7 km/h (2 Bft) 97,87 %
23.05.2019 23:18 11,4 C 16,1 C 8,9 C 77 % 1016,0 hPa 0,0 l/m 6,5 km/h (2 Bft) S-SW 205 0 min 0,000 mm 0,0 UV-I 0 W/m 7,5 C 11,4 C 9,7 km/h (2 Bft) 97,87 %
23.05.2019 23:20 11,4 C 16,1 C 9,4 C 77 % 1016,0 hPa 0,0 l/m 6,8 km/h (2 Bft) S-SW 199 0 min 0,000 mm 0,0 UV-I 0 W/m 7,5 C 11,1 C 8,0 km/h (2 Bft) 93,62 %
23.05.2019 23:22 11,4 C 16,1 C 9,4 C 77 % 1015,9 hPa 0,0 l/m 7,0 km/h (2 Bft) S-SW 200 0 min 0,000 mm 0,0 UV-I 0 W/m 7,5 C 11,0 C 9,7 km/h (2 Bft) 97,87 %
23.05.2019 23:24 11,3 C 16,1 C 9,4 C 77 % 1015,9 hPa 0,0 l/m 6,5 km/h (2 Bft) S 188 0 min 0,000 mm 0,0 UV-I 0 W/m 7,4 C 11,3 C 8,0 km/h (2 Bft) 97,87 %
23.05.2019 23:26 11,3 C 16,1 C 9,4 C 78 % 1016,0 hPa 0,0 l/m 6,7 km/h (2 Bft) S-SW 195 0 min 0,000 mm 0,0 UV-I 0 W/m 7,6 C 11,1 C 8,0 km/h (2 Bft) 97,87 %
23.05.2019 23:28 11,2 C 16,1 C 9,4 C 78 % 1015,9 hPa 0,0 l/m 6,0 km/h (2 Bft) S-SW 197 0 min 0,000 mm 0,0 UV-I 0 W/m 7,5 C 11,2 C 8,0 km/h (2 Bft) 97,87 %
23.05.2019 23:30 11,1 C 16,1 C 9,4 C 78 % 1015,9 hPa 0,0 l/m 6,6 km/h (2 Bft) S-SW 200 0 min 0,000 mm 0,0 UV-I 0 W/m 7,4 C 11,0 C 9,7 km/h (2 Bft) 95,74 %
23.05.2019 23:32 11,1 C 16,1 C 9,4 C 79 % 1015,9 hPa 0,0 l/m 5,6 km/h (1 Bft) S-SW 198 0 min 0,000 mm 0,0 UV-I 0 W/m 7,6 C 11,1 C 8,0 km/h (2 Bft) 91,67 %
23.05.2019 23:34 11,0 C 16,1 C 8,9 C 79 % 1015,9 hPa 0,0 l/m 6,0 km/h (2 Bft) S-SW 211 0 min 0,000 mm 0,0 UV-I 0 W/m 7,5 C 11,0 C 8,0 km/h (2 Bft) 96,15 %
23.05.2019 23:36 10,9 C 16,1 C 8,3 C 79 % 1015,9 hPa 0,0 l/m 4,6 km/h (1 Bft) S-SW 207 0 min 0,000 mm 0,0 UV-I 0 W/m 7,4 C 10,9 C 6,4 km/h (2 Bft) 93,62 %
23.05.2019 23:38 10,8 C 16,1 C 8,3 C 79 % 1015,9 hPa 0,0 l/m 4,7 km/h (1 Bft) S-SW 197 0 min 0,000 mm 0,0 UV-I 0 W/m 7,3 C 10,8 C 6,4 km/h (2 Bft) 95,74 %
23.05.2019 23:40 10,8 C 16,1 C 8,9 C 80 % 1016,0 hPa 0,0 l/m 5,9 km/h (2 Bft) S-SW 197 0 min 0,000 mm 0,0 UV-I 0 W/m 7,5 C 10,8 C 8,0 km/h (2 Bft) 93,62 %
23.05.2019 23:42 10,8 C 16,1 C 8,9 C 80 % 1016,0 hPa 0,0 l/m 5,7 km/h (1 Bft) S-SW 196 0 min 0,000 mm 0,0 UV-I 0 W/m 7,5 C 10,8 C 8,0 km/h (2 Bft) 94,00 %
23.05.2019 23:44 10,7 C 16,1 C 8,9 C 80 % 1016,0 hPa 0,0 l/m 6,4 km/h (2 Bft) S 186 0 min 0,000 mm 0,0 UV-I 0 W/m 7,4 C 10,7 C 9,7 km/h (2 Bft) 92,11 %
23.05.2019 23:46 10,8 C 16,1 C 8,9 C 80 % 1015,9 hPa 0,0 l/m 7,5 km/h (2 Bft) S 186 0 min 0,000 mm 0,0 UV-I 0 W/m 7,5 C 10,0 C 9,7 km/h (2 Bft) 91,49 %
23.05.2019 23:48 10,8 C 16,1 C 8,9 C 80 % 1015,9 hPa 0,0 l/m 6,6 km/h (2 Bft) S-SW 194 0 min 0,000 mm 0,0 UV-I 0 W/m 7,5 C 10,7 C 8,0 km/h (2 Bft) 93,62 %
23.05.2019 23:50 10,8 C 16,1 C 8,9 C 80 % 1015,9 hPa 0,0 l/m 7,4 km/h (2 Bft) S-SW 196 0 min 0,000 mm 0,0 UV-I 0 W/m 7,5 C 10,1 C 9,7 km/h (2 Bft) 93,62 %
23.05.2019 23:52 10,7 C 16,1 C 8,9 C 80 % 1015,9 hPa 0,0 l/m 7,5 km/h (2 Bft) S 172 0 min 0,000 mm 0,0 UV-I 0 W/m 7,4 C 9,9 C 9,7 km/h (2 Bft) 89,36 %
23.05.2019 23:54 10,7 C 16,1 C 8,9 C 80 % 1015,9 hPa 0,0 l/m 6,2 km/h (2 Bft) S-SW 210 0 min 0,000 mm 0,0 UV-I 0 W/m 7,4 C 10,7 C 8,0 km/h (2 Bft) 96,00 %
23.05.2019 23:56 10,7 C 16,1 C 8,9 C 80 % 1015,9 hPa 0,0 l/m 5,9 km/h (2 Bft) S-SW 202 0 min 0,000 mm 0,0 UV-I 0 W/m 7,4 C 10,7 C 8,0 km/h (2 Bft) 96,00 %
23.05.2019 23:58 10,6 C 16,1 C 8,9 C 80 % 1015,9 hPa 0,0 l/m 6,5 km/h (2 Bft) S-SW 206 0 min 0,000 mm 0,0 UV-I 0 W/m 7,3 C 10,6 C 9,7 km/h (2 Bft) 89,36 %
_ Min-Zeit 06:08 00:01 22:18 18:40 19:30 - 20:46 - - - - - - 18:40 06:32 20:46 19:34
Minimum _ 10,2 C 14,4 C 7,2 C 43 % 1015,6 hPa - 0,0 km/h (0 Bft) - - - - - - 5,4 C 5,7 C 0,0 km/h (0 Bft) 86,00 %
_ Max-Zeit 14:34 14:30 13:56 06:00 10:24 00:01 03:10 - - 12:09 14:00 13:46 11:34 00:18 14:34 11:14 00:01
Maximum _ 18,3 C 16,1 C 36,1 C 93 % 1018,9 hPa 0,0 l/m 19,0 km/h
W-SW (3 Bft)
- - 3 min 0,584 mm 5,7 UV-I 1148 W/m 10,6 C 18,3 C 29,0 km/h
W-SW (5 Bft)
100,00 %
Durchschnitt _ 13,8 C 15,2 C 16,9 C 73 % 1017,2 hPa #0,0 l/m 8,6 km/h (2 Bft) W - #8:34 h #3,835 mm 2,4 UV-I 363 W/m 8,6 C 12,3 C 14,0 km/h (3 Bft) 96,97 %